[[{"header":{"parameterUnit":"m.s-1","parameterCategory":1,"la1":30.6,"la2":29.2853,"lo1":-89.7004,"lo2":-87.6739,"dy":0.0162,"dx":0.0183,"nx":112,"ny":82,"refTime":"2024-07-09T06:00:00:Z","depth":0,"parameterNumber":2,"parameterNumberName":"U-component_of_WINDS"},"data":[0.0,0.0,0.0,0.0,0.0,0.0,0.0,0.0,0.0,0.0,0.0,0.0,0.0,0.0,0.0,0.0,0.0,0.0,0.0,0.0,0.0,0.0,0.0,0.0,0.0,0.0,0.0,0.0,0.0,0.0,0.0,0.0,0.0,0.0,0.0,0.0,0.0,0.0,0.0,0.0,0.0,0.0,0.0,0.0,0.0,0.0,0.0,0.0,0.0,0.0,0.0,0.0,0.0,0.0,0.0,0.0,0.0,0.0,0.0,0.0,0.0,0.0,0.0,0.0,0.0,0.0,0.0,0.0,0.0,0.0,0.0,0.0,0.0,0.0,0.0,0.0,0.0,0.0,0.0,0.0,0.0,0.0,0.0,0.0,0.0,0.0,0.0,0.0,0.0,0.0,0.0,-0.598,-0.6389,-0.6583,-0.6475,-0.6475,-0.5779,-0.419,0.0,0.0,0.0,0.0,0.0,0.0,0.0,0.0,0.0,0.0,0.0,0.0,0.0,0.0,0.0,0.0,0.0,0.0,0.0,0.0,0.0,0.0,0.0,0.0,0.0,0.0,0.0,0.0,0.0,0.0,0.0,0.0,0.0,0.0,0.0,0.0,0.0,0.0,0.0,0.0,0.0,0.0,0.0,0.0,0.0,0.0,0.0,0.0,0.0,0.0,0.0,0.0,0.0,0.0,0.0,0.0,0.0,0.0,0.0,0.0,0.0,0.0,0.0,0.0,0.0,0.0,0.0,0.0,0.0,0.0,0.0,0.0,0.0,0.0,0.0,0.0,0.0,0.0,0.0,0.0,0.0,0.0,0.0,0.0,0.0,0.0,0.0,0.0,0.0,0.0,0.0,0.0,0.0,0.0,0.0,0.0,0.0,0.0,0.0,0.0,0.0,0.0,0.0,0.0,-0.5355,-0.733,-0.805,-0.8203,-0.7658,-0.7658,-0.6851,-0.5019,0.0,0.0,0.0,0.0,0.0,0.0,0.0,0.0,0.0,0.0,0.0,0.0,0.0,0.0,0.0,0.0,0.0,0.0,0.0,0.0,0.0,0.0,0.0,0.0,0.0,0.0,0.0,0.0,0.0,0.0,0.0,0.0,0.0,0.0,0.0,0.0,0.0,0.0,0.0,0.0,0.0,0.0,0.0,0.0,0.0,0.0,0.0,0.0,0.0,0.0,0.0,0.0,0.0,0.0,0.0,0.0,0.0,0.0,0.0,0.0,0.0,0.0,0.0,0.0,0.0,0.0,0.0,0.0,0.0,0.0,0.0,0.0,0.0,0.0,0.0,0.0,0.0,0.0,0.0,0.0,0.0,0.0,0.0,0.0,0.0,0.0,0.0,0.0,0.0,0.0,0.0,0.0,0.0,0.0,0.0,0.0,0.0,0.0,0.0,0.0,0.0,0.0,0.0,-0.4817,-0.5473,-0.7267,-0.7133,-0.6912,-0.6961,-0.7283,-0.6772,-0.515,-0.4968,0.0,0.0,0.0,0.0,0.0,0.0,0.0,0.0,0.0,0.0,0.0,0.0,0.0,0.0,0.0,0.0,0.0,0.0,0.0,0.0,0.0,0.0,0.0,0.0,0.0,0.0,0.0,0.0,0.0,0.0,0.0,0.0,0.0,0.0,0.0,0.0,0.0,0.0,0.0,0.0,0.0,0.0,0.0,0.0,0.0,0.0,0.0,0.0,0.0,0.0,0.0,0.0,0.0,0.0,0.0,0.0,0.0,0.0,0.0,0.0,0.0,0.0,0.0,0.0,0.0,0.0,0.0,0.0,0.0,0.0,0.0,0.0,0.0,0.0,0.0,0.0,0.0,0.0,0.0,0.0,0.0,0.0,0.0,0.0,0.0,0.0,0.0,0.0,0.0,0.0,0.0,0.0,0.0,0.0,0.0,0.0,0.0,0.0,0.0,0.0,0.0,0.0,-0.5685,-0.6101,-0.7147,-0.6485,-0.605,-0.6372,-0.6607,-0.6146,-0.4921,-0.4819,0.0,0.0,0.0,0.0,0.0,0.0,0.0,0.0,0.0,0.0,0.0,0.0,0.0,0.0,0.0,0.0,0.0,0.0,0.0,0.0,0.0,0.0,0.0,0.0,0.0,0.0,0.0,0.0,0.0,0.0,0.0,0.0,0.0,0.0,0.0,0.0,0.0,0.0,0.0,0.0,0.0,0.0,0.0,0.0,0.0,0.0,0.0,0.0,0.0,0.0,0.0,0.0,0.0,0.0,0.0,0.0,0.0,0.0,0.0,0.0,0.0,0.0,0.0,0.0,0.0,0.0,0.0,0.0,0.0,0.0,0.0,0.0,0.0,0.0,0.0,0.0,0.0,0.0,0.0,0.0,0.0,0.0,0.0,0.0,0.0,0.0,0.0,0.0,0.0,0.0,0.0,0.0,0.0,0.0,0.0,0.0,0.0,0.0,0.0,0.0,0.0,0.0,-0.6439,-0.7756,-0.7811,-0.7765,-0.7557,-0.7085,-0.6121,-0.5185,-0.4416,-0.3547,0.0,0.0,0.0,0.0,0.0,0.0,0.0,0.0,0.0,0.0,0.0,0.0,0.0,0.0,0.0,0.0,0.0,0.0,0.0,0.0,0.0,0.0,0.0,0.0,0.0,0.0,0.0,0.0,0.0,0.0,0.0,0.0,0.0,0.0,0.0,0.0,0.0,0.0,0.0,0.0,0.0,0.0,0.0,0.0,0.0,0.0,0.0,0.0,0.0,0.0,0.0,0.0,0.0,0.0,0.0,0.0,0.0,0.0,0.0,0.0,0.0,0.0,0.0,0.0,0.0,0.0,0.0,0.0,0.0,0.0,0.0,0.0,0.0,0.0,0.0,0.0,0.0,0.0,0.0,0.0,0.0,0.0,0.0,0.0,0.0,0.0,0.0,0.0,0.0,0.0,0.0,0.0,0.0,0.0,0.0,0.0,0.0,0.0,0.0,0.0,0.0,0.0,-0.5984,-0.693,0.0,-0.761,-0.7456,-0.761,-0.7183,-0.6459,-0.524,0.0,0.0,0.0,0.0,0.0,0.0,0.0,0.0,0.0,0.0,0.0,0.0,0.0,0.0,0.0,0.0,0.0,0.0,0.0,0.0,0.0,0.0,0.0,0.0,0.0,0.0,0.0,0.0,0.0,0.0,0.0,0.0,0.0,0.0,0.0,0.0,0.0,0.0,0.0,0.0,0.0,0.0,0.0,0.0,0.0,0.0,0.0,0.0,0.0,0.0,0.0,0.0,0.0,0.0,0.0,0.0,0.0,0.0,0.0,0.0,0.0,0.0,0.0,0.0,0.0,0.0,0.0,0.0,0.0,0.0,0.0,0.0,0.0,0.0,0.0,0.0,0.0,0.0,0.0,0.0,0.0,0.0,0.0,0.0,0.0,0.0,0.0,0.0,0.0,0.0,0.0,0.0,0.0,0.0,0.0,0.0,0.0,0.0,0.0,0.0,0.0,0.0,-0.5371,-0.6157,-0.7037,0.0,-0.767,-0.7503,-0.7871,-0.7514,-0.6719,-0.5525,0.0,0.0,0.0,0.0,0.0,0.0,0.0,0.0,0.0,0.0,0.0,0.0,0.0,0.0,0.0,0.0,0.0,0.0,0.0,0.0,0.0,0.0,0.0,0.0,0.0,0.0,0.0,0.0,0.0,0.0,0.0,0.0,0.0,0.0,0.0,0.0,0.0,0.0,0.0,0.0,0.0,0.0,0.0,0.0,0.0,0.0,0.0,0.0,0.0,0.0,0.0,0.0,0.0,0.0,0.0,0.0,0.0,0.0,0.0,0.0,0.0,0.0,0.0,0.0,0.0,0.0,0.0,0.0,0.0,0.0,0.0,0.0,0.0,0.0,0.0,0.0,0.0,0.0,0.0,0.0,0.0,0.0,0.0,0.0,0.0,0.0,0.0,0.0,0.0,0.0,0.0,0.0,0.0,0.0,0.0,0.0,0.0,0.0,0.0,0.0,0.0,0.0,-0.5448,-0.718,-0.8484,-0.8778,-0.8256,-0.7925,-0.7925,-0.6631,-0.5567,0.0,0.0,0.0,0.0,0.0,0.0,0.0,0.0,0.0,0.0,0.0,0.0,0.0,0.0,0.0,0.0,0.0,0.0,0.0,0.0,0.0,0.0,0.0,0.0,0.0,0.0,0.0,0.0,0.0,0.0,0.0,0.0,0.0,0.0,0.0,0.0,0.0,0.0,0.0,0.0,0.0,0.0,0.0,0.0,0.0,0.0,0.0,0.0,0.0,0.0,0.0,0.0,0.0,0.0,0.0,0.0,0.0,0.0,0.0,0.0,0.0,0.0,0.0,0.0,0.0,0.0,0.0,0.0,0.0,0.0,0.0,0.0,0.0,0.0,0.0,0.0,0.0,0.0,0.0,0.0,0.0,0.0,0.0,0.0,0.0,0.0,0.0,0.0,0.0,0.0,0.0,0.0,0.0,0.0,0.0,0.0,0.0,0.0,0.0,0.0,0.0,0.0,0.0,-0.597,-0.7439,-0.8484,-0.8778,-0.8646,-0.8533,-0.8533,-0.7991,-0.7119,-0.5959,0.0,0.0,0.0,0.0,0.0,0.0,0.0,0.0,0.0,0.0,0.0,0.0,0.0,0.0,0.0,0.0,0.0,0.0,0.0,0.0,0.0,0.0,0.0,0.0,0.0,0.0,0.0,0.0,0.0,0.0,0.0,0.0,0.0,0.0,0.0,0.0,0.0,0.0,0.0,0.0,0.0,0.0,0.0,0.0,0.0,0.0,0.0,0.0,0.0,0.0,0.0,0.0,0.0,0.0,0.0,0.0,0.0,0.0,0.0,0.0,0.0,0.0,0.0,0.0,0.0,0.0,0.0,0.0,0.0,0.0,0.0,0.0,0.0,0.0,0.0,0.0,0.0,0.0,0.0,0.0,0.0,0.0,0.0,0.0,0.0,0.0,0.0,0.0,0.0,0.0,0.0,0.0,0.0,0.0,0.0,0.0,0.0,0.0,0.0,0.0,0.0,0.0,-0.6212,-0.7643,-0.8611,-0.8791,-0.8804,-0.8804,-0.8804,-0.8544,-0.7868,-0.6628,0.0,0.0,0.0,0.0,0.0,0.0,0.0,0.0,0.0,0.0,0.0,0.0,0.0,0.0,0.0,0.0,0.0,0.0,0.0,0.0,0.0,0.0,0.0,0.0,0.0,0.0,0.0,0.0,0.0,0.0,0.0,0.0,0.0,0.0,0.0,0.0,0.0,0.0,0.0,0.0,0.0,0.0,0.0,0.0,0.0,0.0,0.0,0.0,0.0,0.0,0.0,0.0,0.0,0.0,0.0,0.0,0.0,0.0,0.0,0.0,0.0,0.0,0.0,0.0,0.0,0.0,0.0,0.0,0.0,0.0,0.0,0.0,0.0,0.0,0.0,0.0,0.0,0.0,0.0,0.0,0.0,0.0,0.0,0.0,0.0,0.0,0.0,0.0,0.0,0.0,0.0,0.0,0.0,0.0,0.0,0.0,0.0,0.0,0.0,0.0,0.0,0.0,-0.6309,-0.7808,-0.8804,-0.8804,-0.8804,-0.8804,-0.8804,-0.8544,-0.8016,-0.7095,0.0,0.0,0.0,0.0,0.0,0.0,0.0,0.0,0.0,0.0,0.0,0.0,0.0,0.0,0.0,0.0,0.0,0.0,0.0,0.0,0.0,0.0,0.0,0.0,0.0,0.0,0.0,0.0,0.0,0.0,0.0,0.0,0.0,0.0,0.0,0.0,0.0,0.0,0.0,0.0,0.0,0.0,0.0,0.0,0.0,0.0,0.0,0.0,0.0,0.0,0.0,0.0,0.0,0.0,0.0,0.0,0.0,0.0,0.0,0.0,-0.6719,0.0,0.0,0.0,0.0,0.0,0.0,0.0,0.0,0.0,0.0,0.0,0.0,0.0,0.0,0.0,0.0,0.0,0.0,0.0,0.0,0.0,0.0,0.0,0.0,0.0,0.0,0.0,0.0,0.0,0.0,0.0,0.0,0.0,0.0,0.0,0.0,0.0,0.0,0.0,0.0,0.0,-0.6778,-0.7981,-0.8804,-0.8804,-0.8804,-0.8804,-0.8804,-0.8639,-0.833,-0.7855,-0.684,0.0,0.0,0.0,0.0,0.0,0.0,0.0,0.0,0.0,0.0,0.0,0.0,0.0,0.0,0.0,0.0,0.0,0.0,0.0,0.0,0.0,0.0,0.0,0.0,0.0,0.0,0.0,0.0,0.0,0.0,0.0,0.0,0.0,0.0,0.0,0.0,0.0,0.0,0.0,0.0,0.0,0.0,0.0,0.0,0.0,0.0,0.0,0.0,0.0,0.0,0.0,0.0,0.0,0.0,0.0,0.0,0.0,0.0,0.0,0.0,-0.5645,0.0,0.0,0.0,0.0,0.0,0.0,0.0,0.0,0.0,0.0,0.0,0.0,0.0,0.0,0.0,0.0,0.0,0.0,0.0,0.0,0.0,0.0,0.0,0.0,0.0,0.0,0.0,0.0,0.0,0.0,0.0,0.0,0.0,0.0,0.0,0.0,0.0,0.0,0.0,0.0,-0.7161,-0.8156,-0.8804,-0.8804,-0.8804,-0.8804,-0.891,-0.882,-0.8696,-0.8484,-0.768,0.0,0.0,0.0,0.0,0.0,0.0,0.0,0.0,0.0,0.0,0.0,0.0,0.0,0.0,0.0,0.0,0.0,0.0,0.0,0.0,0.0,0.0,0.0,0.0,0.0,0.0,0.0,0.0,0.0,0.0,0.0,0.0,0.0,0.0,0.0,0.0,0.0,0.0,0.0,0.0,0.0,0.0,0.0,0.0,0.0,0.0,0.0,0.0,0.0,0.0,0.0,0.0,0.0,-1.047,-1.0068,-1.0272,-0.9819,-0.9863,-1.0111,-0.6697,-0.6887,-0.9493,-0.8275,0.0,0.0,0.0,0.0,0.0,0.0,0.0,0.0,0.0,0.0,0.0,0.0,0.0,0.0,0.0,0.0,0.0,0.0,0.0,0.0,0.0,0.0,0.0,0.0,-0.8854,-0.8755,-0.7215,0.0,0.0,0.0,0.0,0.0,0.0,0.0,0.0,0.0,0.0,0.0,-0.7468,-0.8283,-0.8811,-0.8857,-0.8857,-0.891,-0.9008,-0.9061,-0.9047,-0.8984,-0.8393,-0.7816,0.0,0.0,0.0,0.0,0.0,0.0,0.0,0.0,0.0,0.0,0.0,0.0,0.0,0.0,0.0,0.0,0.0,0.0,0.0,0.0,0.0,0.0,0.0,0.0,0.0,0.0,0.0,0.0,0.0,0.0,0.0,0.0,-0.5486,-0.5728,0.0,0.0,0.0,0.0,0.0,0.0,0.0,0.0,0.0,0.0,0.0,0.0,0.0,-0.9307,-0.9365,-1.0485,-1.1284,-1.1622,-1.1446,-1.1897,-1.2906,-1.0646,-1.085,-1.2958,-1.2445,0.0,-0.9611,-0.9407,0.0,0.0,0.0,0.0,0.0,0.0,0.0,0.0,0.0,0.0,0.0,0.0,0.0,0.0,0.0,0.0,0.0,0.0,0.0,0.0,0.0,0.0,-1.0122,-1.0115,-0.9953,-0.9776,0.0,-0.8187,-0.6807,-0.648,-0.6212,0.0,0.0,0.0,0.0,0.0,0.0,0.0,-0.7789,-0.8417,-0.8857,-0.8956,-0.8956,-0.9008,-0.9159,-0.9263,-0.934,-0.9356,-0.8873,-0.8529,-0.8335,-0.7194,0.0,0.0,0.0,0.0,0.0,0.0,0.0,0.0,0.0,0.0,0.0,0.0,0.0,0.0,0.0,0.0,0.0,0.0,0.0,0.0,0.0,0.0,0.0,0.0,0.0,0.0,0.0,0.0,0.0,-0.5174,-0.6004,-0.6666,-0.6503,-0.6279,0.0,0.0,0.0,0.0,0.0,0.0,0.0,0.0,0.0,-0.7618,-0.9644,-1.1063,-1.1787,-1.2358,-1.265,-1.265,-1.265,-1.295,-1.3455,-1.2314,-1.2416,-1.3492,-1.3492,-1.2842,-1.1764,-1.1027,-0.995,-0.8696,0.0,0.0,0.0,0.0,-0.5536,-0.724,-0.9556,-1.0014,-0.9614,-0.9614,0.0,0.0,0.0,0.0,0.0,0.0,0.0,0.0,0.0,0.0,-1.116,-1.116,-1.1233,-1.1192,-1.0892,-0.9969,-0.8935,0.0,-0.7686,-0.719,-0.6346,0.0,0.0,0.0,0.0,-0.7983,-0.8464,-0.9038,-0.9398,-0.9383,-0.9369,-0.9354,-0.933,-0.9361,-0.9413,-0.9517,-0.9307,-0.9131,-0.8907,-0.8187,-0.7466,0.0,0.0,0.0,0.0,0.0,0.0,0.0,0.0,0.0,0.0,0.0,0.0,0.0,0.0,0.0,0.0,0.0,0.0,0.0,0.0,0.0,0.0,0.0,0.0,0.0,0.0,0.0,0.0,-0.5743,-0.6512,-0.7533,-0.8056,-0.7914,0.0,0.0,0.0,0.0,0.0,0.0,-0.9235,-0.9542,-0.979,-1.0111,-1.1377,-1.2519,-1.3484,-1.3492,-1.3492,-1.3492,-1.3492,-1.3492,-1.3492,-1.3492,-1.3675,-1.3975,-1.3638,-1.3682,-1.3887,-1.2592,-1.1487,-1.0528,-0.9738,-0.8919,-0.8056,-0.7238,-0.8497,-1.0748,-1.1721,-1.1421,-1.0609,-1.0609,-1.115,-1.1772,-1.1611,0.0,0.0,0.0,0.0,-1.0436,-1.102,-1.1553,-1.197,-1.197,-1.215,-1.219,-1.1689,-1.14,-1.0774,0.0,-0.8958,-0.8404,-0.7435,0.0,0.0,0.0,0.0,-0.8854,-0.9253,-0.9687,-0.9937,-0.9876,-0.9777,-0.9684,-0.9609,-0.9508,-0.951,-0.9614,-0.9614,-0.9511,-0.9292,-0.8985,-0.8429,-0.7527,0.0,0.0,0.0,0.0,0.0,0.0,0.0,0.0,0.0,0.0,0.0,0.0,0.0,0.0,0.0,0.0,0.0,0.0,0.0,0.0,0.0,0.0,0.0,0.0,0.0,0.0,0.0,0.0,0.0,-0.8919,-0.8578,0.0,0.0,0.0,0.0,-0.9235,-1.0624,-1.1641,-1.2277,-1.1772,-1.1465,-1.1527,-1.2723,-1.3433,-1.3492,-1.3492,-1.3492,-1.3492,-1.3492,-1.3492,-1.3492,-1.3492,-1.4165,-1.5262,-1.4033,-1.4194,-1.5233,-1.3931,-1.336,-1.3177,-1.1911,-1.1399,-1.1355,-1.1297,-1.2131,-1.3309,-1.3375,-1.3353,-1.3301,-1.3301,-1.2921,-1.2291,-1.1553,-1.1539,0.0,0.0,-1.121,-1.1761,-1.1912,-1.2174,-1.2429,-1.2429,-1.2376,-1.2316,-1.2436,-1.2144,-1.1588,0.0,-0.982,-0.9506,-0.911,0.0,-0.9343,-0.9384,-0.9542,-0.9743,-1.0115,-1.0179,-1.025,-1.0344,-1.0072,-0.9933,-1.0075,-0.979,-0.9614,-0.9614,-0.9614,-0.9607,-0.9592,-0.9307,-0.8977,-0.8626,-0.7328,0.0,0.0,0.0,0.0,0.0,0.0,0.0,0.0,0.0,0.0,0.0,0.0,0.0,0.0,0.0,0.0,0.0,0.0,0.0,0.0,0.0,0.0,0.0,0.0,0.0,0.0,0.0,0.0,-0.9094,-0.9737,0.0,-0.9943,-0.9406,-0.9439,-1.0397,-1.1648,-1.2606,-1.3126,-1.2665,-1.2321,-1.2182,-1.3038,-1.3894,-1.4728,-1.4743,-1.4743,-1.4743,-1.4743,-1.4743,-1.4743,-1.4743,-1.4992,-1.5401,-1.494,-1.4999,-1.5394,-1.4933,-1.4245,-1.3448,-1.2987,-1.2804,-1.2804,-1.2804,-1.3097,-1.3492,-1.3492,-1.404,-1.4604,-1.3762,-1.3338,-1.3053,-1.2473,-1.2354,-1.2434,-1.2305,-1.2422,-1.264,-1.2921,-1.306,-1.3148,-1.3148,-1.3077,-1.3077,-1.2998,-1.2706,-1.2324,-1.1783,-1.1085,-1.0518,-1.0214,-1.0057,-0.9855,-0.9653,-1.0016,-1.0369,-1.06,-1.0792,-1.0895,-1.0865,-1.0741,-1.0501,-1.0133,-0.9994,-0.9833,-0.9629,-0.9614,-0.9614,-0.9614,-0.9511,-0.9314,-0.9007,-0.8341,-0.747,0.0,0.0,0.0,0.0,0.0,0.0,0.0,0.0,0.0,0.0,0.0,0.0,0.0,0.0,0.0,0.0,0.0,0.0,0.0,0.0,0.0,0.0,0.0,0.0,0.0,0.0,-0.9329,-0.9768,-1.0718,-1.107,-1.0638,-1.1048,-1.1282,-1.1143,-1.2328,-1.3192,-1.3477,-1.3426,-1.3228,-1.2862,-1.3265,-1.4121,-1.5416,-1.5431,-1.5431,-1.5431,-1.5431,-1.5431,-1.5431,-1.5431,-1.5431,-1.5431,-1.5431,-1.5431,-1.5431,-1.5431,-1.4918,-1.415,-1.415,-1.415,-1.415,-1.415,-1.415,-1.415,-1.415,-1.4714,-1.5255,-1.4172,-1.3821,-1.377,-1.3477,-1.3389,-1.3404,-1.3477,-1.3499,-1.355,-1.377,-1.374,-1.366,-1.366,-1.3579,-1.3492,-1.3346,-1.3179,-1.3035,-1.2885,-1.2069,-1.1368,-1.1171,-1.1022,-1.0781,-1.0463,-1.0767,-1.1117,-1.1131,-1.1305,-1.1356,-1.126,-1.1203,-1.0858,-1.0309,-1.0163,-0.9965,-0.9636,-0.9614,-0.9614,-0.9614,-0.9519,-0.9372,-0.9182,-0.868,-0.7958,-0.7011,0.0,0.0,0.0,0.0,0.0,0.0,0.0,0.0,0.0,0.0,0.0,0.0,0.0,0.0,0.0,0.0,0.0,0.0,0.0,0.0,0.0,0.0,0.0,-0.878,-0.9563,-1.0397,-1.1026,-1.1468,-1.1681,-1.1681,-1.2079,-1.2094,-1.1733,-1.2873,-1.3514,-1.3521,-1.4106,-1.4172,-1.3579,-1.3558,-1.4157,-1.5416,-1.5431,-1.5431,-1.5431,-1.5431,-1.5431,-1.5431,-1.5431,-1.5431,-1.5431,-1.5467,-1.5489,-1.5489,-1.5467,-1.5445,-1.5431,-1.5431,-1.5431,-1.5431,-1.5431,-1.5431,-1.5431,-1.5431,-1.5431,-1.5328,-1.4692,-1.4487,-1.4479,-1.4472,-1.4472,-1.4472,-1.4472,-1.4472,-1.4472,-1.4472,-1.4231,-1.3996,-1.3996,-1.3748,-1.3506,-1.3506,-1.3572,-1.3564,-1.3564,-1.2776,-1.2072,-1.2065,-1.2194,-1.2222,-1.184,-1.192,0.0,-1.1681,-1.1637,-1.1637,-1.1622,-1.1336,-1.096,-1.0631,-1.0302,-0.9972,-0.965,-0.9621,-0.9614,-0.9614,-0.9336,-0.9239,-0.9239,-0.8364,-0.7817,-0.7633,0.0,0.0,0.0,0.0,0.0,0.0,0.0,0.0,0.0,0.0,0.0,0.0,0.0,0.0,0.0,0.0,0.0,0.0,0.0,0.0,0.0,0.0,-1.0546,-1.0151,-1.1019,-1.17,-1.175,-1.2736,-1.3369,-1.3222,-1.3848,-1.4162,-1.381,-1.4133,-1.426,-1.4271,-1.3923,-1.4114,-1.4874,-1.4896,-1.5072,-1.5423,-1.5431,-1.5431,-1.5431,-1.5431,-1.5431,-1.5431,-1.5431,-1.5431,-1.5482,-1.6404,-1.6806,-1.6769,-1.6499,-1.5948,-1.5431,-1.5431,-1.5431,-1.5431,-1.5431,-1.5431,-1.5431,-1.5431,-1.5431,-1.5357,-1.4948,-1.4809,-1.4765,-1.4538,-1.4472,-1.4472,-1.4472,-1.4472,-1.4472,-1.4472,-1.4406,-1.4333,-1.4333,-1.4084,-1.3992,-1.4564,-1.4436,-1.433,-1.433,-1.4103,-1.362,-1.2844,-1.2542,-1.2422,-1.2335,-1.232,0.0,-1.1948,-1.1904,-1.1816,-1.1645,-1.1542,-1.1358,-1.0967,-1.0638,-1.0316,-0.9987,-0.9746,-0.9614,-0.9614,-0.9541,-0.9548,-0.9614,-0.9071,-0.8601,0.0,0.0,0.0,0.0,0.0,0.0,0.0,0.0,0.0,0.0,0.0,0.0,0.0,0.0,0.0,0.0,0.0,0.0,0.0,0.0,0.0,0.0,-1.1452,-1.2406,-1.2134,-1.2503,-1.2833,-1.2893,-1.3757,-1.4324,-1.4313,-1.4683,-1.485,-1.4812,-1.4396,-1.4539,-1.5389,-1.5048,-1.5035,-1.5409,-1.5431,-1.5431,-1.5431,-1.5957,-1.6228,-1.6228,-1.6228,-1.6228,-1.6228,-1.6228,-1.6228,-1.6265,-1.7004,-1.723,-1.7033,-1.6764,-1.6338,0.0,0.0,0.0,0.0,0.0,-1.5431,-1.5431,-1.5431,-1.5431,-1.5394,-1.5204,-1.5145,-1.5116,-1.4926,-1.4874,-1.4874,-1.4874,-1.518,-1.5405,-1.5405,-1.5614,-1.574,-1.574,-1.5242,-1.4835,-1.5273,-1.4856,-1.4329,-1.4329,-1.4214,0.0,-1.3314,-1.3053,-1.2884,-1.2745,-1.2723,-1.2606,-1.2284,-1.2123,-1.1963,-1.178,-1.1641,-1.149,-1.1106,-1.0902,0.0,0.0,0.0,-0.9814,-0.9584,-0.9576,0.0,0.0,0.0,0.0,0.0,0.0,0.0,0.0,-0.8725,-0.8448,0.0,0.0,0.0,0.0,0.0,0.0,0.0,0.0,0.0,0.0,0.0,0.0,0.0,0.0,0.0,0.0,-1.3239,-1.4382,-1.4317,-1.3999,-1.393,-1.4214,-1.4544,-1.4873,-1.5173,-1.4988,-1.4973,-1.5249,-1.4479,-1.4888,-1.6814,0.0,0.0,0.0,0.0,-1.5643,-1.5643,-1.6762,-1.7326,-1.7326,-1.7326,-1.7326,-1.7326,-1.7326,-1.7326,-1.7326,-1.7326,-1.7113,-1.6762,-1.6762,-1.6645,-1.6484,-1.64,-1.5995,-1.5533,-1.5511,-1.5511,-1.5533,-1.5511,0.0,0.0,-1.5521,-1.559,-1.559,-1.5673,-1.5665,-1.5665,-1.5665,-1.6221,-1.6862,-1.6862,-1.7103,-1.7414,-1.7414,-1.6505,-1.5628,-1.5705,-1.4919,-1.417,-1.4133,-1.3889,-1.3609,-1.3499,-1.3492,-1.3397,-1.3104,-1.3067,-1.2943,-1.2621,-1.2321,-1.2131,-1.2029,0.0,0.0,-1.1209,-1.1114,-1.0828,-1.0243,-1.0357,-1.0188,-0.9803,-0.978,-0.9822,-0.9972,-1.0277,-1.0635,-1.1058,-1.1344,-1.1511,-1.1511,-0.9727,-0.9391,0.0,0.0,0.0,0.0,0.0,0.0,0.0,0.0,0.0,0.0,0.0,0.0,0.0,0.0,0.0,-1.5274,-1.534,-1.5202,-1.5375,-1.5344,-1.5177,-1.4942,-1.5483,-1.5874,-1.5771,-1.6077,-1.6322,-1.6369,-1.6755,-1.7361,-1.8375,-1.7523,-1.6949,-1.6945,-1.696,-1.696,-1.696,-1.7208,-1.7326,-1.7326,0.0,0.0,-1.7326,-1.7326,-1.7326,-1.7326,-1.7326,-1.7282,-1.7201,-1.7201,-1.7179,-1.7099,-1.6608,-1.6323,-1.6162,-1.5994,-1.6038,-1.6162,-1.5987,-1.5877,-1.586,-1.6314,-1.646,-1.6542,-1.7269,-1.7521,0.0,-1.7521,-1.7594,-1.7755,-1.7755,-1.7293,-1.6839,-1.6839,-1.594,-1.523,-1.585,-1.5654,-1.5179,-1.4973,-1.4864,-1.4518,-1.3682,-1.3492,-1.3477,-1.3411,-1.3404,-1.3287,-1.2958,-1.2855,-1.2716,-1.2453,-1.2138,-1.1919,-1.1853,-1.1377,-1.1078,-1.1063,-1.099,-1.089,-1.0823,-1.0918,-1.0973,-1.1028,-1.1202,-1.132,-1.1392,-1.1455,-1.1638,-1.19,-1.1217,-1.1036,0.0,0.0,0.0,0.0,0.0,0.0,0.0,0.0,0.0,0.0,0.0,-1.3122,-1.4038,0.0,-1.5165,-1.6993,-1.6998,-1.6581,-1.6052,-1.6317,-1.6395,-1.5709,-1.5945,-1.619,-1.6283,-1.6759,-1.7088,-1.7088,-1.7842,-1.8454,-1.8812,-1.8214,-1.8009,-1.8064,-1.78,-1.78,-1.8079,-1.7512,-1.7326,-1.7326,-1.7326,-1.7326,-1.7326,-1.78,-1.78,-1.7333,-1.7512,-1.7426,-1.7326,-1.7326,-1.7326,-1.7296,-1.6974,-1.6755,-1.6579,-1.6309,-1.6279,-1.6352,-1.6243,-1.6518,-1.6875,-1.7194,-1.7215,-1.7267,-1.759,-1.7383,-1.6945,-1.6762,-1.7033,-1.735,-1.735,-1.735,-1.7432,-1.7917,-1.7218,-1.6694,-1.7485,-1.7111,-1.6475,-1.6294,-1.6188,-1.5799,-1.5089,-1.496,-1.4613,-1.3659,-1.384,-1.3852,-1.3344,-1.3111,-1.295,-1.2782,-1.2475,-1.2211,-1.218,-1.1628,-1.1435,-1.1546,-1.1341,-1.1213,-1.1326,-1.1382,-1.1382,-1.1382,-1.1605,-1.1757,-1.1757,-1.2115,-1.2385,-1.2552,-1.2544,-1.2448,0.0,0.0,0.0,0.0,0.0,0.0,0.0,0.0,-1.3303,-1.4614,-1.5064,-1.5733,-1.7246,-1.7113,-1.7056,-1.7974,-1.8094,-1.7716,-1.6722,-1.7,-1.7079,-1.6389,-1.6309,-1.642,-1.6706,-1.7083,-1.7477,-1.7572,-1.8351,-1.8827,-1.8827,-1.8827,-1.8827,-1.8827,-1.8458,-1.8458,-1.8827,-1.7986,-1.7606,-1.7606,-1.7606,-1.7606,-1.7606,-1.8357,-1.8265,-1.752,-1.78,-1.7707,-1.7512,-1.7699,-1.7699,-1.7792,-1.7963,-1.7888,-1.7621,-1.6825,-1.6557,-1.6632,-1.6743,-1.7236,-1.7906,-1.8016,-1.8078,-1.8013,-1.7665,-1.7069,-1.6345,-1.6005,-1.655,-1.7188,-1.7188,-1.7755,-1.8407,-1.9134,-1.8647,-1.8158,-1.8895,-1.832,-1.7596,-1.7519,-1.7261,-1.7,-1.6555,-1.6581,-1.5973,-1.4183,-1.433,-1.4466,-1.3985,-1.3543,-1.3371,-1.3575,-1.3141,-1.2751,-1.2495,-1.2103,-1.1865,-1.1986,-1.1725,-1.1587,-1.1702,-1.1702,-1.1702,-1.1702,-1.2043,-1.2226,-1.2226,-1.2869,-1.3187,-1.3195,-1.3529,-1.3505,-1.1269,-1.1612,0.0,-1.2958,-1.3196,-1.3738,0.0,0.0,-1.6301,-1.7647,-1.7936,-1.8297,-1.9303,-1.8913,-1.8708,-1.9502,-1.847,-1.7657,-1.7806,-1.7228,-1.6756,-1.6675,-1.6675,-1.669,-1.673,-1.7083,-1.7612,-1.8017,-1.8533,-1.8827,-1.8827,-1.8827,-1.8827,-1.8827,-1.8735,-1.8735,-1.8827,-1.8735,-1.8643,-1.8643,-1.8643,-1.8643,-1.8643,-1.845,-1.8265,-1.8172,-1.8079,-1.8087,-1.8079,-1.8896,-1.9255,-1.9347,-2.0133,-2.0459,-2.0146,-1.8041,-1.7223,-1.7272,-1.7869,-1.8119,-1.833,-1.879,-1.8939,-1.8871,-1.8506,-1.8321,-1.8162,-1.7784,-1.8327,-1.8975,-1.8975,-1.9054,-1.9143,-1.9301,-1.8647,-1.7997,-1.8158,-1.8043,-1.7834,-1.757,-1.7476,-1.7321,-1.7009,-1.7204,-1.6911,-1.5664,-1.4966,-1.4816,-1.5392,-1.4854,-1.4751,-1.5598,-1.4783,-1.3902,-1.3117,-1.2806,-1.2646,-1.271,-1.2507,-1.244,-1.2501,-1.2501,-1.2501,-1.2501,-1.279,-1.2973,-1.2973,-1.3346,-1.3529,-1.3537,-1.3886,-1.3862,-1.3424,0.0,0.0,0.0,-1.5421,-1.626,-1.7162,-1.7709,-1.8185,-1.9013,-1.9385,-1.9768,-2.0431,-2.0329,-2.0012,0.0,-1.9793,-1.9385,-1.7504,-1.7764,-1.7912,-1.715,-1.6839,-1.673,-1.673,-1.7278,-1.7707,-1.7898,-1.8486,-1.8827,-1.8827,-1.8827,-1.8827,-1.8827,-1.8827,-1.8827,-1.8827,-1.8827,-1.8827,-1.8827,-1.8827,-1.8827,-1.8827,-1.8643,-1.8819,-1.9171,-1.845,-1.8711,-1.9695,-1.9521,-1.9795,-2.0314,-2.0755,-2.0935,-2.0755,-1.9761,-1.9405,-1.9472,-1.9676,-2.0171,-2.0678,-2.0965,-2.0998,-2.0925,-2.061,-2.0059,-1.951,-1.8815,-1.8813,-1.9012,-1.862,-1.8567,-1.8647,-1.9143,-1.9054,-1.8895,-1.9362,-1.952,-1.9464,-1.9297,-1.926,-1.913,-1.8797,-1.8816,-1.8644,-1.7931,-1.6732,-1.5948,-1.5869,-1.5587,-1.5587,-1.6088,-1.5265,-1.4517,-1.4174,-1.3643,-1.3239,-1.3239,-1.3235,-1.3155,-1.3155,-1.3155,-1.3155,-1.3155,-1.3306,-1.3378,-1.3378,-1.3719,-1.3894,-1.3902,-1.4252,-1.4339,-1.4821,0.0,0.0,-1.6136,-1.7284,-1.8288,-1.8288,-1.8889,-1.9572,-2.0038,-2.0286,-2.0565,-2.1031,-2.1114,0.0,-1.9908,-2.0634,-2.0429,-1.8095,-1.8486,-1.8647,-1.7629,-1.7202,-1.6968,-1.673,-1.7278,-1.7676,-1.7763,-1.8343,-1.8724,-1.8827,-1.8827,-1.8827,-1.8827,-1.9096,-1.9096,-1.8827,-1.9363,-1.9371,-1.8827,-1.9096,-1.918,-1.918,-1.9455,-1.9903,-2.0348,-1.9438,-1.9877,-2.1123,-2.0692,-2.0863,-2.156,-2.1826,-2.1924,-2.1924,-2.1924,-2.1471,-2.0935,-2.1203,-2.1756,-2.2394,-2.2394,-2.2394,-2.2318,-2.172,-2.1062,-2.0312,-1.9468,-1.9368,-1.9308,-1.8869,-1.8798,-1.9045,-1.9687,-1.9854,-2.001,-2.0644,-2.0809,-2.0809,-2.0809,-2.0809,-2.0623,-2.0308,-2.0151,-1.9974,-1.9669,-1.8524,-1.7507,-1.6888,-1.6769,-1.6775,-1.6724,-1.592,-1.5352,-1.5145,-1.4266,-1.3727,-1.3727,-1.3632,-1.3584,-1.3584,-1.3584,-1.3584,-1.3584,-1.368,-1.3727,-1.3727,-1.4085,-1.426,-1.4268,-1.4522,-1.4697,0.0,0.0,-1.7028,-1.7492,-1.8692,-1.9765,-1.9765,-2.0058,-2.0514,-2.0979,-2.0731,-2.0565,-2.1031,-2.1114,-2.1124,-2.105,-2.0371,-1.9956,-2.0362,-1.9291,-1.8408,-1.8023,-1.7989,-1.7602,0.0,-1.7072,-1.7429,-1.7747,-1.8112,-1.847,-1.8812,-1.8827,-1.8827,-1.8827,-1.972,-1.9812,-1.8827,-2.0709,-2.0709,-1.8827,-1.9812,-2.0249,-2.0257,-2.1239,-2.1606,-2.1606,-2.1606,-2.1606,-2.1784,-2.2658,-2.3008,-2.3096,-2.4003,-2.4358,-2.4358,-2.4358,-2.2921,-2.1025,-2.2031,-2.2394,-2.2394,-2.2394,-2.2394,-2.2133,-2.092,-2.0542,-2.0452,-2.0041,-2.0246,-2.0529,-2.051,-2.079,-2.1128,-2.1128,-2.1128,-2.1128,-2.1205,-2.1205,-2.1205,-2.1205,-2.1205,-2.1205,-2.1185,-2.0843,-2.0551,-2.0541,-2.0119,-1.9574,-1.8863,-1.8733,-1.8462,-1.7706,-1.7207,-1.6576,-1.5816,-1.471,-1.4093,-1.4093,-1.3775,-1.3584,-1.3584,-1.3584,-1.3584,-1.3584,-1.3918,-1.4093,-1.4101,-1.445,-1.4553,-1.4625,-1.4561,-1.4832,0.0,0.0,-1.8112,-1.8889,-1.9872,-2.0659,-2.0659,-2.0772,-2.0928,-2.1083,-2.0514,-2.0038,-2.0182,-2.0213,-2.0165,-1.9872,-2.0586,-2.0781,-1.9835,-2.0348,-2.0179,-1.8608,-1.8949,0.0,0.0,0.0,0.0,-1.7747,-1.8097,-1.8454,-1.8812,-1.9455,-1.9812,-1.9812,-2.0709,-2.0799,-1.9803,-2.043,-2.043,-1.9803,-2.0799,-2.1248,-2.1248,-2.1606,-2.205,-2.257,-2.1961,-2.2403,-2.356,-2.3193,-2.3464,-2.409,-2.4368,-2.454,-2.454,-2.454,-2.4003,-2.3367,-2.3647,-2.382,-2.382,-2.382,-2.382,-2.3704,-2.3285,-2.315,-2.3061,-2.2457,-2.2409,-2.2337,-2.1679,-2.16,-2.1577,-2.1275,-2.1205,-2.1205,-2.1205,-2.1205,-2.1205,-2.1205,-2.1205,-2.1205,-2.1205,-2.1084,-2.0959,-2.0731,-2.0124,-1.9585,-1.9363,-1.9151,-1.8865,-1.8664,-1.8037,-1.7345,-1.6594,-1.5713,-1.5014,-1.4466,-1.4347,-1.4283,-1.4283,-1.4283,-1.4283,-1.4283,-1.4403,-1.4466,-1.4466,-1.4514,-1.4569,-1.4649,-1.4887,-1.507,0.0,-1.8185,-1.9096,-2.0017,-2.0814,-2.1321,-2.1155,-2.1114,-2.1021,-2.07,-1.9903,-1.9328,-1.9328,-1.9003,-1.8818,-1.8958,-1.9821,-2.042,-1.9995,-2.0933,-2.1113,-1.9925,-2.0273,-2.0214,0.0,0.0,0.0,-1.8275,-1.8627,-1.8987,-1.9347,-2.0257,-2.0791,-2.0791,-2.1686,-2.1774,-2.0799,-2.1507,-2.1587,-2.132,-2.1952,-2.2217,-2.2217,-2.258,-2.3028,-2.3551,-2.2931,-2.3387,-2.4454,-2.382,-2.3993,-2.454,-2.454,-2.454,-2.454,-2.454,-2.454,-2.454,-2.454,-2.454,-2.454,-2.454,-2.454,-2.454,-2.454,-2.454,-2.4392,-2.4019,-2.3729,-2.3483,-2.2829,-2.2351,-2.2036,-2.1741,-2.1547,-2.1436,-2.1436,-2.1436,-2.1436,-2.1436,-2.1436,-2.1436,-2.1436,-2.1436,-2.1334,-2.1189,-2.0513,-1.999,-1.9671,-1.9431,-1.9318,-1.9085,-1.8452,-1.7823,-1.7345,-1.6385,-1.5551,-1.5062,-1.4776,-1.4569,-1.4569,-1.4569,-1.4569,-1.4569,-1.4569,-1.4569,-1.4569,-1.4768,-1.4832,-1.4847,-1.5197,-1.5427,-1.8206,-1.9127,-2.0048,-2.0928,-2.1455,-2.1652,-2.1217,-2.1041,-2.0731,-1.9872,-1.892,-1.8237,0.0,0.0,-1.7307,-1.834,-1.8508,-1.9127,-2.0985,-2.1183,-2.139,0.0,0.0,0.0,0.0,0.0,0.0,-1.9179,0.0,-1.9864,-2.0322,-2.1248,-2.1784,-2.1784,-2.2658,-2.2746,-2.1784,-2.356,-2.4003,-2.3096,-2.3183,-2.3183,-2.3183,-2.409,-2.454,-2.454,-2.454,-2.454,-2.454,-2.454,-2.454,-2.454,-2.454,-2.454,-2.454,-2.454,-2.454,-2.454,-2.454,-2.454,-2.454,-2.454,-2.454,-2.454,-2.454,-2.454,-2.454,-2.454,-2.424,-2.3908,-2.3888,-2.3225,-2.2563,-2.2542,-2.218,-2.1849,-2.1849,-2.1828,-2.1807,-2.1807,-2.1807,-2.1807,-2.1807,-2.1807,-2.1807,-2.1807,-2.1424,-2.0834,-1.9944,-1.9858,-1.9661,-1.9147,-1.8462,-1.8037,-1.7969,-1.6655,-1.5833,-1.5833,-1.5062,-1.4569,-1.4569,-1.4569,-1.4569,-1.4569,-1.4585,-1.4593,-1.4593,-1.5038,-1.5213,-1.5213,-1.5554,-1.5888,-1.9158,-2.0079,-2.0907,-2.1487,-2.1455,-2.1259,-2.1145,-2.0058,-1.9013,-1.8775,-1.7471,-1.6374,-1.6374,0.0,0.0,-1.8277,-1.9838,0.0,-2.2094,-2.2978,0.0,0.0,0.0,-2.2532,-2.0343,-2.0409,0.0,0.0,-2.0,-1.9864,-2.0322,-2.1854,-2.2746,-2.2746,-2.3637,-2.3724,-2.2746,-2.3193,-2.3367,-2.3096,-2.382,-2.4176,-2.4176,-2.4358,-2.454,-2.454,-2.454,-2.454,-2.454,-2.454,-2.454,-2.454,-2.454,-2.454,-2.454,-2.454,-2.454,-2.454,-2.454,-2.454,-2.454,-2.454,-2.454,-2.454,-2.454,-2.454,-2.454,-2.454,-2.4457,-2.4291,-2.396,-2.3701,-2.3432,-2.3091,-2.2656,-2.2325,-2.2325,-2.2056,-2.1807,-2.1807,-2.1807,-2.1807,-2.1807,-2.1807,-2.1807,-2.1807,-2.1704,-2.1424,-2.0845,-2.0182,-1.9785,-1.9592,-1.9137,-1.8586,-1.8037,-1.7139,-1.6385,-1.5833,-1.5062,-1.4569,-1.4569,-1.4569,-1.4569,-1.4569,-1.4911,-1.5046,-1.5046,-1.5388,-1.5554,-1.5562,-1.5912,-1.6118,-2.01,-2.0876,-2.1476,-2.1745,-2.1455,-2.0959,-2.0358,-1.9261,-1.8102,-1.7098,-1.6084,0.0,0.0,0.0,0.0,0.0,0.0,0.0,-2.1756,-2.2897,-2.3418,0.0,-2.375,0.0,-2.1807,-2.1815,-2.1783,0.0,-2.0828,-2.0829,-2.148,-2.2921,-2.3724,-2.3724,-2.4272,-2.4272,-2.3724,-2.3724,-2.3724,-2.3724,-2.4272,-2.454,-2.454,-2.454,-2.454,-2.454,0.0,-2.454,-2.454,-2.454,-2.454,-2.454,-2.454,-2.454,-2.454,-2.454,-2.454,-2.454,-2.454,-2.454,-2.454,-2.454,-2.454,-2.454,-2.454,-2.454,-2.454,-2.454,-2.454,-2.4478,-2.4229,-2.4022,-2.3815,-2.3557,-2.3143,-2.2739,-2.2542,-2.2294,-2.2056,-2.1849,-2.1807,-2.1807,-2.1807,-2.1807,-2.1807,-2.1807,-2.1807,-2.1714,-2.1455,-2.0793,-2.0276,-2.0079,-1.982,-1.9517,-1.9093,-1.8033,-1.7179,-1.6572,-1.5516,-1.4879,-1.4879,-1.4879,-1.4951,-1.5094,-1.5292,-1.5404,-1.5404,-1.5745,-1.5912,-1.592,-1.6269,-1.6436,-2.0959,-2.1497,-2.1797,-2.1725,-2.1321,-2.0586,-1.9282,-1.8433,-1.7357,-1.5328,0.0,0.0,-1.3662,0.0,-1.4685,-1.5762,0.0,-1.873,-2.1046,-2.204,-2.2983,-2.4307,-2.454,-2.409,-2.3183,-2.3096,-2.2746,-2.1961,-2.1872,-2.2217,-2.3096,-2.3993,-2.454,-2.454,-2.454,-2.454,-2.454,-2.454,-2.454,-2.454,-2.454,-2.454,-2.454,-2.454,-2.454,-2.454,-2.454,-2.454,-2.454,-2.454,-2.454,-2.454,-2.454,-2.454,-2.454,-2.454,-2.454,-2.454,-2.454,-2.454,-2.454,-2.454,-2.454,-2.454,-2.454,-2.454,-2.454,-2.454,-2.454,-2.454,-2.454,-2.426,-2.3971,-2.3971,-2.3619,-2.3163,-2.277,-2.2584,-2.2356,-2.189,-2.1807,-2.1807,-2.1807,-2.1807,-2.1807,-2.1807,-2.1807,-2.1807,-2.1807,-2.1404,-2.0959,-2.0555,-2.0462,-2.042,-2.042,-1.8966,-1.7926,-1.7631,-1.611,-1.5253,-1.5253,-1.5253,-1.5388,-1.5674,-1.5721,-1.5745,-1.5745,-1.6103,-1.6277,-1.6285,-1.6587,-1.673,-2.1435,-2.1745,-2.1714,-2.1331,-2.0607,-1.9727,-1.8733,-1.6984,0.0,0.0,0.0,-1.2803,-1.301,-1.3734,0.0,-1.6502,0.0,0.0,0.0,0.0,-2.3433,0.0,0.0,0.0,0.0,0.0,0.0,0.0,0.0,-2.2921,-2.3096,-2.3993,-2.454,-2.454,-2.454,-2.454,-2.454,-2.454,-2.454,-2.454,-2.454,-2.454,-2.454,-2.454,-2.454,-2.454,-2.454,0.0,-2.454,-2.454,-2.454,-2.454,-2.454,-2.454,-2.454,-2.454,-2.454,-2.454,-2.454,-2.454,-2.454,-2.454,-2.454,-2.454,-2.454,-2.454,-2.454,-2.454,-2.454,-2.454,-2.454,-2.4488,-2.4426,-2.4426,-2.4084,-2.3732,-2.366,-2.3039,-2.2356,-2.189,-2.1807,-2.1807,-2.1807,-2.1807,-2.1807,-2.1807,-2.1807,-2.1807,-2.1807,-2.1404,-2.1083,-2.1,-2.0648,-2.042,-2.042,-1.8966,-1.8054,-1.7981,-1.6489,-1.5594,-1.5594,-1.5594,-1.5618,-1.5674,-1.596,-1.6111,-1.6111,-1.6468,-1.6643,-1.6643,-1.6706,-1.673,-2.1197,-2.1621,-2.1694,-2.1228,-2.0431,-1.9396,-1.7999,0.0,0.0,0.0,0.0,-1.2224,-1.1923,0.0,0.0,0.0,0.0,0.0,0.0,0.0,0.0,0.0,0.0,0.0,0.0,0.0,0.0,0.0,0.0,-2.382,-2.382,-2.4272,-2.454,-2.454,-2.454,-2.454,-2.454,-2.454,-2.454,-2.454,-2.454,-2.454,-2.454,-2.454,-2.454,-2.454,-2.454,0.0,-2.454,-2.454,-2.454,-2.454,-2.454,-2.454,-2.454,-2.454,-2.454,-2.454,-2.454,-2.454,-2.454,-2.454,-2.454,-2.454,-2.454,-2.454,-2.454,-2.454,-2.454,-2.454,-2.454,-2.454,-2.454,-2.454,-2.4198,-2.3877,-2.3877,-2.3153,-2.2428,-2.2211,-2.1973,-2.1807,-2.1807,-2.1807,-2.1807,-2.1807,-2.1807,-2.1807,-2.1807,-2.1611,-2.1476,-2.1476,-2.128,-2.1145,-2.1145,-1.9997,-1.908,-1.8488,-1.732,-1.6403,-1.5952,-1.5952,-1.6039,-1.6222,-1.6397,-1.6476,-1.6484,-1.6651,-1.673,-1.673,-1.673,-1.673,-2.0845,-2.1383,-2.1549,-2.1083,-2.0213,-1.8982,-1.7171,-1.5608,0.0,0.0,0.0,-1.1789,-1.1178,0.0,0.0,0.0,0.0,0.0,0.0,0.0,0.0,0.0,0.0,0.0,0.0,0.0,0.0,0.0,0.0,0.0,-2.454,-2.454,-2.454,-2.454,-2.454,-2.454,-2.454,-2.454,-2.454,-2.454,-2.454,-2.454,-2.454,-2.454,-2.454,-2.454,-2.454,0.0,0.0,-2.454,-2.454,-2.454,-2.454,-2.454,-2.454,-2.454,-2.454,-2.454,-2.454,-2.454,-2.454,-2.454,-2.454,-2.454,-2.454,-2.454,-2.454,-2.454,-2.454,-2.454,-2.454,-2.454,-2.454,-2.454,-2.4281,-2.3991,-2.3898,-2.3308,-2.2739,-2.2532,-2.2201,-2.1921,-2.1828,-2.1807,-2.1807,-2.1807,-2.1807,-2.1807,-2.1807,-2.1807,-2.1807,-2.1807,-2.1807,-2.1807,-2.1807,-2.1011,-2.0091,-1.9219,-1.8177,-1.7324,-1.6628,-1.6397,-1.6444,-1.673,-1.673,-1.673,-1.673,-1.673,-1.673,-1.673,-1.673,-1.673,-2.0752,-2.1145,-2.1062,-2.0607,-1.9489,-1.803,-1.6229,0.0,0.0,0.0,-1.1323,-1.1147,-1.1457,0.0,0.0,0.0,0.0,0.0,0.0,0.0,0.0,0.0,0.0,0.0,0.0,0.0,0.0,0.0,0.0,0.0,-2.454,-2.454,-2.454,-2.454,-2.454,-2.454,-2.454,-2.454,-2.454,-2.454,-2.454,-2.454,-2.454,-2.454,-2.454,-2.454,-2.454,0.0,0.0,-2.454,-2.454,-2.454,-2.454,-2.454,-2.454,-2.454,-2.454,-2.454,-2.454,-2.454,-2.454,-2.454,-2.454,-2.454,-2.454,-2.454,-2.454,-2.454,-2.454,-2.454,-2.454,-2.454,-2.454,-2.454,-2.4509,-2.4374,-2.396,-2.3805,-2.3505,-2.2656,-2.247,-2.2304,-2.188,-2.1807,-2.1807,-2.1807,-2.1807,-2.1807,-2.1807,-2.1807,-2.1807,-2.1807,-2.1807,-2.1807,-2.1807,-2.1011,-2.045,-2.0333,-1.8815,-1.7946,-1.7865,-1.7074,-1.6698,-1.673,-1.673,-1.673,-1.673,-1.673,-1.673,-1.673,-1.673,-1.673,-1.9592,-2.0286,-2.0586,-2.0141,-1.8992,-1.7585,-1.6042,0.0,0.0,-1.1799,-1.123,-1.0981,-1.1147,-1.1395,-1.1944,0.0,-1.3455,0.0,0.0,0.0,0.0,0.0,0.0,0.0,0.0,0.0,0.0,0.0,0.0,0.0,-2.454,-2.454,-2.454,-2.454,-2.454,-2.454,-2.454,-2.454,-2.454,-2.454,-2.454,-2.454,-2.454,-2.454,-2.454,-2.454,-2.454,0.0,0.0,-2.454,-2.454,-2.454,-2.454,-2.454,-2.454,-2.454,-2.454,-2.454,-2.454,-2.454,-2.454,-2.454,-2.454,-2.454,-2.454,-2.454,-2.454,-2.454,-2.454,-2.454,-2.454,-2.454,-2.454,-2.454,-2.454,-2.4498,-2.4322,-2.3846,-2.335,-2.2987,-2.247,-2.2025,-2.1838,-2.1807,-2.1807,-2.1807,-2.1807,-2.1807,-2.1807,-2.1807,-2.1807,-2.1807,-2.1807,-2.1807,-2.1807,-2.1492,-2.0847,-1.9816,-1.9186,-1.831,-1.7286,-1.6894,-1.673,-1.673,-1.673,-1.673,-1.673,-1.673,-1.673,-1.673,-1.673,-1.673,-1.8392,-1.923,-1.9748,-1.9427,-1.834,-1.6974,0.0,0.0,-1.2472,-1.1561,-1.1137,-1.0891,-1.0891,-1.1178,-1.1571,0.0,-1.2637,-1.3621,-1.5608,0.0,0.0,0.0,0.0,0.0,0.0,0.0,0.0,0.0,0.0,0.0,-2.454,-2.454,-2.454,-2.454,-2.454,-2.454,-2.454,-2.454,-2.454,-2.454,-2.454,-2.454,-2.454,-2.454,-2.454,-2.454,-2.454,0.0,0.0,-2.454,-2.454,-2.454,-2.454,-2.454,-2.454,-2.454,-2.454,-2.454,-2.454,-2.454,-2.454,-2.454,-2.454,-2.454,-2.454,-2.454,-2.454,-2.454,-2.454,-2.454,-2.454,-2.454,-2.454,-2.454,-2.454,-2.454,-2.454,-2.3929,-2.335,-2.3215,-2.2553,-2.1963,-2.1828,-2.1807,-2.1807,-2.1807,-2.1807,-2.1807,-2.1807,-2.1807,-2.1807,-2.1807,-2.1807,-2.1807,-2.1807,-2.1807,-2.1165,-1.9737,-1.9413,-1.863,-1.7131,-1.6812,-1.673,-1.673,-1.673,-1.673,-1.673,-1.673,-1.673,-1.673,-1.673,-1.673,-1.7378,-1.8071,-1.8402,-1.8392,-1.7388,-1.6022,0.0,-1.3258,-1.2058,-1.1116,-1.0891,-1.0891,-1.0891,-1.0891,-1.1219,-1.2162,-1.2637,-1.3734,-1.6042,0.0,0.0,0.0,0.0,0.0,0.0,0.0,0.0,0.0,0.0,0.0,-2.454,-2.454,-2.454,-2.454,-2.454,-2.454,-2.454,-2.454,-2.454,-2.454,-2.454,-2.454,-2.454,-2.454,-2.454,-2.454,0.0,0.0,0.0,-2.454,-2.454,-2.454,-2.454,-2.454,-2.454,-2.454,-2.454,-2.454,-2.454,-2.454,-2.454,-2.454,-2.454,-2.454,-2.454,-2.454,-2.454,-2.454,-2.454,-2.454,-2.454,-2.454,-2.454,-2.454,-2.454,-2.454,-2.454,-2.4188,-2.3732,-2.3277,-2.2811,-2.2346,-2.189,-2.1807,-2.1807,-2.1807,-2.1807,-2.1807,-2.1807,-2.1807,-2.1807,-2.1807,-2.1807,-2.1807,-2.1807,-2.1807,-2.1405,-2.0537,-1.9737,-1.8948,-1.7997,-1.7123,-1.673,-1.673,-1.673,-1.673,-1.673,-1.673,-1.673,-1.673,-1.673,-1.673,-1.5183,-1.5949,-1.6467,-1.6146,-1.5515,-1.4687,-1.361,-1.2793,-1.2048,-1.1106,-1.0891,-1.0891,-1.0891,-1.0891,-1.1376,-1.2937,0.0,0.0,0.0,0.0,0.0,0.0,0.0,0.0,0.0,0.0,0.0,0.0,0.0,0.0,-2.454,-2.454,-2.454,-2.454,-2.454,-2.454,-2.454,-2.454,-2.454,-2.454,-2.454,-2.454,-2.454,-2.454,-2.454,0.0,0.0,0.0,0.0,-2.454,-2.454,-2.454,-2.454,-2.454,-2.454,-2.454,-2.454,-2.454,-2.454,-2.454,-2.454,-2.454,-2.454,-2.454,-2.454,-2.454,-2.454,-2.454,-2.454,-2.454,-2.454,-2.454,-2.454,-2.454,-2.454,-2.454,-2.454,-2.4188,-2.3743,-2.3277,-2.2811,-2.2356,-2.189,-2.1807,-2.1807,-2.1807,-2.1807,-2.1807,-2.1807,-2.1807,-2.1807,-2.1807,-2.1807,-2.1807,-2.1807,-2.1807,-2.1415,-2.0547,-1.9737,-1.8948,-1.8078,-1.7123,-1.673,-1.673,-1.673,-1.673,-1.673,-1.673,-1.673,-1.673,-1.673,-1.6865,0.0,-1.42,-1.4831,-1.4542,-1.4128,-1.3589,-1.2844,-1.2327,-1.184,-1.1074,-1.0891,-1.0891,-1.0891,-1.0891,-1.1366,-1.2865,0.0,0.0,0.0,0.0,0.0,0.0,0.0,0.0,0.0,0.0,0.0,0.0,0.0,0.0,-2.454,-2.454,-2.454,-2.454,-2.454,-2.454,-2.454,-2.454,-2.454,-2.454,-2.454,-2.454,-2.454,-2.454,-2.454,0.0,0.0,0.0,0.0,-2.454,-2.454,-2.454,-2.454,-2.454,-2.454,-2.454,-2.454,-2.454,-2.454,-2.454,-2.454,-2.454,-2.454,-2.454,-2.454,-2.454,-2.454,-2.454,-2.454,-2.454,-2.454,-2.454,-2.454,-2.454,-2.454,-2.454,-2.454,-2.4188,-2.3743,-2.3277,-2.2811,-2.2356,-2.189,-2.1807,-2.1807,-2.1807,-2.1807,-2.1807,-2.1807,-2.1807,-2.1807,-2.1807,-2.1807,-2.1807,-2.1807,-2.1807,-2.1415,-2.0547,-1.9737,-1.8948,-1.8078,-1.7123,-1.673,-1.673,-1.673,-1.673,-1.673,-1.673,-1.673,-1.673,-1.673,-1.6929,0.0,-1.2679,-1.3362,-1.3331,-1.3031,-1.2617,-1.2214,-1.183,0.0,-1.0971,-1.086,-1.0902,-1.1012,-1.0953,-1.1302,-1.2339,0.0,0.0,0.0,0.0,0.0,0.0,0.0,0.0,0.0,0.0,0.0,0.0,0.0,0.0,-2.454,-2.454,-2.454,-2.454,-2.454,-2.454,-2.454,-2.454,-2.454,-2.454,-2.454,-2.454,-2.454,-2.454,-2.454,0.0,0.0,0.0,0.0,-2.454,-2.454,-2.454,-2.454,-2.454,-2.454,-2.454,-2.454,-2.454,-2.454,-2.454,-2.454,-2.454,-2.454,-2.454,-2.454,-2.454,-2.454,-2.454,-2.454,-2.454,-2.454,-2.454,-2.454,-2.454,-2.454,-2.454,-2.454,-2.4219,-2.3795,-2.3329,-2.2863,-2.2397,-2.1932,-2.1828,-2.1807,-2.1807,-2.1807,-2.1807,-2.1807,-2.1807,-2.1807,-2.1807,-2.1807,-2.1807,-2.1807,-2.1807,-2.1415,-2.0615,-1.9816,-1.8948,-1.8158,-1.7204,-1.673,-1.673,-1.673,-1.673,-1.673,-1.673,-1.673,-1.673,-1.6762,-1.6969,-0.9597,0.0,-1.0902,-1.0551,-1.0644,-1.0716,0.0,-1.065,-1.095,0.0,0.0,0.0,0.0,0.0,0.0,0.0,0.0,0.0,0.0,0.0,0.0,0.0,0.0,0.0,0.0,0.0,0.0,0.0,0.0,-2.454,-2.454,-2.454,-2.454,-2.454,-2.454,-2.454,-2.454,-2.454,-2.454,-2.454,-2.454,-2.454,-2.454,-2.454,-2.454,0.0,0.0,0.0,-2.454,-2.454,-2.454,-2.454,-2.454,-2.454,-2.454,-2.454,-2.454,-2.454,-2.454,-2.454,-2.454,-2.454,-2.454,-2.454,-2.454,-2.454,-2.454,-2.454,-2.454,-2.454,-2.454,-2.454,-2.454,-2.454,-2.454,-2.454,-2.454,-2.4457,-2.425,-2.3805,-2.335,-2.2884,-2.2418,-2.2035,-2.1807,-2.1807,-2.1807,-2.1807,-2.1807,-2.1807,-2.1807,-2.1807,-2.1807,-2.1807,-2.1807,-2.1807,-2.1731,-2.1492,-2.0129,-1.9186,-1.9018,-1.7521,-1.673,-1.673,-1.673,-1.673,-1.673,-1.673,-1.673,-1.6738,-1.7024,-1.7334,-0.8559,-0.9543,-1.0458,-1.0211,-1.0516,-1.0785,-1.0526,0.0,0.0,0.0,0.0,0.0,0.0,0.0,0.0,0.0,0.0,0.0,0.0,0.0,0.0,0.0,0.0,0.0,0.0,0.0,0.0,0.0,0.0,-2.454,-2.454,-2.454,-2.454,-2.454,-2.454,-2.454,-2.454,-2.454,-2.454,-2.454,-2.454,-2.454,-2.454,-2.454,-2.454,0.0,0.0,0.0,-2.454,-2.454,-2.454,-2.454,-2.454,-2.454,-2.454,-2.454,-2.454,-2.454,-2.454,-2.454,-2.454,-2.454,-2.454,-2.454,-2.454,-2.454,-2.454,-2.454,-2.454,-2.454,-2.454,-2.454,-2.454,-2.454,-2.454,-2.454,-2.454,-2.454,-2.4405,-2.396,-2.3681,-2.3287,-2.2615,-2.2294,-2.2056,-2.1838,-2.1807,-2.1807,-2.1807,-2.1807,-2.1807,-2.1807,-2.1807,-2.1807,-2.1807,-2.1807,-2.1807,-2.1807,-2.0527,-1.9659,-1.9335,-1.7997,-1.7131,-1.6738,-1.673,-1.673,-1.673,-1.673,-1.6818,-1.6984,-1.7191,-1.754,-0.8323,-0.9625,-1.0829,-1.0671,-1.1043,-1.1457,-1.1385,0.0,0.0,0.0,0.0,0.0,0.0,0.0,0.0,0.0,0.0,0.0,0.0,0.0,0.0,0.0,0.0,0.0,0.0,0.0,0.0,0.0,0.0,-2.454,-2.454,-2.454,-2.454,-2.454,-2.454,-2.454,-2.454,-2.454,-2.454,-2.454,-2.454,-2.454,-2.454,-2.454,-2.454,-2.454,0.0,0.0,-2.454,-2.454,-2.454,-2.454,-2.454,-2.454,-2.454,-2.454,-2.454,-2.454,-2.454,-2.454,-2.454,-2.454,-2.454,-2.454,-2.454,-2.454,-2.454,-2.454,-2.454,-2.454,-2.454,-2.454,-2.454,-2.454,-2.454,-2.454,-2.454,-2.454,-2.4436,-2.4053,-2.3929,-2.3629,-2.2842,-2.2594,-2.2366,-2.1973,-2.1849,-2.1807,-2.1807,-2.1807,-2.1807,-2.1807,-2.1807,-2.1807,-2.1807,-2.1807,-2.1807,-2.1807,-2.1011,-2.006,-1.9107,-1.839,-1.7602,-1.673,-1.673,-1.6762,-1.6818,-1.6818,-1.7,-1.7358,-1.7405,-1.7747,-0.9012,-1.0046,-1.0619,-0.9481,-1.0112,-1.0881,0.0,0.0,0.0,0.0,0.0,0.0,0.0,0.0,0.0,0.0,0.0,0.0,0.0,0.0,0.0,0.0,0.0,0.0,0.0,0.0,0.0,0.0,0.0,-2.454,-2.454,-2.454,-2.454,-2.454,-2.454,-2.454,-2.454,-2.454,-2.454,-2.454,-2.454,-2.454,-2.454,-2.454,-2.454,-2.454,0.0,-2.454,-2.454,-2.454,-2.454,-2.454,-2.454,-2.454,-2.454,-2.454,-2.454,-2.454,-2.454,-2.454,-2.454,-2.454,-2.454,-2.454,-2.454,-2.454,-2.454,-2.454,-2.454,-2.454,-2.454,-2.454,-2.454,-2.454,-2.454,-2.454,-2.454,-2.454,-2.4519,-2.4447,-2.4136,-2.3836,-2.3691,-2.3018,-2.247,-2.2397,-2.2056,-2.1807,-2.1807,-2.1807,-2.1807,-2.1807,-2.1807,-2.1807,-2.1807,-2.1807,-2.1807,-2.1807,-2.1011,-1.9825,-1.8238,-1.8078,-1.7602,-1.673,-1.673,-1.6889,-1.7199,-1.7199,-1.7366,-1.7699,-1.8001,-1.82,-0.8572,-0.9579,-1.0381,-0.977,-1.0816,-1.1974,0.0,0.0,0.0,0.0,0.0,0.0,0.0,0.0,0.0,0.0,0.0,0.0,0.0,0.0,0.0,0.0,0.0,0.0,0.0,0.0,0.0,0.0,0.0,0.0,-2.3805,-2.3805,-2.3919,-2.4178,-2.3939,-2.4043,-2.454,-2.4302,-2.4302,-2.454,-2.454,-2.454,-2.454,-2.454,-2.454,-2.454,0.0,-2.454,-2.454,-2.454,-2.454,-2.454,-2.454,-2.454,-2.454,-2.454,-2.454,-2.454,-2.454,-2.454,-2.454,-2.454,-2.454,-2.454,-2.454,-2.454,-2.454,-2.454,-2.454,-2.454,-2.454,-2.454,-2.454,-2.454,-2.454,-2.454,-2.454,-2.454,-2.454,-2.454,-2.4374,-2.4167,-2.3919,-2.3318,-2.278,-2.2532,-2.2097,-2.1807,-2.1807,-2.1807,-2.1807,-2.1807,-2.1807,-2.1807,-2.1807,-2.1807,-2.1807,-2.1807,-2.1011,-1.9982,-1.8789,-1.8238,-1.7602,-1.673,-1.6984,-1.7244,-1.7684,-1.7928,-1.8302,-1.885,-1.9024,-1.9206,-0.8298,-0.9258,-1.0242,-1.0458,0.0,0.0,0.0,0.0,0.0,0.0,0.0,0.0,0.0,0.0,0.0,0.0,0.0,0.0,0.0,0.0,0.0,0.0,0.0,0.0,0.0,0.0,0.0,0.0,0.0,0.0,-2.3184,-2.3184,-2.335,-2.3701,-2.337,-2.3515,-2.4219,-2.3888,-2.3939,-2.4385,-2.4385,-2.4333,-2.4219,-2.4219,-2.4281,-2.4385,-2.4385,-2.4447,-2.454,-2.454,-2.454,-2.454,-2.454,-2.454,-2.454,-2.454,-2.454,-2.454,-2.454,-2.454,-2.454,-2.454,-2.454,-2.454,-2.454,-2.454,-2.454,-2.454,-2.454,-2.454,-2.454,-2.454,-2.454,-2.454,-2.454,-2.454,-2.454,-2.454,-2.454,-2.454,-2.454,-2.4436,-2.4084,-2.3557,-2.307,-2.2708,-2.217,-2.1807,-2.1807,-2.1807,-2.1807,-2.1807,-2.1807,-2.1849,-2.1952,-2.1963,-2.2014,-2.2118,-2.1386,-2.0557,-1.958,-1.8958,-1.8215,-1.7335,-1.7507,-1.7904,-1.8431,-1.8769,-1.9196,-1.9944,-1.9944,-2.0009,-0.8975,-0.964,-1.0339,-1.1261,0.0,0.0,0.0,0.0,0.0,0.0,0.0,0.0,0.0,0.0,0.0,0.0,0.0,0.0,0.0,0.0,0.0,0.0,0.0,0.0,0.0,0.0,0.0,0.0,0.0,0.0,-2.3184,-2.3184,-2.3205,-2.3236,-2.3205,-2.3215,-2.3287,-2.3256,-2.3463,-2.3929,-2.3929,-2.3701,-2.3287,-2.3287,-2.3515,-2.3929,-2.3929,-2.4167,-2.454,-2.454,-2.454,-2.454,-2.454,-2.454,-2.454,-2.454,-2.454,-2.454,-2.454,-2.454,-2.454,-2.454,-2.454,-2.454,-2.454,-2.454,-2.454,-2.454,-2.454,-2.454,-2.454,-2.454,-2.454,-2.454,-2.454,-2.454,-2.454,-2.454,-2.454,-2.454,-2.454,-2.4529,-2.4498,-2.3764,-2.3174,-2.3143,-2.2377,-2.1807,-2.1807,-2.1807,-2.1807,-2.1807,-2.1807,-2.1983,-2.2408,-2.2449,-2.2635,-2.306,-2.2598,-2.1764,-2.0479,-2.0442,-1.9996,-1.9106,-1.8702,-1.8905,-1.9641,-1.9729,-1.9944,-2.0249,-2.0249,-2.0266,-0.8339,-0.9477,-1.0695,-1.1085,0.0,0.0,0.0,0.0,0.0,0.0,0.0,0.0,0.0,0.0,0.0,0.0,0.0,0.0,0.0,0.0,0.0,0.0,0.0,0.0,0.0,0.0,0.0,0.0,0.0,0.0,-2.2325,-2.2481,-2.2616,-2.2908,-2.2793,-2.2909,-2.3346,-2.3133,-2.3002,-2.3018,-2.3318,-2.336,-2.3184,-2.3184,-2.3287,-2.3453,-2.3453,-2.3546,-2.3701,-2.3701,-2.3701,-2.3732,-2.4022,-2.4302,-2.454,-2.454,-2.454,-2.454,-2.454,-2.454,-2.454,-2.454,-2.454,-2.454,-2.454,-2.454,-2.454,-2.454,-2.454,-2.454,-2.454,-2.454,-2.454,-2.454,-2.454,-2.454,-2.454,-2.454,-2.454,-2.454,-2.454,-2.454,-2.454,-2.3795,-2.3184,-2.3184,-2.2397,-2.1807,-2.1807,-2.1807,-2.1883,-2.1949,-2.2025,-2.2098,-2.2276,-2.2662,-2.3161,-2.3759,-2.3363,-2.2662,-2.1569,-2.1302,-2.0733,-1.9922,-1.9605,-1.9718,-2.0263,-2.0508,-2.0801,-2.1195,-2.1195,-2.1195,-0.8198,-0.9583,-1.1129,0.0,0.0,0.0,0.0,0.0,0.0,0.0,0.0,0.0,0.0,0.0,0.0,0.0,0.0,0.0,0.0,0.0,0.0,0.0,0.0,0.0,0.0,0.0,0.0,0.0,0.0,0.0,0.0,-2.2101,-2.2324,-2.265,-2.2497,-2.2645,-2.3134,-2.2819,-2.2583,-2.2428,-2.2752,-2.2908,-2.2749,-2.2749,-2.2832,-2.2967,-2.2967,-2.3049,-2.3184,-2.3184,-2.3184,-2.3215,-2.3536,-2.3939,-2.4333,-2.4333,-2.4416,-2.454,-2.454,-2.454,-2.454,-2.454,-2.454,-2.454,-2.454,-2.454,-2.4625,-2.454,-2.454,-2.4625,-2.4625,-2.454,-2.454,-2.454,-2.454,-2.454,-2.4625,-2.4625,-2.4615,-2.47,-2.47,-2.4659,-2.4523,-2.3856,-2.3374,-2.3228,-2.2537,-2.1949,-2.1949,-2.1949,-2.2035,-2.2101,-2.2252,-2.2357,-2.2653,-2.3119,-2.3706,-2.4375,-2.4206,-2.3617,-2.2707,-2.2429,-2.2002,-2.1417,-2.0856,-2.082,-2.124,-2.1231,-2.1456,-2.1741,-2.1741,-2.1741,-0.8827,-1.0067,0.0,0.0,0.0,0.0,0.0,0.0,0.0,0.0,0.0,0.0,0.0,0.0,0.0,0.0,0.0,0.0,0.0,0.0,0.0,0.0,0.0,0.0,0.0,0.0,0.0,0.0,0.0,0.0,0.0,-2.2402,-2.2402,-2.2402,-2.2402,-2.2402,-2.2402,-2.2402,-2.2402,-2.2402,-2.2402,-2.2176,-2.1807,-2.1807,-2.2056,-2.249,-2.249,-2.2749,-2.3174,-2.3174,-2.3174,-2.3184,-2.3184,-2.3463,-2.3877,-2.3867,-2.4146,-2.4529,-2.4529,-2.4529,-2.454,-2.454,-2.454,-2.454,-2.454,-2.47,-2.4861,-2.4625,-2.47,-2.4861,-2.4861,-2.47,-2.454,-2.454,-2.454,-2.4625,-2.4861,-2.4861,-2.4946,-2.52,-2.5189,-2.5051,-2.4604,-2.4136,-2.3658,-2.319,-2.2711,-2.2413,-2.2402,-2.2402,-2.2327,-2.2241,-2.2327,-2.2775,-2.369,-2.3785,-2.419,-2.5136,-2.52,-2.4775,-2.3828,-2.3845,-2.3909,-2.3815,-2.2725,-2.2447,-2.2803,-2.2087,-2.1741,-2.1741,-2.1741,-2.1741,-0.8736,0.0,0.0,0.0,0.0,0.0,0.0,0.0,0.0,0.0,0.0,0.0,0.0,0.0,0.0,0.0,0.0,0.0,0.0,0.0,0.0,0.0,0.0,0.0,0.0,0.0,0.0,0.0,0.0,0.0,0.0,-2.2553,-2.2628,-2.2628,-2.2777,-2.2777,-2.2628,-2.2628,-2.2553,-2.2402,-2.2402,-2.2327,-2.2252,-2.2252,-2.2336,-2.2463,-2.2463,-2.2548,-2.2674,-2.2674,-2.2709,-2.2935,-2.2935,-2.3228,-2.3635,-2.3473,-2.3637,-2.3998,-2.367,-2.3971,-2.4493,-2.4315,-2.4524,-2.4786,-2.4956,-2.4946,-2.4946,-2.4946,-2.5031,-2.5115,-2.5115,-2.5031,-2.4946,-2.4946,-2.4946,-2.5031,-2.5115,-2.5115,-2.502,-2.4796,-2.4732,-2.4583,-2.4115,-2.3913,-2.3621,-2.3171,-2.3012,-2.2847,-2.2466,-2.2402,-2.2402,-2.2327,-2.2628,-2.2961,-2.3243,-2.4512,-2.5413,-2.5706,-2.5728,-2.5419,-2.4785,-2.5091,-2.5344,-2.5249,-2.3951,-2.3162,-2.2803,-2.2627,-2.2176,-2.1741,-2.1741,-2.1741,-0.9463,0.0,0.0,0.0,0.0,0.0,0.0,0.0,0.0,0.0,0.0,0.0,0.0,0.0,0.0,0.0,0.0,0.0,0.0,0.0,0.0,0.0,0.0,0.0,0.0,0.0,0.0,0.0,0.0,0.0,0.0,-2.2777,-2.2852,-2.2852,-2.2927,-2.2927,-2.2852,-2.2852,-2.2777,-2.2628,-2.2628,-2.2628,-2.2628,-2.2478,-2.2402,-2.2402,-2.2402,-2.2402,-2.2402,-2.2402,-2.2497,-2.2674,-2.2674,-2.297,-2.3303,-2.3223,-2.3429,-2.3748,-2.3507,-2.3777,-2.4172,-2.409,-2.427,-2.4492,-2.4575,-2.4575,-2.4564,-2.4647,-2.4743,-2.4922,-2.4922,-2.5019,-2.52,-2.52,-2.52,-2.52,-2.5285,-2.5285,-2.521,-2.511,-2.4648,-2.4293,-2.425,-2.4035,-2.3842,-2.3709,-2.3377,-2.2992,-2.2671,-2.2628,-2.2628,-2.2628,-2.3536,-2.4148,-2.4148,-2.5229,-2.5895,-2.5895,-2.5895,-2.5812,-2.5464,-2.5728,-2.5895,-2.5895,-2.5115,-2.4423,-2.4003,-2.3232,-2.253,-2.2097,-2.183,-2.1741,0.0,0.0,0.0,0.0,0.0,0.0,0.0,0.0,0.0,0.0,0.0,0.0,0.0,0.0,0.0,0.0,0.0,0.0,0.0,0.0,0.0,0.0,0.0,0.0,0.0,0.0,0.0,0.0,0.0,0.0,0.0,-2.287,-2.287,-2.287,-2.287,-2.287,-2.287,-2.287,-2.287,-2.287,-2.2925,-2.2936,-2.2947,-2.2606,-2.2478,-2.2478,-2.2478,-2.2478,-2.2478,-2.2478,-2.2478,-2.2402,-2.2402,-2.2668,-2.3051,-2.3051,-2.3328,-2.369,-2.369,-2.3722,-2.3764,-2.3764,-2.3785,-2.3828,-2.3828,-2.3988,-2.4068,-2.394,-2.4234,-2.4562,-2.4616,-2.4962,-2.5285,-2.5285,-2.5285,-2.5285,-2.538,-2.5464,-2.5559,-2.5812,-2.4945,-2.4268,-2.4683,-2.4268,-2.405,-2.4541,-2.37,-2.3001,-2.3001,-2.3154,-2.3263,-2.3263,-2.4847,-2.5895,-2.5895,-2.5895,-2.5895,-2.5895,-2.5895,-2.5895,-2.5895,-2.5895,-2.5895,-2.5895,-2.5895,-2.5895,-2.5895,-2.3831,-2.2882,-2.2803,-2.1998,-2.1741,0.0,0.0,0.0,0.0,0.0,0.0,0.0,0.0,0.0,0.0,0.0,0.0,0.0,0.0,0.0,0.0,0.0,0.0,0.0,0.0,0.0,0.0,0.0,0.0,0.0,0.0,0.0,0.0,0.0,0.0,-2.1887,-2.1887,-2.1887,-2.1887,-2.1887,-2.1887,-2.1887,-2.1887,-2.1887,0.0,-2.228,-2.2466,-2.2477,-2.2763,-2.2852,-2.2852,-2.2852,-2.2852,-2.2852,-2.2852,-2.2777,-2.2628,-2.2628,-2.2692,-2.2778,-2.2638,-2.2843,-2.3167,-2.2787,-2.3176,-2.3731,-2.3498,-2.3756,-2.4057,-2.4317,-2.4238,-2.419,-2.4519,-2.4729,-2.4973,-2.5485,-2.5714,-2.5728,-2.5728,-2.5728,-2.5728,-2.5812,-2.5812,-2.5812,-2.5906,-2.5677,-2.5043,-2.3656,-2.3296,-2.3755,-2.536,-2.4115,-2.3001,-2.3001,-2.4334,-2.5284,-2.5284,-2.5655,-2.5895,-2.5895,-2.5895,-2.5895,-2.5895,-2.5895,-2.5895,-2.5895,-2.5895,-2.5895,-2.5895,-2.5895,-2.5895,-2.5895,-2.4327,-2.3299,-2.2803,-2.1998,-2.1741,0.0,0.0,0.0,0.0,0.0,0.0,0.0,0.0,0.0,0.0,0.0,0.0,0.0,0.0,0.0,0.0,0.0,0.0,0.0,0.0,0.0,0.0,0.0,0.0,0.0,0.0,0.0,0.0,0.0,-2.1592,-2.1592,-2.1592,-2.1592,-2.1592,-2.1592,-2.1592,-2.1592,-2.1592,-2.1592,-2.1592,-2.1843,-2.1964,-2.1996,-2.2684,-2.3001,-2.3001,-2.3001,-2.3001,-2.3001,-2.3001,-2.2927,-2.2852,-2.2852,-2.2852,-2.2852,-2.2703,-2.2852,-2.3001,-2.2777,-2.3015,-2.3383,-2.3221,-2.3395,-2.3612,-2.3777,-2.3689,-2.3644,-2.3885,-2.4006,-2.4082,-2.4421,-2.4508,-2.4508,-2.4508,-2.488,-2.5349,-2.5797,-2.5895,-2.5622,-2.4694,-2.4508,-2.4486,-2.4399,-2.3613,-2.334,-2.4366,-2.3646,-2.334,-2.4268,-2.5273,-2.5895,-2.5895,-2.5895,-2.5895,-2.5895,-2.5895,-2.5895,-2.5895,-2.5895,-2.5895,-2.5895,-2.5895,-2.5895,-2.5895,-2.5895,-2.5895,-2.5895,-2.52,-2.4155,-2.295,-2.2441,-2.2008,0.0,0.0,0.0,0.0,0.0,0.0,0.0,0.0,0.0,0.0,0.0,0.0,0.0,0.0,0.0,0.0,0.0,0.0,0.0,0.0,0.0,0.0,0.0,0.0,0.0,0.0,0.0,0.0,0.0,-2.1341,-2.1341,-2.1341,-2.1341,-2.1341,-2.1341,-2.1341,-2.1341,-2.1341,-2.1341,-2.1341,-2.1417,-2.1505,-2.1614,-2.24,-2.2805,-2.2881,-2.2968,-2.3001,-2.3001,-2.3001,-2.3001,-2.3001,-2.3001,-2.3001,-2.3001,-2.3001,-2.3001,-2.3001,-2.3001,-2.3001,-2.3001,-2.3001,-2.3001,-2.3001,-2.3001,-2.3001,-2.3001,-2.3001,-2.3001,-2.3001,-2.3001,-2.3001,-2.3001,-2.3001,-2.3635,-2.4443,-2.5229,-2.5404,-2.4923,-2.3307,-2.3001,-2.3514,-2.512,-2.4071,-2.3001,-2.3001,-2.3001,-2.37,-2.5655,-2.5895,-2.5895,-2.5895,-2.5895,-2.5895,-2.5895,-2.5895,-2.5895,-2.5895,-2.5895,-2.5895,-2.5895,-2.5895,-2.5895,-2.5895,-2.5895,-2.5895,-2.5895,-2.5895,-2.5115,-2.3531,-2.2872,-2.2264,0.0,0.0,0.0,0.0,0.0,0.0,0.0,0.0,0.0,0.0,0.0,0.0,0.0,0.0,0.0,0.0,0.0,0.0,0.0,0.0,0.0,0.0,0.0,0.0,0.0,0.0,0.0,0.0,-2.027,-2.027,-2.027,-2.027,-2.027,-2.027,-2.027,-2.027,-2.027,-2.027,-2.027,-2.0281,-2.0762,-2.1177,-2.1592,-2.1723,-2.2007,-2.2433,-2.2826,-2.3001,-2.3001,-2.3001,-2.3001,-2.3001,-2.3001,-2.3001,-2.3001,-2.3001,-2.3001,-2.3001,-2.3001,-2.3001,-2.3001,-2.3001,-2.3001,-2.3001,-2.3001,-2.3001,-2.3001,-2.3001,-2.3001,-2.3001,-2.3001,-2.3001,-2.3001,-2.3001,-2.3099,-2.323,-2.3362,-2.3383,-2.3307,-2.3045,-2.3001,-2.3078,-2.334,-2.3165,-2.3001,-2.3001,-2.3001,-2.37,-2.5655,-2.5895,-2.5895,-2.5895,-2.5895,-2.5895,-2.5895,-2.5895,-2.5895,-2.5895,-2.5895,-2.5895,-2.5895,-2.5895,-2.5895,-2.5895,-2.5895,-2.5895,-2.5895,-2.5895,-2.5812,-2.5464,-2.3038,-2.182,0.0,0.0,0.0,0.0,0.0,0.0,0.0,0.0,0.0,0.0,0.0,0.0,0.0,0.0,0.0,0.0,0.0,0.0,0.0,0.0,0.0,0.0,0.0,0.0,0.0,0.0,0.0,0.0,-2.0085,-2.0085,-2.0085,-2.0085,-2.0085,-2.0085,-2.0085,-2.0085,-2.0085,-2.0085,-2.0085,-2.0085,-2.0358,-2.0577,-2.0795,-2.1057,-2.145,-2.1931,-2.2411,-2.2619,-2.2641,-2.2892,-2.3001,-2.3001,-2.3001,-2.3001,-2.3001,-2.3001,-2.3001,-2.3001,-2.3001,-2.3001,-2.3001,-2.3001,-2.3001,-2.3001,-2.3001,-2.3001,-2.3001,-2.3001,-2.3001,-2.3001,-2.3001,-2.3001,-2.3001,-2.3001,-2.3001,-2.3001,-2.3001,-2.3001,-2.3001,-2.3001,-2.3001,-2.3001,-2.3001,-2.3001,-2.3001,-2.3001,-2.3929,-2.4934,-2.5797,-2.5895,-2.5895,-2.5895,-2.5895,-2.5895,-2.5895,-2.5895,-2.5895,-2.5895,-2.5895,-2.5895,-2.5895,-2.5895,-2.5895,-2.5895,-2.5895,-2.5895,-2.5895,-2.5895,-2.5895,-2.5895,-2.4605,-2.3212,0.0,0.0,0.0,0.0,0.0,0.0,0.0,0.0,0.0,0.0,0.0,0.0,0.0,0.0,0.0,0.0,0.0,0.0,0.0,0.0,0.0,0.0,0.0,0.0,0.0,0.0,0.0,0.0,-2.0085,-2.0085,-2.0085,-2.0085,-2.0085,-2.0085,-2.0085,-2.0085,-2.0085,-2.0085,-2.0085,-2.0085,-2.0085,-2.0085,-2.0096,-2.0511,-2.0882,-2.1254,-2.1865,-2.2127,-2.2171,-2.263,-2.2826,-2.2837,-2.2957,-2.3001,-2.3001,-2.3001,-2.3001,-2.3001,-2.3001,-2.3001,-2.3001,-2.3001,-2.3001,-2.3001,-2.3001,-2.3001,-2.3001,-2.3001,-2.3001,-2.3001,-2.3001,-2.3001,-2.3001,-2.3001,-2.3001,-2.3001,-2.3001,-2.3001,-2.3001,-2.3001,-2.3001,-2.3001,-2.3001,-2.3001,-2.3165,-2.3656,-2.4967,-2.5895,-2.5895,-2.5895,-2.5895,-2.5895,-2.5895,-2.5895,-2.5895,-2.5895,-2.5895,-2.5895,-2.5895,-2.5895,-2.5895,-2.5895,-2.5895,-2.5895,-2.5895,-2.5895,-2.5895,-2.5895,-2.5895,-2.5895,-2.5895,-2.4775,0.0,0.0,0.0,0.0,0.0,0.0,0.0,0.0,0.0,0.0,0.0,0.0,0.0,0.0,0.0,0.0,0.0,0.0,0.0,0.0,0.0,0.0,0.0,0.0,0.0,0.0,0.0,0.0,-2.0085,-2.0085,-2.0085,-2.0085,-2.0085,-2.0085,-2.0085,-2.0085,-2.0085,-2.0085,-2.0085,-2.0085,-2.0085,-2.0085,-2.0085,-2.0107,-2.0129,-2.0205,-2.1221,-2.1625,-2.1658,-2.2149,-2.2357,-2.24,-2.2826,-2.3001,-2.3001,-2.3001,-2.3001,-2.3001,-2.3001,-2.3001,-2.3001,-2.3001,-2.3001,-2.3001,-2.3001,-2.3001,-2.3001,-2.3001,-2.3001,-2.3001,-2.3001,-2.3001,-2.3001,-2.3001,-2.3001,-2.3001,-2.3001,-2.3001,-2.3001,-2.3001,-2.3001,-2.3001,-2.3001,-2.3001,-2.3624,-2.5469,-2.5841,-2.5895,-2.5895,-2.5895,-2.5895,-2.5895,-2.5895,-2.5895,-2.5895,-2.5895,-2.5895,-2.5895,-2.5895,-2.5895,-2.5895,-2.5895,-2.5895,-2.5895,-2.5895,-2.5895,-2.5895,-2.5895,-2.5895,-2.5895,-2.5895,-2.5812,0.0,0.0,0.0,0.0,0.0,0.0,0.0,0.0,0.0,0.0,0.0,0.0,0.0,0.0,0.0,0.0,0.0,0.0,0.0,0.0,0.0,0.0,0.0,0.0,0.0,0.0,0.0,0.0,0.0,-1.9211,-1.9211,-1.9211,-1.9353,-1.967,-1.9681,-1.9834,-2.0085,-2.0085,-2.0085,-2.0085,-2.0085,-2.0085,-2.0085,-2.0085,-2.0085,-2.0096,-2.0511,-2.0839,-2.1155,-2.1647,-2.2029,-2.2335,-2.2499,-2.2739,-2.3001,-2.3001,-2.3001,-2.3001,-2.3001,-2.3001,-2.3001,-2.3001,-2.3001,-2.3001,-2.3001,-2.3001,-2.3001,-2.3001,-2.3001,-2.3001,-2.3001,-2.3001,-2.3001,-2.3001,-2.3001,-2.3001,-2.3001,-2.3001,-2.3001,-2.3001,-2.3001,-2.3394,-2.465,-2.3831,-2.3656,-2.5611,-2.5895,-2.5895,-2.5895,-2.5895,-2.5895,-2.5895,-2.5895,-2.5895,-2.5895,-2.5895,-2.5895,-2.5895,-2.5895,-2.5895,-2.5895,-2.5895,-2.5895,-2.5895,-2.5895,-2.5895,-2.5895,-2.5895,-2.5895,-2.5822,-2.4079,-2.3212,0.0,0.0,0.0,0.0,0.0,0.0,0.0,0.0,0.0,0.0,0.0,0.0,0.0,0.0,0.0,0.0,0.0,0.0,0.0,0.0,0.0,0.0,0.0,0.0,0.0,0.0,0.0,0.0,0.0,0.0,-1.8988,-1.8808,-1.884,-1.9168,-1.9179,-1.9408,-1.9835,-1.9835,-1.9922,-2.0085,-2.0085,-2.0085,-2.0085,-2.0085,-2.0085,-2.0085,-2.0085,-2.0325,-2.0664,-2.1144,-2.1538,-2.1843,-2.2007,-2.2258,-2.2553,-2.2706,-2.287,-2.3001,-2.3001,-2.3001,-2.3001,-2.3001,-2.3001,-2.3001,-2.3001,-2.3001,-2.3001,-2.3001,-2.3001,-2.3001,-2.3001,-2.3001,-2.3001,-2.3001,-2.3001,-2.3001,-2.3001,-2.3001,-2.3001,-2.3001,-2.3001,-2.3416,-2.4705,-2.3853,-2.3656,-2.5611,-2.5895,-2.5895,-2.5895,-2.5895,-2.5895,-2.5895,-2.5895,-2.5895,-2.5895,-2.5895,-2.5895,-2.5895,-2.5895,-2.5895,-2.5895,-2.5895,-2.5895,-2.5895,-2.5895,-2.5895,-2.5895,-2.5895,-2.5895,-2.5812,-2.3993,-2.2599,0.0,0.0,0.0,0.0,0.0,0.0,0.0,0.0,0.0,0.0,0.0,0.0,0.0,0.0,0.0,0.0,0.0,0.0,0.0,0.0,0.0,0.0,0.0,0.0,0.0,0.0,0.0,0.0,-1.9467,-1.9467,-1.9467,-1.8955,-1.8665,-1.8665,-1.8687,-1.8916,-1.9397,-1.9397,-1.9637,-2.0042,-2.0053,-2.0064,-2.0064,-2.0074,-2.0085,-2.0085,-2.0085,-2.0085,-2.0118,-2.0642,-2.0917,-2.0972,-2.1385,-2.1581,-2.1647,-2.2116,-2.2586,-2.2979,-2.3001,-2.3001,-2.3001,-2.3001,-2.3001,-2.3001,-2.3001,-2.3001,-2.3001,-2.3001,-2.3001,-2.3001,-2.3001,-2.3001,-2.3001,-2.3001,-2.3001,-2.3001,-2.3001,-2.3001,-2.3001,-2.3001,-2.3001,-2.3001,-2.3001,-2.3001,-2.3646,-2.5535,-2.5808,-2.5841,-2.5895,-2.5895,-2.5895,-2.5895,-2.5895,-2.5895,-2.5895,-2.5895,-2.5895,-2.5895,-2.5895,-2.5895,-2.5895,-2.5895,-2.5895,-2.5895,-2.5895,-2.5874,-2.5808,-2.5874,-2.5895,-2.5895,-2.5812,-2.4337,-0.7806,0.0,0.0,0.0,0.0,0.0,0.0,0.0,0.0,0.0,0.0,0.0,0.0,0.0,0.0,0.0,0.0,0.0,0.0,0.0,0.0,0.0,0.0,0.0,0.0,0.0,0.0,0.0,-1.8739,-1.8462,-1.8462,-1.8646,-1.8572,-1.8196,-1.8918,-1.9164,-1.8895,-1.8884,-1.896,-1.9102,-1.9452,-1.9615,-1.9626,-1.9922,-2.0085,-2.0085,-2.0085,-2.0085,-2.0085,-2.0293,-2.0544,-2.0939,-2.1002,-2.1275,-2.1603,-2.1745,-2.2095,-2.2553,-2.2881,-2.3001,-2.3001,-2.3001,-2.3001,-2.3001,-2.3001,-2.3001,-2.3001,-2.3001,-2.3001,-2.3001,-2.3001,-2.3001,-2.3001,-2.3001,-2.3001,-2.3001,-2.3001,-2.3001,-2.3001,-2.3001,-2.3001,-2.3001,-2.3001,-2.3001,-2.3187,-2.3722,-2.3798,-2.4312,-2.5721,-2.5895,-2.5895,-2.5895,-2.5895,-2.5895,-2.5895,-2.5895,-2.5895,-2.5895,-2.5895,-2.5895,-2.5895,-2.5895,-2.5895,-2.5895,-2.5895,-2.5207,-2.3809,-2.5207,-2.5895,-2.5812,-2.382,-2.2432,0.0,0.0,0.0,0.0,0.0,0.0,0.0,-1.2004,0.0,0.0,0.0,0.0,0.0,0.0,0.0,0.0,0.0,0.0,0.0,0.0,0.0,0.0,0.0,0.0,0.0,-1.9875,-1.9617,-1.9344,-1.9016,-1.8578,-1.8147,-1.8611,-1.8608,-1.8069,-1.8612,-1.8861,-1.8725,-1.8725,-1.8718,-1.8687,-1.9216,-1.9287,-1.9124,-1.9857,-2.0026,-1.9791,-1.9998,-2.0085,-2.0085,-2.0085,-2.0314,-2.0566,-2.0566,-2.074,-2.1013,-2.121,-2.1505,-2.1865,-2.2269,-2.2673,-2.3001,-2.3001,-2.3001,-2.3001,-2.3001,-2.3001,-2.3001,-2.3001,-2.3001,-2.3001,-2.3001,-2.3001,-2.3001,-2.3001,-2.3001,-2.3001,-2.3001,-2.3001,-2.3001,-2.3001,-2.3001,-2.3001,-2.3001,-2.3001,-2.3001,-2.3001,-2.3001,-2.3416,-2.4541,-2.4694,-2.4694,-2.4694,-2.5415,-2.5895,-2.5895,-2.5164,-2.4694,-2.4694,-2.4694,-2.4694,-2.4694,-2.4694,-2.4694,-2.4694,-2.5491,-2.5338,-2.4213,-2.453,-2.5109,-2.5895,-2.4251,-2.2862,0.0,0.0,0.0,0.0,0.0,0.0,-1.3044,-1.3088,0.0,0.0,0.0,0.0,0.0,0.0,0.0,0.0,0.0,0.0,0.0,0.0,0.0,0.0,0.0,0.0,-2.0515,-2.0515,-2.033,-1.9813,-1.9825,-1.9319,-1.8255,-1.8709,-1.8762,-1.8201,-1.8201,-1.8432,-1.8826,-1.8826,-1.8782,-1.8762,-1.9281,-1.9245,-1.8851,-1.9826,-2.0025,-1.9618,-1.9995,-2.0161,-2.0205,-2.0151,-2.0085,-2.0085,-2.0085,-2.0085,-2.0129,-2.0631,-2.0904,-2.1123,-2.1407,-2.2095,-2.2859,-2.2968,-2.3001,-2.3001,-2.3001,-2.3001,-2.3001,-2.3001,-2.3001,-2.3001,-2.3001,-2.3001,-2.3001,-2.3001,-2.3001,-2.3001,-2.3001,-2.3001,-2.3001,-2.3001,-2.3001,-2.3001,-2.3001,-2.3001,-2.3001,-2.3001,-2.3001,-2.3001,-2.3001,-2.3001,-2.3001,-2.3001,-2.4552,-2.5579,-2.5579,-2.3995,-2.3001,-2.3001,-2.3001,-2.3001,-2.3001,-2.3001,-2.3001,-2.3001,-2.4705,-2.5688,-2.5895,-2.417,-2.4213,-2.5895,-2.5895,-2.4423,-1.275,-1.3132,-1.3618,-1.232,0.0,0.0,-1.1206,-1.1289,-1.1707,0.0,0.0,0.0,0.0,0.0,0.0,0.0,0.0,0.0,0.0,0.0,0.0,0.0,0.0,0.0,-1.9251,-1.9251,-1.9399,-1.9772,-1.9813,-1.9488,-1.8881,-1.8934,-1.8934,-1.8815,-1.8827,-1.8875,-1.897,-1.897,-1.8976,-1.8975,-1.9432,-1.9622,-1.9521,-2.0109,-2.0582,-2.0887,-2.0492,-2.0517,-2.088,-2.0324,-2.0085,-2.0085,-2.0085,-2.0085,-2.0096,-2.0183,-2.0555,-2.0915,-2.0981,-2.1374,-2.1996,-2.275,-2.3001,-2.3001,-2.3001,-2.3001,-2.3001,-2.3001,-2.3001,-2.3001,-2.3001,-2.3001,-2.3001,-2.3001,-2.3001,-2.3001,-2.3001,-2.3001,-2.3001,-2.3001,-2.3001,-2.3001,-2.3001,-2.3001,-2.3001,-2.3001,-2.3001,-2.3001,-2.3001,-2.3001,-2.3001,-2.3001,-2.334,-2.3569,-2.3569,-2.322,-2.3001,-2.3001,-2.3001,-2.3001,-2.3001,-2.3001,-2.3001,-2.3001,-2.3372,-2.4334,-2.5895,-2.5524,-2.5535,-2.5895,-2.5895,-2.4423,-1.4359,-1.4597,-1.4933,-1.3782,0.0,0.0,0.0,-1.2053,-1.2272,-1.3134,0.0,0.0,0.0,0.0,0.0,0.0,0.0,0.0,0.0,0.0,0.0,0.0,0.0,0.0,-1.8911,-1.8911,-1.9028,-1.9342,-1.9365,-1.913,-1.8597,-1.878,-1.8824,-1.8578,-1.9092,-1.9291,-1.8987,-1.9251,-1.9239,-1.8999,-1.9507,-1.9629,-1.9384,-2.0134,-2.0467,-2.0529,-2.07,-2.0956,-2.1213,-2.1158,-2.088,-2.0582,-2.0205,-2.0085,-2.0085,-2.0085,-2.0293,-2.05,-2.05,-2.0871,-2.1374,-2.1527,-2.2226,-2.3001,-2.3001,-2.3001,-2.3001,-2.3001,-2.3001,-2.3001,-2.3001,-2.3001,-2.3001,-2.3001,-2.3001,-2.3001,-2.3001,-2.3001,-2.3001,-2.3001,-2.3001,-2.3001,-2.3001,-2.3001,-2.3001,-2.3001,-2.3001,-2.3001,-2.3001,-2.3001,-2.3001,-2.3001,-2.3001,-2.3001,-2.3001,-2.3001,-2.3001,-2.3001,-2.3001,-2.3001,-2.3001,-2.3001,-2.3001,-2.3001,-2.3001,-2.3482,-2.4454,-2.4454,-2.4945,-2.5895,-2.5895,-2.4423,0.0,0.0,0.0,0.0,0.0,-1.4285,0.0,0.0,0.0,-1.3958,0.0,0.0,0.0,0.0,0.0,0.0,0.0,0.0,0.0,0.0,0.0,0.0,0.0,0.0,0.0,-1.8427,-1.8506,-1.8728,-1.8649,-1.8494,-1.8295,-1.8555,-1.8647,-1.8422,-1.9194,-1.9544,-1.9356,-1.9759,-1.9759,-1.9356,-1.9759,-1.9759,-1.9368,-2.017,-2.0366,-2.0068,-2.0843,-2.1233,-2.1366,-2.1753,-2.1537,-2.0934,-2.0473,-2.0205,-2.0085,-2.0085,-2.0085,-2.0085,-2.0085,-2.0423,-2.086,-2.0467,-2.1417,-2.2761,-2.2947,-2.3001,-2.3001,-2.3001,-2.3001,-2.3001,-2.3001,-2.3001,-2.3001,-2.3001,-2.3001,-2.3001,-2.3001,-2.3001,-2.3001,-2.3001,-2.3001,-2.3001,-2.3001,-2.3001,-2.3001,-2.3001,-2.3001,-2.3001,-2.3001,-2.3001,-2.3001,-2.3001,-2.3001,-2.3001,-2.3001,-2.3001,-2.3001,-2.3001,-2.3001,-2.3001,-2.3001,-2.3001,-2.3001,-2.3001,-2.3001,-2.3001,-2.3001,-2.3001,-2.3995,-2.5895,-2.5895,-2.4423,0.0,0.0,0.0,0.0,-1.6011,0.0,0.0,0.0,-1.3487,-1.252,0.0,0.0,0.0,0.0,0.0,0.0,0.0,0.0,0.0,0.0,0.0,0.0,0.0,0.0,0.0,-1.6676,-1.7094,-1.8114,-1.7695,-1.7796,-1.8767,-1.8405,-1.8637,-1.9581,-1.923,-1.9496,-2.0498,-2.0549,-2.0549,-2.0498,-2.0549,-2.0549,-2.0498,-2.0614,-2.0913,-2.1289,-2.0819,-2.0871,-2.1412,-2.1401,-2.1018,-2.0442,-2.0825,-2.0635,-2.0085,-2.0085,-2.0085,-2.0085,-2.0085,-2.0129,-2.027,-2.0839,-2.1341,-2.1909,-2.275,-2.3001,-2.3001,-2.3001,-2.3001,-2.3001,-2.3001,-2.3001,-2.3001,-2.3001,-2.3001,-2.3001,-2.3001,-2.3001,-2.3001,-2.3001,-2.3001,-2.3001,-2.3001,-2.3001,-2.3001,-2.3001,-2.3001,-2.3001,-2.3001,-2.3001,-2.3001,-2.3001,-2.3001,-2.3001,-2.3001,-2.3001,-2.3001,-2.3001,-2.3001,-2.3001,-2.3001,-2.3001,-2.3001,-2.3001,-2.3001,-2.3001,-2.3001,-2.3001,-2.3995,-2.5895,-2.5895,-2.4423,0.0,0.0,0.0,0.0,0.0,0.0,-1.458,0.0,-1.3907,0.0,0.0,0.0,0.0,0.0,0.0,0.0,0.0,0.0,0.0,0.0,0.0,0.0,0.0,0.0,0.0,0.0,0.0,0.0,-1.6545,-1.6571,-1.7408,-1.7854,-1.8336,-1.8792,-1.9208,-1.9656,-2.0169,-2.0549,-2.0699,-2.0699,-2.0699,-2.0699,-2.0699,-2.0699,-2.083,-2.1028,-2.1095,-2.1207,-2.1463,-2.1817,-2.1696,-2.1403,-2.1632,-2.1058,-2.0085,-2.0085,-2.0085,-2.0085,-2.0085,-2.0085,-2.0129,-2.0467,-2.0642,-2.0828,-2.1221,-2.1341,-2.157,-2.2684,-2.3001,-2.3001,-2.3001,-2.3001,-2.3001,-2.3001,-2.3001,-2.3001,-2.3001,-2.3001,-2.3001,-2.3001,-2.3001,-2.3001,-2.3001,-2.3001,-2.3001,-2.3001,-2.3001,-2.3001,-2.3001,-2.3001,-2.3001,-2.3001,-2.3001,-2.3001,-2.3001,-2.3001,-2.3001,-2.3001,-2.3001,-2.3001,-2.3001,-2.3001,-2.3001,-2.3001,-2.3001,-2.3001,-2.3001,-2.3001,-2.3995,-2.5895,-2.5895,-2.4423,-1.8149,0.0,0.0,0.0,0.0,0.0,0.0,0.0,0.0,0.0,0.0,0.0,0.0,0.0,0.0,0.0,0.0,0.0,0.0,0.0,0.0,0.0,0.0,0.0,0.0,0.0,0.0,0.0,0.0,-1.5251,-1.6336,-1.7186,-1.7782,-1.8067,-1.9063,-1.9633,-1.9788,-2.0421,-2.0699,-2.0699,-2.0699,-2.0712,-2.0762,-2.0712,-2.0749,-2.0775,-2.1144,-2.1341,-2.1419,-2.1983,-2.2076,-2.1857,-2.2216,-2.156,-2.0508,-2.0579,-2.0635,-2.0635,-2.0453,-2.027,-2.0085,-2.0085,-2.0085,-2.0085,-2.0085,-2.0085,-2.0368,-2.1822,-2.2597,-2.3001,-2.3001,-2.3001,-2.3001,-2.3001,-2.3001,-2.3001,-2.3001,-2.3001,-2.3001,-2.3001,-2.3001,-2.3001,-2.3001,-2.3001,-2.3001,-2.3001,-2.3001,-2.3001,-2.3001,-2.3001,-2.3001,-2.3001,-2.3001,-2.3001,-2.3001,-2.3001,-2.3001,-2.3001,-2.3001,-2.3001,-2.3001,-2.3001,-2.3001,-2.3001,-2.3001,-2.3001,-2.3001,-2.3001,-2.3733,-2.512,-2.4872,-2.3647,0.0,0.0,0.0,-1.6528,0.0,0.0,0.0,0.0,-1.5023,0.0,0.0,0.0,0.0,0.0,0.0,0.0,0.0,0.0,0.0,0.0,0.0,0.0,0.0,0.0,0.0,0.0,0.0,0.0,0.0,0.0,-1.6271,-1.6428,-1.6963,-1.8087,-1.8649,-1.9224,-1.9777,-2.0388,-2.0699,-2.0699,-2.0699,-2.0775,-2.0901,-2.0762,-2.0799,-2.0997,-2.0951,-2.0951,-2.1063,-2.1648,-2.1459,-2.0885,-2.2196,-2.2156,-2.1499,-2.1909,-2.2051,-2.1928,-2.1313,-2.0635,-2.0085,-2.0085,-2.0085,-2.0085,-2.0085,-2.0085,-2.0096,-2.0162,-2.157,-2.3001,-2.3001,-2.3001,-2.3001,-2.3001,-2.3001,-2.3001,-2.3001,-2.3001,-2.3001,-2.3001,-2.3001,-2.3001,-2.3001,-2.3001,-2.3001,-2.3001,-2.3001,-2.3001,-2.3001,-2.3001,-2.3001,-2.3001,-2.3001,-2.3001,-2.3001,-2.3001,-2.3001,-2.3001,-2.3001,-2.3001,-2.3001,-2.3001,-2.3001,-2.3001,-2.3001,-2.3001,-2.3001,-2.3001,-2.3034,-2.3057,-2.2259,-2.182,0.0,0.0,-1.9154,-1.7856,0.0,0.0,0.0,0.0,0.0,0.0,0.0,0.0,0.0,0.0,0.0,0.0,0.0,0.0,0.0,0.0,0.0,0.0,0.0,0.0,0.0,0.0,0.0,0.0,-1.3474,0.0,0.0,-1.6519,-1.729,-1.8074,-1.8283,-1.8832,-1.9799,-1.9995,-2.0283,-2.0699,-2.0699,-2.0712,-2.0775,-2.0825,-2.0888,-2.0924,-2.0974,-2.0997,-2.101,-2.1196,-2.14,-2.1551,-2.2402,-2.2815,-2.2923,-2.2575,-2.2347,-2.2224,-2.1865,-2.1616,-2.125,-2.0388,-2.0085,-2.0085,-2.0085,-2.0085,-2.0347,-2.168,-2.2499,-2.3001,-2.3001,-2.3001,-2.3001,-2.3001,-2.3001,-2.3001,-2.3001,-2.3001,-2.3001,-2.3001,-2.3001,-2.3001,-2.3001,-2.3001,-2.3001,-2.3001,-2.3001,-2.3001,-2.3001,-2.3001,-2.3001,-2.3001,-2.3001,-2.3001,-2.3001,-2.3001,-2.3001,-2.3001,-2.3001,-2.3001,-2.3001,-2.3001,-2.3001,-2.3001,-2.3001,-2.3001,-2.3001,-2.3001,-2.3001,-2.3045,-2.399,-2.3474,-1.963,-1.9773,0.0,-1.8614,-1.8208,0.0,-1.6593,0.0,0.0,0.0,0.0,0.0,0.0,0.0,0.0,0.0,0.0,0.0,0.0,0.0,0.0,0.0,0.0,0.0,0.0,0.0,-1.1618,-1.2794,0.0,0.0,0.0,0.0,-1.6963,-1.7748,-1.7996,-1.8453,-1.9198,-1.9603,-1.9995,-2.0398,-2.0607,-2.0712,-2.0762,-2.0838,-2.0938,-2.1023,-2.1046,-2.1082,-2.1131,-2.1131,-2.1358,-2.1723,-2.2603,-2.3152,-2.3457,-2.3354,-2.3088,-2.2761,-2.2955,-2.2592,-2.2051,-2.1628,-2.1514,-2.1514,-2.1514,-2.0892,-2.0336,-2.1647,-2.2477,-2.3001,-2.3001,-2.3001,-2.3001,-2.3001,-2.3001,-2.3001,-2.3001,-2.3001,-2.3001,-2.3001,-2.3001,-2.3001,-2.3001,-2.3001,-2.3001,-2.3001,-2.3001,-2.3001,-2.3001,-2.3001,-2.3001,-2.3001,-2.3001,-2.3001,-2.3001,-2.3001,-2.3001,-2.3001,-2.3001,-2.3001,-2.3001,-2.3001,-2.3001,-2.3001,-2.3001,-2.3001,-2.3001,-2.3001,-2.3001,-2.3045,-2.5,-2.4946]},{"header":{"parameterUnit":"m.s-1","parameterCategory":1,"la1":30.6,"la2":29.2853,"lo1":-89.7004,"lo2":-87.6739,"dy":0.0162,"dx":0.0183,"nx":112,"ny":82,"refTime":"2024-07-09T06:00:00:Z","depth":0,"parameterNumber":3,"parameterNumberName":"V-component_of_WINDS"},"data":[0.0,0.0,0.0,0.0,0.0,0.0,0.0,0.0,0.0,0.0,0.0,0.0,0.0,0.0,0.0,0.0,0.0,0.0,0.0,0.0,0.0,0.0,0.0,0.0,0.0,0.0,0.0,0.0,0.0,0.0,0.0,0.0,0.0,0.0,0.0,0.0,0.0,0.0,0.0,0.0,0.0,0.0,0.0,0.0,0.0,0.0,0.0,0.0,0.0,0.0,0.0,0.0,0.0,0.0,0.0,0.0,0.0,0.0,0.0,0.0,0.0,0.0,0.0,0.0,0.0,0.0,0.0,0.0,0.0,0.0,0.0,0.0,0.0,0.0,0.0,0.0,0.0,0.0,0.0,0.0,0.0,0.0,0.0,0.0,0.0,0.0,0.0,0.0,0.0,0.0,0.0,-2.0188,-2.3037,-2.4785,-2.4814,-2.4814,-2.3177,-1.9296,0.0,0.0,0.0,0.0,0.0,0.0,0.0,0.0,0.0,0.0,0.0,0.0,0.0,0.0,0.0,0.0,0.0,0.0,0.0,0.0,0.0,0.0,0.0,0.0,0.0,0.0,0.0,0.0,0.0,0.0,0.0,0.0,0.0,0.0,0.0,0.0,0.0,0.0,0.0,0.0,0.0,0.0,0.0,0.0,0.0,0.0,0.0,0.0,0.0,0.0,0.0,0.0,0.0,0.0,0.0,0.0,0.0,0.0,0.0,0.0,0.0,0.0,0.0,0.0,0.0,0.0,0.0,0.0,0.0,0.0,0.0,0.0,0.0,0.0,0.0,0.0,0.0,0.0,0.0,0.0,0.0,0.0,0.0,0.0,0.0,0.0,0.0,0.0,0.0,0.0,0.0,0.0,0.0,0.0,0.0,0.0,0.0,0.0,0.0,0.0,0.0,0.0,0.0,0.0,-1.8986,-2.3247,-2.406,-2.4338,-2.4474,-2.4474,-2.3128,-1.9945,0.0,0.0,0.0,0.0,0.0,0.0,0.0,0.0,0.0,0.0,0.0,0.0,0.0,0.0,0.0,0.0,0.0,0.0,0.0,0.0,0.0,0.0,0.0,0.0,0.0,0.0,0.0,0.0,0.0,0.0,0.0,0.0,0.0,0.0,0.0,0.0,0.0,0.0,0.0,0.0,0.0,0.0,0.0,0.0,0.0,0.0,0.0,0.0,0.0,0.0,0.0,0.0,0.0,0.0,0.0,0.0,0.0,0.0,0.0,0.0,0.0,0.0,0.0,0.0,0.0,0.0,0.0,0.0,0.0,0.0,0.0,0.0,0.0,0.0,0.0,0.0,0.0,0.0,0.0,0.0,0.0,0.0,0.0,0.0,0.0,0.0,0.0,0.0,0.0,0.0,0.0,0.0,0.0,0.0,0.0,0.0,0.0,0.0,0.0,0.0,0.0,0.0,0.0,-1.7979,-2.025,-2.4145,-2.4673,-2.4716,-2.4682,-2.4588,-2.3232,-2.0093,-1.8222,0.0,0.0,0.0,0.0,0.0,0.0,0.0,0.0,0.0,0.0,0.0,0.0,0.0,0.0,0.0,0.0,0.0,0.0,0.0,0.0,0.0,0.0,0.0,0.0,0.0,0.0,0.0,0.0,0.0,0.0,0.0,0.0,0.0,0.0,0.0,0.0,0.0,0.0,0.0,0.0,0.0,0.0,0.0,0.0,0.0,0.0,0.0,0.0,0.0,0.0,0.0,0.0,0.0,0.0,0.0,0.0,0.0,0.0,0.0,0.0,0.0,0.0,0.0,0.0,0.0,0.0,0.0,0.0,0.0,0.0,0.0,0.0,0.0,0.0,0.0,0.0,0.0,0.0,0.0,0.0,0.0,0.0,0.0,0.0,0.0,0.0,0.0,0.0,0.0,0.0,0.0,0.0,0.0,0.0,0.0,0.0,0.0,0.0,0.0,0.0,0.0,0.0,-1.9826,-2.1454,-2.4323,-2.4851,-2.4961,-2.4861,-2.4233,-2.2739,-2.011,-1.7675,0.0,0.0,0.0,0.0,0.0,0.0,0.0,0.0,0.0,0.0,0.0,0.0,0.0,0.0,0.0,0.0,0.0,0.0,0.0,0.0,0.0,0.0,0.0,0.0,0.0,0.0,0.0,0.0,0.0,0.0,0.0,0.0,0.0,0.0,0.0,0.0,0.0,0.0,0.0,0.0,0.0,0.0,0.0,0.0,0.0,0.0,0.0,0.0,0.0,0.0,0.0,0.0,0.0,0.0,0.0,0.0,0.0,0.0,0.0,0.0,0.0,0.0,0.0,0.0,0.0,0.0,0.0,0.0,0.0,0.0,0.0,0.0,0.0,0.0,0.0,0.0,0.0,0.0,0.0,0.0,0.0,0.0,0.0,0.0,0.0,0.0,0.0,0.0,0.0,0.0,0.0,0.0,0.0,0.0,0.0,0.0,0.0,0.0,0.0,0.0,0.0,0.0,-1.9964,-2.2365,-2.4221,-2.4441,-2.4526,-2.4707,-2.2644,-2.099,-2.0127,-1.6338,0.0,0.0,0.0,0.0,0.0,0.0,0.0,0.0,0.0,0.0,0.0,0.0,0.0,0.0,0.0,0.0,0.0,0.0,0.0,0.0,0.0,0.0,0.0,0.0,0.0,0.0,0.0,0.0,0.0,0.0,0.0,0.0,0.0,0.0,0.0,0.0,0.0,0.0,0.0,0.0,0.0,0.0,0.0,0.0,0.0,0.0,0.0,0.0,0.0,0.0,0.0,0.0,0.0,0.0,0.0,0.0,0.0,0.0,0.0,0.0,0.0,0.0,0.0,0.0,0.0,0.0,0.0,0.0,0.0,0.0,0.0,0.0,0.0,0.0,0.0,0.0,0.0,0.0,0.0,0.0,0.0,0.0,0.0,0.0,0.0,0.0,0.0,0.0,0.0,0.0,0.0,0.0,0.0,0.0,0.0,0.0,0.0,0.0,0.0,0.0,0.0,0.0,-1.9125,-2.1488,0.0,-2.451,-2.4578,-2.451,-2.368,-2.1981,-1.922,0.0,0.0,0.0,0.0,0.0,0.0,0.0,0.0,0.0,0.0,0.0,0.0,0.0,0.0,0.0,0.0,0.0,0.0,0.0,0.0,0.0,0.0,0.0,0.0,0.0,0.0,0.0,0.0,0.0,0.0,0.0,0.0,0.0,0.0,0.0,0.0,0.0,0.0,0.0,0.0,0.0,0.0,0.0,0.0,0.0,0.0,0.0,0.0,0.0,0.0,0.0,0.0,0.0,0.0,0.0,0.0,0.0,0.0,0.0,0.0,0.0,0.0,0.0,0.0,0.0,0.0,0.0,0.0,0.0,0.0,0.0,0.0,0.0,0.0,0.0,0.0,0.0,0.0,0.0,0.0,0.0,0.0,0.0,0.0,0.0,0.0,0.0,0.0,0.0,0.0,0.0,0.0,0.0,0.0,0.0,0.0,0.0,0.0,0.0,0.0,0.0,0.0,-1.6778,-1.9234,-2.1659,0.0,-2.4512,-2.4543,-2.4407,-2.3475,-2.1637,-1.8652,0.0,0.0,0.0,0.0,0.0,0.0,0.0,0.0,0.0,0.0,0.0,0.0,0.0,0.0,0.0,0.0,0.0,0.0,0.0,0.0,0.0,0.0,0.0,0.0,0.0,0.0,0.0,0.0,0.0,0.0,0.0,0.0,0.0,0.0,0.0,0.0,0.0,0.0,0.0,0.0,0.0,0.0,0.0,0.0,0.0,0.0,0.0,0.0,0.0,0.0,0.0,0.0,0.0,0.0,0.0,0.0,0.0,0.0,0.0,0.0,0.0,0.0,0.0,0.0,0.0,0.0,0.0,0.0,0.0,0.0,0.0,0.0,0.0,0.0,0.0,0.0,0.0,0.0,0.0,0.0,0.0,0.0,0.0,0.0,0.0,0.0,0.0,0.0,0.0,0.0,0.0,0.0,0.0,0.0,0.0,0.0,0.0,0.0,0.0,0.0,0.0,0.0,-1.702,-2.056,-2.3309,-2.4116,-2.4321,-2.4389,-2.4389,-2.1521,-1.9413,0.0,0.0,0.0,0.0,0.0,0.0,0.0,0.0,0.0,0.0,0.0,0.0,0.0,0.0,0.0,0.0,0.0,0.0,0.0,0.0,0.0,0.0,0.0,0.0,0.0,0.0,0.0,0.0,0.0,0.0,0.0,0.0,0.0,0.0,0.0,0.0,0.0,0.0,0.0,0.0,0.0,0.0,0.0,0.0,0.0,0.0,0.0,0.0,0.0,0.0,0.0,0.0,0.0,0.0,0.0,0.0,0.0,0.0,0.0,0.0,0.0,0.0,0.0,0.0,0.0,0.0,0.0,0.0,0.0,0.0,0.0,0.0,0.0,0.0,0.0,0.0,0.0,0.0,0.0,0.0,0.0,0.0,0.0,0.0,0.0,0.0,0.0,0.0,0.0,0.0,0.0,0.0,0.0,0.0,0.0,0.0,0.0,0.0,0.0,0.0,0.0,0.0,0.0,-1.7712,-2.0862,-2.3309,-2.4116,-2.4247,-2.4266,-2.4266,-2.2883,-2.0973,-1.8477,0.0,0.0,0.0,0.0,0.0,0.0,0.0,0.0,0.0,0.0,0.0,0.0,0.0,0.0,0.0,0.0,0.0,0.0,0.0,0.0,0.0,0.0,0.0,0.0,0.0,0.0,0.0,0.0,0.0,0.0,0.0,0.0,0.0,0.0,0.0,0.0,0.0,0.0,0.0,0.0,0.0,0.0,0.0,0.0,0.0,0.0,0.0,0.0,0.0,0.0,0.0,0.0,0.0,0.0,0.0,0.0,0.0,0.0,0.0,0.0,0.0,0.0,0.0,0.0,0.0,0.0,0.0,0.0,0.0,0.0,0.0,0.0,0.0,0.0,0.0,0.0,0.0,0.0,0.0,0.0,0.0,0.0,0.0,0.0,0.0,0.0,0.0,0.0,0.0,0.0,0.0,0.0,0.0,0.0,0.0,0.0,0.0,0.0,0.0,0.0,0.0,0.0,-1.8042,-2.1287,-2.3657,-2.4153,-2.419,-2.419,-2.419,-2.3474,-2.1766,-1.8849,0.0,0.0,0.0,0.0,0.0,0.0,0.0,0.0,0.0,0.0,0.0,0.0,0.0,0.0,0.0,0.0,0.0,0.0,0.0,0.0,0.0,0.0,0.0,0.0,0.0,0.0,0.0,0.0,0.0,0.0,0.0,0.0,0.0,0.0,0.0,0.0,0.0,0.0,0.0,0.0,0.0,0.0,0.0,0.0,0.0,0.0,0.0,0.0,0.0,0.0,0.0,0.0,0.0,0.0,0.0,0.0,0.0,0.0,0.0,0.0,0.0,0.0,0.0,0.0,0.0,0.0,0.0,0.0,0.0,0.0,0.0,0.0,0.0,0.0,0.0,0.0,0.0,0.0,0.0,0.0,0.0,0.0,0.0,0.0,0.0,0.0,0.0,0.0,0.0,0.0,0.0,0.0,0.0,0.0,0.0,0.0,0.0,0.0,0.0,0.0,0.0,0.0,-1.8195,-2.1746,-2.419,-2.419,-2.419,-2.419,-2.419,-2.3474,-2.2024,-1.9761,0.0,0.0,0.0,0.0,0.0,0.0,0.0,0.0,0.0,0.0,0.0,0.0,0.0,0.0,0.0,0.0,0.0,0.0,0.0,0.0,0.0,0.0,0.0,0.0,0.0,0.0,0.0,0.0,0.0,0.0,0.0,0.0,0.0,0.0,0.0,0.0,0.0,0.0,0.0,0.0,0.0,0.0,0.0,0.0,0.0,0.0,0.0,0.0,0.0,0.0,0.0,0.0,0.0,0.0,0.0,0.0,0.0,0.0,0.0,0.0,-1.5926,0.0,0.0,0.0,0.0,0.0,0.0,0.0,0.0,0.0,0.0,0.0,0.0,0.0,0.0,0.0,0.0,0.0,0.0,0.0,0.0,0.0,0.0,0.0,0.0,0.0,0.0,0.0,0.0,0.0,0.0,0.0,0.0,0.0,0.0,0.0,0.0,0.0,0.0,0.0,0.0,0.0,-1.8879,-2.2078,-2.419,-2.419,-2.419,-2.419,-2.419,-2.3418,-2.2429,-2.1292,-1.8294,0.0,0.0,0.0,0.0,0.0,0.0,0.0,0.0,0.0,0.0,0.0,0.0,0.0,0.0,0.0,0.0,0.0,0.0,0.0,0.0,0.0,0.0,0.0,0.0,0.0,0.0,0.0,0.0,0.0,0.0,0.0,0.0,0.0,0.0,0.0,0.0,0.0,0.0,0.0,0.0,0.0,0.0,0.0,0.0,0.0,0.0,0.0,0.0,0.0,0.0,0.0,0.0,0.0,0.0,0.0,0.0,0.0,0.0,0.0,0.0,-1.5509,0.0,0.0,0.0,0.0,0.0,0.0,0.0,0.0,0.0,0.0,0.0,0.0,0.0,0.0,0.0,0.0,0.0,0.0,0.0,0.0,0.0,0.0,0.0,0.0,0.0,0.0,0.0,0.0,0.0,0.0,0.0,0.0,0.0,0.0,0.0,0.0,0.0,0.0,0.0,0.0,-1.9675,-2.2409,-2.419,-2.419,-2.419,-2.419,-2.4151,-2.3747,-2.3105,-2.2246,-1.9877,0.0,0.0,0.0,0.0,0.0,0.0,0.0,0.0,0.0,0.0,0.0,0.0,0.0,0.0,0.0,0.0,0.0,0.0,0.0,0.0,0.0,0.0,0.0,0.0,0.0,0.0,0.0,0.0,0.0,0.0,0.0,0.0,0.0,0.0,0.0,0.0,0.0,0.0,0.0,0.0,0.0,0.0,0.0,0.0,0.0,0.0,0.0,0.0,0.0,0.0,0.0,0.0,0.0,-2.5914,-2.4918,-2.5425,-2.4302,-2.4411,-2.5027,-1.722,-1.7942,-2.4411,-2.128,0.0,0.0,0.0,0.0,0.0,0.0,0.0,0.0,0.0,0.0,0.0,0.0,0.0,0.0,0.0,0.0,0.0,0.0,0.0,0.0,0.0,0.0,0.0,0.0,-2.3526,-2.3417,-1.9426,0.0,0.0,0.0,0.0,0.0,0.0,0.0,0.0,0.0,0.0,0.0,-2.0519,-2.2758,-2.4208,-2.417,-2.417,-2.4151,-2.4094,-2.4074,-2.3724,-2.2953,-2.1443,-1.997,0.0,0.0,0.0,0.0,0.0,0.0,0.0,0.0,0.0,0.0,0.0,0.0,0.0,0.0,0.0,0.0,0.0,0.0,0.0,0.0,0.0,0.0,0.0,0.0,0.0,0.0,0.0,0.0,0.0,0.0,0.0,0.0,-1.4108,-1.5019,0.0,0.0,0.0,0.0,0.0,0.0,0.0,0.0,0.0,0.0,0.0,0.0,0.0,-2.3182,-2.318,-2.595,-2.7755,-2.8587,-2.8153,-2.9445,-3.1944,-2.6349,-2.6856,-3.2071,-3.0803,0.0,-2.7717,-2.4506,0.0,0.0,0.0,0.0,0.0,0.0,0.0,0.0,0.0,0.0,0.0,0.0,0.0,0.0,0.0,0.0,0.0,0.0,0.0,0.0,0.0,0.0,-2.5695,-2.5677,-2.5929,-2.5975,0.0,-2.1898,-1.8702,-1.7803,-1.7069,0.0,0.0,0.0,0.0,0.0,0.0,0.0,-2.14,-2.3125,-2.417,-2.4113,-2.4113,-2.4094,-2.4016,-2.3976,-2.3862,-2.3751,-2.2241,-2.1242,-2.1025,-1.8032,0.0,0.0,0.0,0.0,0.0,0.0,0.0,0.0,0.0,0.0,0.0,0.0,0.0,0.0,0.0,0.0,0.0,0.0,0.0,0.0,0.0,0.0,0.0,0.0,0.0,0.0,0.0,0.0,0.0,-1.2887,-1.4953,-1.6602,-1.7628,-1.7854,0.0,0.0,0.0,0.0,0.0,0.0,0.0,0.0,0.0,-2.2124,-2.496,-2.7381,-2.9174,-3.0586,-3.131,-3.131,-3.131,-3.2053,-3.3302,-3.0477,-3.0731,-3.3393,-3.3393,-3.2601,-3.1049,-2.7816,-2.4628,-2.1659,0.0,0.0,0.0,0.0,-1.4611,-1.8497,-2.4574,-2.5423,-2.3795,-2.3795,0.0,0.0,0.0,0.0,0.0,0.0,0.0,0.0,0.0,0.0,-2.833,-2.833,-2.87,-2.8968,-2.856,-2.6487,-2.4058,0.0,-2.0834,-1.9622,-1.7436,0.0,0.0,0.0,0.0,-2.1786,-2.2942,-2.4499,-2.5303,-2.4766,-2.473,-2.4527,-2.3992,-2.3917,-2.3896,-2.3855,-2.3182,-2.26,-2.2185,-2.0391,-1.8596,0.0,0.0,0.0,0.0,0.0,0.0,0.0,0.0,0.0,0.0,0.0,0.0,0.0,0.0,0.0,0.0,0.0,0.0,0.0,0.0,0.0,0.0,0.0,0.0,0.0,0.0,0.0,0.0,-1.4216,-1.6117,-1.8527,-2.0064,-2.0351,0.0,0.0,0.0,0.0,0.0,0.0,-2.3295,-2.4538,-2.5175,-2.5027,-2.816,-3.0985,-3.3375,-3.3393,-3.3393,-3.3393,-3.3393,-3.3393,-3.3393,-3.3393,-3.3846,-3.4588,-3.3755,-3.3864,-3.4371,-3.1166,-2.8431,-2.6059,-2.4103,-2.2643,-2.1405,-1.8979,-2.157,-2.6602,-2.9011,-2.8268,-2.6258,-2.6258,-2.7598,-2.9137,-2.8739,0.0,0.0,0.0,0.0,-2.6663,-2.7798,-2.9141,-3.0194,-3.0194,-3.0648,-3.0947,-3.0451,-2.9892,-2.8625,0.0,-2.4446,-2.3088,-2.0427,0.0,0.0,0.0,0.0,-2.3839,-2.4586,-2.5737,-2.6228,-2.5561,-2.5306,-2.4902,-2.4239,-2.3985,-2.3837,-2.3795,-2.3795,-2.3542,-2.2998,-2.2238,-2.0862,-1.8866,0.0,0.0,0.0,0.0,0.0,0.0,0.0,0.0,0.0,0.0,0.0,0.0,0.0,0.0,0.0,0.0,0.0,0.0,0.0,0.0,0.0,0.0,0.0,0.0,0.0,0.0,0.0,0.0,0.0,-2.2075,-2.1916,0.0,0.0,0.0,0.0,-2.3001,-2.6294,-2.8811,-3.0387,-2.9137,-2.8377,-2.8352,-3.1492,-3.3248,-3.3393,-3.3393,-3.3393,-3.3393,-3.3393,-3.3393,-3.3393,-3.3393,-3.5059,-3.7775,-3.4733,-3.5131,-3.7703,-3.448,-3.3067,-3.2614,-2.9481,-2.8214,-2.8105,-2.796,-3.0025,-3.294,-3.3103,-3.3049,-3.2922,-3.2922,-3.1981,-3.0613,-2.9141,-2.9294,0.0,0.0,-2.8458,-2.9668,-2.9671,-3.0323,-3.0957,-3.0957,-3.1021,-3.1066,-3.0976,-3.1028,-3.0385,0.0,-2.6979,-2.6117,-2.5201,0.0,-2.499,-2.4933,-2.502,-2.5382,-2.618,-2.6344,-2.6358,-2.6259,-2.5568,-2.5056,-2.4936,-2.423,-2.3795,-2.3795,-2.3795,-2.3777,-2.3741,-2.3035,-2.222,-2.1351,-1.8252,0.0,0.0,0.0,0.0,0.0,0.0,0.0,0.0,0.0,0.0,0.0,0.0,0.0,0.0,0.0,0.0,0.0,0.0,0.0,0.0,0.0,0.0,0.0,0.0,0.0,0.0,0.0,0.0,-2.251,-2.4251,0.0,-2.461,-2.3878,-2.4117,-2.5733,-2.883,-3.1202,-3.2488,-3.1347,-3.0496,-3.0152,-3.227,-3.4389,-3.6453,-3.649,-3.649,-3.649,-3.649,-3.649,-3.649,-3.649,-3.7105,-3.8119,-3.6979,-3.7123,-3.8101,-3.6961,-3.5258,-3.3284,-3.2144,-3.1691,-3.1691,-3.1691,-3.2415,-3.3393,-3.3393,-3.4751,-3.6146,-3.4063,-3.3013,-3.2306,-3.1066,-3.0966,-3.1166,-3.0649,-3.0939,-3.1483,-3.1981,-3.2325,-3.2542,-3.2542,-3.2571,-3.2571,-3.2581,-3.2256,-3.1692,-3.0896,-2.9259,-2.7762,-2.6958,-2.637,-2.5841,-2.5312,-2.6093,-2.6836,-2.7082,-2.7573,-2.7658,-2.7061,-2.6752,-2.6154,-2.5081,-2.4737,-2.4339,-2.3831,-2.3795,-2.3795,-2.3795,-2.3542,-2.3053,-2.2292,-2.0644,-1.8489,0.0,0.0,0.0,0.0,0.0,0.0,0.0,0.0,0.0,0.0,0.0,0.0,0.0,0.0,0.0,0.0,0.0,0.0,0.0,0.0,0.0,0.0,0.0,0.0,0.0,0.0,-2.3089,-2.4176,-2.6362,-2.7399,-2.6331,-2.7345,-2.7924,-2.758,-3.0514,-3.2651,-3.3357,-3.323,-3.2741,-3.1836,-3.2832,-3.495,-3.8156,-3.8192,-3.8192,-3.8192,-3.8192,-3.8192,-3.8192,-3.8192,-3.8192,-3.8192,-3.8192,-3.8192,-3.8192,-3.8192,-3.6924,-3.5023,-3.5023,-3.5023,-3.5023,-3.5023,-3.5023,-3.5023,-3.5023,-3.6417,-3.7757,-3.5077,-3.4208,-3.4081,-3.3357,-3.314,-3.3176,-3.3357,-3.3411,-3.3538,-3.4081,-3.4009,-3.381,-3.381,-3.361,-3.3393,-3.3452,-3.3034,-3.2672,-3.271,-3.1037,-2.9423,-2.8913,-2.8342,-2.7724,-2.6904,-2.7687,-2.8221,-2.7901,-2.8336,-2.8463,-2.787,-2.7556,-2.6874,-2.5516,-2.5153,-2.4664,-2.385,-2.3795,-2.3795,-2.3795,-2.356,-2.3198,-2.2727,-2.135,-1.9451,-1.7031,0.0,0.0,0.0,0.0,0.0,0.0,0.0,0.0,0.0,0.0,0.0,0.0,0.0,0.0,0.0,0.0,0.0,0.0,0.0,0.0,0.0,0.0,0.0,-2.1731,-2.3668,-2.5733,-2.729,-2.8207,-2.8732,-2.8732,-2.9709,-2.9934,-2.8858,-3.1663,-3.3447,-3.3465,-3.4914,-3.5077,-3.361,-3.3556,-3.5041,-3.8156,-3.8192,-3.8192,-3.8192,-3.8192,-3.8192,-3.8192,-3.8192,-3.8192,-3.8192,-3.8282,-3.8337,-3.8337,-3.8282,-3.8228,-3.8192,-3.8192,-3.8192,-3.8192,-3.8192,-3.8192,-3.8192,-3.8192,-3.8192,-3.7938,-3.6363,-3.5856,-3.5838,-3.582,-3.582,-3.582,-3.582,-3.582,-3.582,-3.582,-3.5222,-3.4643,-3.4643,-3.4027,-3.3429,-3.3429,-3.3382,-3.3364,-3.3364,-3.2228,-3.1245,-3.1227,-3.1156,-3.083,-3.0057,-2.9878,0.0,-2.8732,-2.8623,-2.8623,-2.8587,-2.7881,-2.7127,-2.6312,-2.5497,-2.4683,-2.3886,-2.3813,-2.3795,-2.3795,-2.3107,-2.2725,-2.2725,-2.0318,-1.8642,-1.7766,0.0,0.0,0.0,0.0,0.0,0.0,0.0,0.0,0.0,0.0,0.0,0.0,0.0,0.0,0.0,0.0,0.0,0.0,0.0,0.0,0.0,0.0,-2.5461,-2.4968,-2.6935,-2.8598,-2.9083,-3.0748,-3.1881,-3.1921,-3.3226,-3.3772,-3.3136,-3.3911,-3.4641,-3.51,-3.4461,-3.4932,-3.6816,-3.687,-3.7305,-3.8174,-3.8192,-3.8192,-3.8192,-3.8192,-3.8192,-3.8192,-3.8192,-3.8192,-3.8319,-4.06,-4.1596,-4.1506,-4.033,-3.9226,-3.8192,-3.8192,-3.8192,-3.8192,-3.8192,-3.8192,-3.8192,-3.8192,-3.8192,-3.8011,-3.6997,-3.6653,-3.6544,-3.5983,-3.582,-3.582,-3.582,-3.582,-3.582,-3.582,-3.5657,-3.5476,-3.5476,-3.486,-3.4202,-3.3898,-3.34,-3.2957,-3.2957,-3.2629,-3.2283,-3.1991,-3.1438,-3.0939,-3.0722,-3.0686,0.0,-2.9572,-2.9463,-2.9246,-2.8641,-2.8388,-2.7936,-2.7145,-2.6331,-2.5534,-2.4719,-2.4121,-2.3795,-2.3795,-2.3614,-2.3485,-2.35,-2.1632,-2.0262,0.0,0.0,0.0,0.0,0.0,0.0,0.0,0.0,0.0,0.0,0.0,0.0,0.0,0.0,0.0,0.0,0.0,0.0,0.0,0.0,0.0,0.0,-2.6817,-2.9404,-2.9115,-2.9999,-3.0792,-3.1127,-3.2607,-3.3746,-3.4132,-3.4803,-3.5199,-3.5109,-3.4542,-3.4884,-3.6476,-3.5666,-3.6074,-3.8138,-3.8192,-3.8192,-3.8192,-3.9496,-4.0166,-4.0166,-4.0166,-4.0166,-4.0166,-4.0166,-4.0166,-4.0256,-4.2085,-4.2647,-4.2158,-4.1234,-4.0185,0.0,0.0,0.0,0.0,0.0,-3.8192,-3.8192,-3.8192,-3.8192,-3.8101,-3.7631,-3.7486,-3.7413,-3.6942,-3.6816,-3.6816,-3.6816,-3.6648,-3.6512,-3.6512,-3.6125,-3.5772,-3.5772,-3.5265,-3.4738,-3.4505,-3.3963,-3.3553,-3.3553,-3.3283,0.0,-3.2748,-3.2306,-3.189,-3.1546,-3.1492,-3.1202,-3.0405,-3.0007,-2.9608,-2.9156,-2.8811,-2.8261,-2.7489,-2.6982,0.0,0.0,0.0,-2.3988,-2.328,-2.3262,0.0,0.0,0.0,0.0,0.0,0.0,0.0,0.0,-2.0187,-1.9902,0.0,0.0,0.0,0.0,0.0,0.0,0.0,0.0,0.0,0.0,0.0,0.0,0.0,0.0,0.0,0.0,-3.0087,-3.3275,-3.3324,-3.278,-3.2619,-3.3283,-3.4056,-3.4828,-3.5529,-3.531,-3.5274,-3.5708,-3.474,-3.5289,-3.7988,0.0,0.0,0.0,0.0,-3.8717,-3.8717,-4.1488,-4.2882,-4.2882,-4.2882,-4.2882,-4.2882,-4.2882,-4.2882,-4.2882,-4.2882,-4.2357,-4.1488,-4.1488,-4.1198,-4.08,-4.1107,-4.0091,-3.8445,-3.8391,-3.8391,-3.8445,-3.8391,0.0,0.0,-3.8176,-3.8106,-3.8106,-3.8072,-3.8054,-3.8054,-3.8054,-3.7756,-3.7432,-3.7432,-3.6677,-3.5902,-3.5902,-3.5598,-3.5309,-3.5275,-3.4936,-3.4635,-3.4545,-3.3948,-3.3472,-3.3411,-3.3393,-3.3158,-3.2433,-3.2343,-3.2035,-3.1238,-3.0496,-3.0025,-2.9961,0.0,0.0,-2.7743,-2.7508,-2.6801,-2.5353,-2.5159,-2.4446,-2.2955,-2.2901,-2.2862,-2.2797,-2.3495,-2.417,-2.4837,-2.5479,-2.5854,-2.5854,-2.2371,-2.1857,0.0,0.0,0.0,0.0,0.0,0.0,0.0,0.0,0.0,0.0,0.0,0.0,0.0,0.0,0.0,-3.1317,-3.3275,-3.4345,-3.4738,-3.4666,-3.4697,-3.499,-3.5608,-3.6076,-3.627,-3.6755,-3.7095,-3.7202,-3.8078,-3.9455,-4.127,-4.03,-4.0418,-4.194,-4.1977,-4.1977,-4.1977,-4.2592,-4.2882,-4.2882,0.0,0.0,-4.2882,-4.2882,-4.2882,-4.2882,-4.2882,-4.2774,-4.2574,-4.2574,-4.252,-4.2321,-4.1107,-4.0401,-4.0003,-3.9586,-3.9695,-4.0003,-3.9568,-3.9297,-3.9009,-3.7972,-3.7632,-3.7596,-3.7246,-3.715,0.0,-3.715,-3.7094,-3.7017,-3.7017,-3.7084,-3.7164,-3.7164,-3.6878,-3.6543,-3.6236,-3.5576,-3.4909,-3.4232,-3.3981,-3.3791,-3.3442,-3.3393,-3.3357,-3.3194,-3.3176,-3.2886,-3.2071,-3.1818,-3.1473,-3.0822,-3.0043,-2.95,-2.9337,-2.816,-2.7248,-2.6874,-2.6207,-2.5655,-2.5344,-2.5261,-2.5237,-2.5213,-2.5308,-2.5426,-2.5586,-2.5729,-2.6139,-2.6728,-2.5343,-2.4932,0.0,0.0,0.0,0.0,0.0,0.0,0.0,0.0,0.0,0.0,0.0,-2.3431,-2.5067,0.0,-2.9603,-3.3713,-3.4279,-3.4569,-3.5633,-3.5599,-3.5563,-3.5914,-3.6237,-3.6577,-3.7006,-3.7863,-3.838,-3.838,-4.0075,-4.1448,-4.2251,-4.164,-4.1665,-4.2555,-4.2709,-4.2709,-4.2591,-4.2806,-4.2882,-4.2882,-4.2882,-4.2882,-4.2882,-4.2709,-4.2709,-4.29,-4.2806,-4.2862,-4.2882,-4.2882,-4.2882,-4.281,-4.2013,-4.147,-4.1035,-4.0365,-4.0293,-4.0474,-4.0202,-3.9878,-3.9516,-3.8845,-3.8665,-3.8556,-3.7937,-3.7925,-3.8058,-3.7648,-3.7376,-3.7208,-3.7208,-3.7208,-3.717,-3.6939,-3.6925,-3.6844,-3.6453,-3.5874,-3.5332,-3.4942,-3.4518,-3.4074,-3.3496,-3.3405,-3.3409,-3.3388,-3.3208,-3.3033,-3.2821,-3.2451,-3.2053,-3.1636,-3.0876,-3.0224,-2.9773,-2.8247,-2.727,-2.7202,-2.6397,-2.5942,-2.5893,-2.5868,-2.5868,-2.5868,-2.6218,-2.6407,-2.6407,-2.721,-2.7817,-2.8191,-2.8174,-2.7959,0.0,0.0,0.0,0.0,0.0,0.0,0.0,0.0,-2.1603,-2.3847,-2.5446,-2.6842,-2.8281,-2.979,-3.1743,-3.4528,-3.4575,-3.477,-3.6272,-3.6251,-3.6213,-3.6595,-3.6631,-3.6881,-3.7523,-3.8595,-3.9254,-3.9468,-4.1217,-4.2287,-4.2287,-4.2287,-4.2287,-4.2287,-4.245,-4.245,-4.2287,-4.2631,-4.2768,-4.2768,-4.2768,-4.2768,-4.2768,-4.2472,-4.2512,-4.2824,-4.2709,-4.2747,-4.2806,-4.2729,-4.2729,-4.2691,-4.2577,-4.2142,-4.1513,-4.1125,-4.0981,-4.0908,-4.0673,-4.036,-3.9982,-3.9761,-3.9669,-3.9526,-3.8762,-3.8793,-3.8977,-3.8167,-3.7613,-3.7283,-3.7283,-3.7017,-3.6719,-3.6367,-3.6597,-3.6821,-3.6492,-3.615,-3.5878,-3.572,-3.5194,-3.4473,-3.3756,-3.3439,-3.3301,-3.3212,-3.2957,-3.2876,-3.3147,-3.2697,-3.2282,-3.2175,-3.1531,-3.0784,-2.9981,-2.8514,-2.7618,-2.7565,-2.6806,-2.6333,-2.6282,-2.6282,-2.6282,-2.6282,-2.7049,-2.746,-2.746,-2.8905,-2.9619,-2.9637,-3.0386,-3.0332,-1.7947,-1.8493,0.0,-2.0737,-2.1118,-2.2092,0.0,0.0,-2.6087,-2.8241,-2.8843,-2.9423,-3.0891,-3.1633,-3.2568,-3.4296,-3.5106,-3.5805,-3.671,-3.7157,-3.7415,-3.7452,-3.7452,-3.7487,-3.7577,-3.8595,-3.9557,-4.0467,-4.1627,-4.2287,-4.2287,-4.2287,-4.2287,-4.2287,-4.2328,-4.2328,-4.2287,-4.2328,-4.2369,-4.2369,-4.2369,-4.2369,-4.2369,-4.2432,-4.2512,-4.2552,-4.2591,-4.2609,-4.2591,-4.2192,-4.2008,-4.1966,-4.1508,-4.1261,-4.1306,-4.2246,-4.2629,-4.2482,-4.1343,-4.0935,-4.0691,-3.9617,-3.9265,-3.9124,-3.8368,-3.8197,-3.8078,-3.7284,-3.6759,-3.6451,-3.6451,-3.6409,-3.6385,-3.6301,-3.6597,-3.69,-3.6821,-3.679,-3.6566,-3.5826,-3.5633,-3.5317,-3.4491,-3.3584,-3.2835,-3.2474,-3.2651,-3.2699,-3.2453,-3.2595,-3.2556,-3.2159,-3.1703,-3.1225,-3.0715,-2.9807,-2.9259,-2.9231,-2.8425,-2.7942,-2.7914,-2.7914,-2.7914,-2.7914,-2.8727,-2.9137,-2.9137,-2.9976,-3.0386,-3.0404,-3.1189,-3.1135,-2.1483,0.0,0.0,0.0,-2.4679,-2.6021,-2.7599,-2.834,-2.9102,-3.0427,-3.1023,-3.1636,-3.2696,-3.3012,-3.3638,0.0,-3.5343,-3.5702,-3.7114,-3.7034,-3.6724,-3.6569,-3.7164,-3.7577,-3.7577,-3.8808,-3.9771,-4.0199,-4.152,-4.2287,-4.2287,-4.2287,-4.2287,-4.2287,-4.2287,-4.2287,-4.2287,-4.2287,-4.2287,-4.2287,-4.2287,-4.2287,-4.2287,-4.2369,-4.2269,-4.2068,-4.2432,-4.2274,-4.176,-4.1864,-4.1735,-4.142,-4.1178,-4.1087,-4.1178,-4.1664,-4.1853,-4.1757,-4.1251,-4.0902,-4.0582,-4.006,-3.9911,-3.9772,-3.8967,-3.8947,-3.8919,-3.7737,-3.7324,-3.7113,-3.6742,-3.6638,-3.6597,-3.6385,-3.6409,-3.6492,-3.6224,-3.6139,-3.6036,-3.5727,-3.5658,-3.5418,-3.4621,-3.412,-3.3635,-3.3024,-3.2487,-3.2162,-3.2179,-3.2316,-3.2316,-3.2092,-3.1648,-3.131,-3.1102,-3.0463,-3.0087,-3.0087,-2.9726,-2.9547,-2.9547,-2.9547,-2.9547,-2.9547,-2.9886,-3.0047,-3.0047,-3.0814,-3.1207,-3.1225,-3.201,-3.2206,-2.3719,0.0,0.0,-2.5822,-2.7661,-2.9268,-2.9268,-3.0228,-3.1321,-3.2067,-3.2464,-3.2911,-3.3657,-3.3789,0.0,-3.5368,-3.556,-3.5926,-3.6895,-3.6876,-3.6597,-3.6145,-3.6889,-3.7449,-3.7577,-3.8808,-3.97,-3.9896,-4.1199,-4.2055,-4.2287,-4.2287,-4.2287,-4.2287,-4.2145,-4.2145,-4.2287,-4.2002,-4.2019,-4.2287,-4.2145,-4.2086,-4.2086,-4.1959,-4.1727,-4.149,-4.1924,-4.1674,-4.1013,-4.1276,-4.1168,-4.0763,-4.0621,-4.059,-4.059,-4.059,-4.081,-4.1087,-4.0949,-4.0703,-4.04,-4.04,-4.04,-4.0263,-3.959,-3.9612,-3.9651,-3.8415,-3.7808,-3.7488,-3.7032,-3.6696,-3.6392,-3.6071,-3.6002,-3.5915,-3.5577,-3.5503,-3.5503,-3.5503,-3.5503,-3.5363,-3.4823,-3.4553,-3.425,-3.3727,-3.274,-3.2076,-3.2098,-3.1873,-3.1716,-3.1787,-3.1586,-3.1475,-3.1575,-3.1124,-3.0832,-3.0832,-3.0618,-3.0511,-3.0511,-3.0511,-3.0511,-3.0511,-3.0725,-3.0832,-3.0832,-3.1635,-3.2028,-3.2045,-3.2616,-3.3009,0.0,0.0,-2.7383,-2.813,-2.9914,-3.1477,-3.1477,-3.21,-3.2829,-3.3574,-3.3176,-3.2911,-3.3657,-3.3789,-3.3806,-3.3852,-3.5824,-3.6947,-3.5807,-3.7057,-3.7742,-3.6952,-3.6882,-3.7111,0.0,-3.8344,-3.9147,-3.986,-4.0681,-4.1484,-4.2251,-4.2287,-4.2287,-4.2287,-4.1813,-4.177,-4.2287,-4.1311,-4.1311,-4.2287,-4.177,-4.1516,-4.1534,-4.1019,-4.0849,-4.0849,-4.0849,-4.0849,-4.0754,-4.0252,-4.0053,-4.0003,-3.9556,-3.9362,-3.9362,-3.9362,-4.0103,-4.1041,-4.0577,-4.04,-4.04,-4.04,-4.04,-4.0343,-3.9974,-3.9884,-3.971,-3.8912,-3.7878,-3.7035,-3.7,-3.6192,-3.5337,-3.5337,-3.5337,-3.5337,-3.5291,-3.5291,-3.5291,-3.5291,-3.5291,-3.5291,-3.5258,-3.4688,-3.4203,-3.4186,-3.3483,-3.2739,-3.2184,-3.1331,-3.0878,-3.1295,-3.1528,-3.1842,-3.2248,-3.1909,-3.1653,-3.1653,-3.0939,-3.0511,-3.0511,-3.0511,-3.0511,-3.0511,-3.126,-3.1653,-3.1671,-3.2456,-3.288,-3.2848,-3.2898,-3.3312,0.0,0.0,-2.8986,-3.0228,-3.1802,-3.3061,-3.3061,-3.3243,-3.3491,-3.374,-3.2829,-3.2067,-3.2299,-3.2348,-3.2586,-3.3403,-3.4774,-3.5814,-3.5968,-3.709,-3.7359,-3.5937,-3.6596,0.0,0.0,0.0,0.0,-3.986,-4.0646,-4.1448,-4.2251,-4.1959,-4.177,-4.177,-4.1311,-4.1265,-4.1753,-4.1428,-4.1428,-4.1753,-4.1265,-4.1036,-4.1036,-4.0849,-4.0611,-4.0302,-4.0659,-4.0417,-3.9799,-3.9969,-3.9833,-3.9504,-3.9379,-3.9272,-3.9272,-3.9272,-3.9556,-3.9868,-3.9747,-3.9644,-3.9644,-3.9644,-3.9644,-3.9645,-3.9531,-3.9497,-3.9345,-3.8702,-3.8233,-3.7732,-3.6804,-3.6306,-3.5911,-3.5408,-3.5291,-3.5291,-3.5291,-3.5291,-3.5291,-3.5291,-3.5291,-3.5291,-3.5291,-3.509,-3.471,-3.4163,-3.3,-3.2117,-3.1909,-3.11,-3.0634,-3.0757,-3.1083,-3.1452,-3.1877,-3.2038,-3.2199,-3.2491,-3.2224,-3.2081,-3.2081,-3.2081,-3.2081,-3.2081,-3.2349,-3.2491,-3.2491,-3.2791,-3.2916,-3.2902,-3.3437,-3.3847,0.0,-2.9102,-3.0559,-3.2034,-3.3309,-3.4121,-3.3856,-3.3789,-3.364,-3.3127,-3.1851,-3.0782,-3.0782,-3.041,-3.0708,-3.2671,-3.4158,-3.5368,-3.6258,-3.757,-3.7894,-3.6319,-3.6953,-3.7229,0.0,0.0,0.0,-3.9642,-4.0405,-4.1186,-4.1966,-4.1534,-4.1248,-4.1248,-4.0784,-4.0737,-4.1265,-4.0879,-4.0814,-4.0955,-4.0642,-4.0497,-4.0497,-4.0319,-4.0087,-3.9782,-4.012,-3.9901,-3.9325,-3.9644,-3.954,-3.9272,-3.9272,-3.9272,-3.9272,-3.9272,-3.9272,-3.9272,-3.9272,-3.9272,-3.9272,-3.9272,-3.9272,-3.9272,-3.9272,-3.9272,-3.9226,-3.8814,-3.8534,-3.8134,-3.7253,-3.6652,-3.6135,-3.5652,-3.5335,-3.5152,-3.5152,-3.5152,-3.5152,-3.5152,-3.5152,-3.5152,-3.5152,-3.5152,-3.4985,-3.4409,-3.3311,-3.2303,-3.1788,-3.1248,-3.0766,-3.0543,-3.0861,-3.1184,-3.1452,-3.1985,-3.242,-3.2672,-3.2802,-3.2916,-3.2916,-3.2916,-3.2916,-3.2916,-3.2916,-3.2916,-3.2916,-3.3169,-3.3312,-3.3348,-3.4133,-3.465,-2.9135,-3.0609,-3.2083,-3.3491,-3.4336,-3.4651,-3.3955,-3.3673,-3.3176,-3.1802,-3.0278,-2.9185,0.0,0.0,-2.8381,-3.1607,-3.3911,-3.5597,-3.653,-3.8413,-3.9191,0.0,0.0,0.0,0.0,0.0,0.0,-3.9322,0.0,-4.0727,-4.1437,-4.1036,-4.0754,-4.0754,-4.0252,-4.0203,-4.0754,-3.9799,-3.9556,-4.0003,-3.9952,-3.9952,-3.9952,-3.9504,-3.9272,-3.9272,-3.9272,-3.9272,-3.9272,-3.9272,-3.9272,-3.9272,-3.9272,-3.9272,-3.9272,-3.9272,-3.9272,-3.9272,-3.9272,-3.9272,-3.9272,-3.9272,-3.9272,-3.9272,-3.9272,-3.9272,-3.9272,-3.9272,-3.8791,-3.8261,-3.8228,-3.7168,-3.6108,-3.6075,-3.5495,-3.4965,-3.4965,-3.4932,-3.4899,-3.4899,-3.4899,-3.4899,-3.4899,-3.4899,-3.4899,-3.4899,-3.4286,-3.3342,-3.1918,-3.1626,-3.1312,-3.0642,-3.0878,-3.1083,-3.1123,-3.1823,-3.2283,-3.2283,-3.2672,-3.2916,-3.2916,-3.2916,-3.2916,-3.2916,-3.2952,-3.2969,-3.2969,-3.3776,-3.4169,-3.4169,-3.4936,-3.5685,-3.0659,-3.2133,-3.3458,-3.4386,-3.4336,-3.4021,-3.3839,-3.21,-3.0427,-3.0046,-2.7959,-2.6203,-2.6203,0.0,0.0,-2.9826,-3.2854,0.0,-3.6054,-3.8054,0.0,0.0,0.0,-3.8252,-3.8666,-3.9205,0.0,0.0,-4.0115,-4.0727,-4.1437,-4.0672,-4.0203,-4.0203,-3.9731,-3.9679,-4.0203,-3.9969,-3.9868,-4.0003,-3.9644,-3.9451,-3.9451,-3.9362,-3.9272,-3.9272,-3.9272,-3.9272,-3.9272,-3.9272,-3.9272,-3.9272,-3.9272,-3.9272,-3.9272,-3.9272,-3.9272,-3.9272,-3.9272,-3.9272,-3.9272,-3.9272,-3.9272,-3.9272,-3.9272,-3.9272,-3.9272,-3.9272,-3.9139,-3.8874,-3.8344,-3.793,-3.75,-3.6953,-3.6257,-3.5727,-3.5727,-3.5297,-3.4899,-3.4899,-3.4899,-3.4899,-3.4899,-3.4899,-3.4899,-3.4899,-3.4733,-3.4286,-3.3359,-3.2299,-3.151,-3.1355,-3.0925,-3.0781,-3.1083,-3.1565,-3.1985,-3.2283,-3.2672,-3.2916,-3.2916,-3.2916,-3.2916,-3.2916,-3.3491,-3.3794,-3.3794,-3.4561,-3.4936,-3.4954,-3.5739,-3.6203,-3.2166,-3.3408,-3.4369,-3.48,-3.4336,-3.3541,-3.258,-3.0824,-2.8969,-2.7363,-2.574,0.0,0.0,0.0,0.0,0.0,0.0,0.0,-3.6031,-3.792,-3.8974,0.0,-3.8567,0.0,-3.9139,-3.9559,-3.9911,0.0,-4.044,-4.0659,-4.0827,-4.0103,-3.9679,-3.9679,-3.9415,-3.9415,-3.9679,-3.9679,-3.9679,-3.9679,-3.9415,-3.9272,-3.9272,-3.9272,-3.9272,-3.9272,0.0,-3.9272,-3.9272,-3.9272,-3.9272,-3.9272,-3.9272,-3.9272,-3.9272,-3.9272,-3.9272,-3.9272,-3.9272,-3.9272,-3.9272,-3.9272,-3.9272,-3.9272,-3.9272,-3.9272,-3.9272,-3.9272,-3.9272,-3.9172,-3.8775,-3.8444,-3.8112,-3.7698,-3.7036,-3.639,-3.6075,-3.5678,-3.5297,-3.4965,-3.4899,-3.4899,-3.4899,-3.4899,-3.4899,-3.4899,-3.4899,-3.475,-3.4336,-3.3276,-3.2448,-3.2133,-3.1719,-3.1539,-3.1775,-3.2366,-3.2651,-3.2525,-3.3085,-3.3419,-3.3419,-3.3419,-3.358,-3.3901,-3.4347,-3.4597,-3.4597,-3.5364,-3.5739,-3.5757,-3.6542,-3.6916,-3.3541,-3.4402,-3.4883,-3.4767,-3.4121,-3.2945,-3.0858,-2.9499,-2.7777,-2.453,0.0,0.0,-2.1864,0.0,-2.3964,-2.73,0.0,-3.2442,-3.6089,-3.7793,-3.8824,-3.9279,-3.9272,-3.9504,-3.9952,-4.0003,-4.0203,-4.0659,-4.0707,-4.0497,-4.0003,-3.954,-3.9272,-3.9272,-3.9272,-3.9272,-3.9272,-3.9272,-3.9272,-3.9272,-3.9272,-3.9272,-3.9272,-3.9272,-3.9272,-3.9272,-3.9272,-3.9272,-3.9272,-3.9272,-3.9272,-3.9272,-3.9272,-3.9272,-3.9272,-3.9272,-3.9272,-3.9272,-3.9272,-3.9272,-3.9272,-3.9272,-3.9272,-3.9272,-3.9272,-3.9272,-3.9272,-3.9272,-3.9272,-3.9272,-3.9272,-3.8825,-3.8361,-3.8361,-3.7798,-3.7069,-3.6439,-3.6141,-3.5777,-3.5032,-3.4899,-3.4899,-3.4899,-3.4899,-3.4899,-3.4899,-3.4899,-3.4899,-3.4899,-3.4253,-3.3541,-3.2895,-3.2746,-3.268,-3.268,-3.3522,-3.3714,-3.2986,-3.3776,-3.4258,-3.4258,-3.4258,-3.4561,-3.5204,-3.5311,-3.5364,-3.5364,-3.6167,-3.656,-3.6577,-3.7255,-3.7577,-3.4303,-3.48,-3.475,-3.4137,-3.2978,-3.157,-2.998,-2.7181,0.0,0.0,0.0,-2.0489,-2.082,-2.198,0.0,-2.6928,0.0,0.0,0.0,0.0,-3.7867,0.0,0.0,0.0,0.0,0.0,0.0,0.0,0.0,-4.0103,-4.0003,-3.954,-3.9272,-3.9272,-3.9272,-3.9272,-3.9272,-3.9272,-3.9272,-3.9272,-3.9272,-3.9272,-3.9272,-3.9272,-3.9272,-3.9272,-3.9272,0.0,-3.9272,-3.9272,-3.9272,-3.9272,-3.9272,-3.9272,-3.9272,-3.9272,-3.9272,-3.9272,-3.9272,-3.9272,-3.9272,-3.9272,-3.9272,-3.9272,-3.9272,-3.9272,-3.9272,-3.9272,-3.9272,-3.9272,-3.9272,-3.9189,-3.909,-3.909,-3.8543,-3.798,-3.7864,-3.687,-3.5777,-3.5032,-3.4899,-3.4899,-3.4899,-3.4899,-3.4899,-3.4899,-3.4899,-3.4899,-3.4899,-3.4253,-3.374,-3.3607,-3.3044,-3.268,-3.268,-3.3522,-3.3955,-3.3818,-3.457,-3.5025,-3.5025,-3.5025,-3.5079,-3.5204,-3.5846,-3.6185,-3.6185,-3.6988,-3.738,-3.738,-3.7523,-3.7577,-3.3922,-3.4601,-3.4717,-3.3972,-3.2696,-3.104,-2.8804,0.0,0.0,0.0,0.0,-1.9468,-1.9081,0.0,0.0,0.0,0.0,0.0,0.0,0.0,0.0,0.0,0.0,0.0,0.0,0.0,0.0,0.0,0.0,-3.9644,-3.9644,-3.9415,-3.9272,-3.9272,-3.9272,-3.9272,-3.9272,-3.9272,-3.9272,-3.9272,-3.9272,-3.9272,-3.9272,-3.9272,-3.9272,-3.9272,-3.9272,0.0,-3.9272,-3.9272,-3.9272,-3.9272,-3.9272,-3.9272,-3.9272,-3.9272,-3.9272,-3.9272,-3.9272,-3.9272,-3.9272,-3.9272,-3.9272,-3.9272,-3.9272,-3.9272,-3.9272,-3.9272,-3.9272,-3.9272,-3.9272,-3.9272,-3.9272,-3.9272,-3.8725,-3.8212,-3.8212,-3.7052,-3.5893,-3.5545,-3.5164,-3.4899,-3.4899,-3.4899,-3.4899,-3.4899,-3.4899,-3.4899,-3.4899,-3.4584,-3.4369,-3.4369,-3.4054,-3.3839,-3.3839,-3.4462,-3.4778,-3.4588,-3.5122,-3.5581,-3.5828,-3.5828,-3.6024,-3.6435,-3.6827,-3.7006,-3.7023,-3.7398,-3.7577,-3.7577,-3.7577,-3.7577,-3.3359,-3.422,-3.4485,-3.374,-3.2348,-3.0377,-2.7479,-2.4978,0.0,0.0,0.0,-1.8866,-1.7888,0.0,0.0,0.0,0.0,0.0,0.0,0.0,0.0,0.0,0.0,0.0,0.0,0.0,0.0,0.0,0.0,0.0,-3.9272,-3.9272,-3.9272,-3.9272,-3.9272,-3.9272,-3.9272,-3.9272,-3.9272,-3.9272,-3.9272,-3.9272,-3.9272,-3.9272,-3.9272,-3.9272,-3.9272,0.0,0.0,-3.9272,-3.9272,-3.9272,-3.9272,-3.9272,-3.9272,-3.9272,-3.9272,-3.9272,-3.9272,-3.9272,-3.9272,-3.9272,-3.9272,-3.9272,-3.9272,-3.9272,-3.9272,-3.9272,-3.9272,-3.9272,-3.9272,-3.9272,-3.9272,-3.9272,-3.8858,-3.8394,-3.8245,-3.7301,-3.639,-3.6059,-3.5528,-3.5081,-3.4932,-3.4899,-3.4899,-3.4899,-3.4899,-3.4899,-3.4899,-3.4899,-3.4899,-3.4899,-3.4899,-3.4899,-3.4899,-3.5316,-3.5511,-3.5214,-3.5675,-3.6119,-3.6487,-3.6613,-3.6934,-3.7577,-3.7577,-3.7577,-3.7577,-3.7577,-3.7577,-3.7577,-3.7577,-3.7577,-3.321,-3.3839,-3.3707,-3.2978,-3.1189,-2.8853,-2.5971,0.0,0.0,0.0,-1.812,-1.7839,-1.8336,0.0,0.0,0.0,0.0,0.0,0.0,0.0,0.0,0.0,0.0,0.0,0.0,0.0,0.0,0.0,0.0,0.0,-3.9272,-3.9272,-3.9272,-3.9272,-3.9272,-3.9272,-3.9272,-3.9272,-3.9272,-3.9272,-3.9272,-3.9272,-3.9272,-3.9272,-3.9272,-3.9272,-3.9272,0.0,0.0,-3.9272,-3.9272,-3.9272,-3.9272,-3.9272,-3.9272,-3.9272,-3.9272,-3.9272,-3.9272,-3.9272,-3.9272,-3.9272,-3.9272,-3.9272,-3.9272,-3.9272,-3.9272,-3.9272,-3.9272,-3.9272,-3.9272,-3.9272,-3.9272,-3.9272,-3.9222,-3.9007,-3.8344,-3.8096,-3.7615,-3.6257,-3.5959,-3.5694,-3.5015,-3.4899,-3.4899,-3.4899,-3.4899,-3.4899,-3.4899,-3.4899,-3.4899,-3.4899,-3.4899,-3.4899,-3.4899,-3.5316,-3.5599,-3.5576,-3.6336,-3.6794,-3.6833,-3.725,-3.7505,-3.7577,-3.7577,-3.7577,-3.7577,-3.7577,-3.7577,-3.7577,-3.7577,-3.7577,-3.1355,-3.2464,-3.2945,-3.2232,-3.0394,-2.8141,-2.5673,0.0,0.0,-1.879,-1.7971,-1.7574,-1.7839,-1.8236,-1.9022,0.0,-2.1532,0.0,0.0,0.0,0.0,0.0,0.0,0.0,0.0,0.0,0.0,0.0,0.0,0.0,-3.9272,-3.9272,-3.9272,-3.9272,-3.9272,-3.9272,-3.9272,-3.9272,-3.9272,-3.9272,-3.9272,-3.9272,-3.9272,-3.9272,-3.9272,-3.9272,-3.9272,0.0,0.0,-3.9272,-3.9272,-3.9272,-3.9272,-3.9272,-3.9272,-3.9272,-3.9272,-3.9272,-3.9272,-3.9272,-3.9272,-3.9272,-3.9272,-3.9272,-3.9272,-3.9272,-3.9272,-3.9272,-3.9272,-3.9272,-3.9272,-3.9272,-3.9272,-3.9272,-3.9272,-3.9206,-3.8924,-3.8162,-3.7367,-3.6787,-3.5959,-3.5247,-3.4949,-3.4899,-3.4899,-3.4899,-3.4899,-3.4899,-3.4899,-3.4899,-3.4899,-3.4899,-3.4899,-3.4899,-3.4899,-3.5071,-3.5391,-3.5933,-3.6274,-3.6724,-3.7281,-3.7503,-3.7577,-3.7577,-3.7577,-3.7577,-3.7577,-3.7577,-3.7577,-3.7577,-3.7577,-3.7577,-2.9433,-3.0775,-3.1603,-3.109,-2.935,-2.7164,0.0,0.0,-1.9959,-1.8501,-1.7822,-1.7515,-1.7515,-1.7888,-1.8518,0.0,-2.0224,-2.1797,-2.4978,0.0,0.0,0.0,0.0,0.0,0.0,0.0,0.0,0.0,0.0,0.0,-3.9272,-3.9272,-3.9272,-3.9272,-3.9272,-3.9272,-3.9272,-3.9272,-3.9272,-3.9272,-3.9272,-3.9272,-3.9272,-3.9272,-3.9272,-3.9272,-3.9272,0.0,0.0,-3.9272,-3.9272,-3.9272,-3.9272,-3.9272,-3.9272,-3.9272,-3.9272,-3.9272,-3.9272,-3.9272,-3.9272,-3.9272,-3.9272,-3.9272,-3.9272,-3.9272,-3.9272,-3.9272,-3.9272,-3.9272,-3.9272,-3.9272,-3.9272,-3.9272,-3.9272,-3.9272,-3.9272,-3.8295,-3.7367,-3.7152,-3.6092,-3.5148,-3.4932,-3.4899,-3.4899,-3.4899,-3.4899,-3.4899,-3.4899,-3.4899,-3.4899,-3.4899,-3.4899,-3.4899,-3.4899,-3.4899,-3.5224,-3.5977,-3.613,-3.6563,-3.7374,-3.754,-3.7577,-3.7577,-3.7577,-3.7577,-3.7577,-3.7577,-3.7577,-3.7577,-3.7577,-3.7577,-2.781,-2.892,-2.945,-2.9433,-2.7827,-2.564,0.0,-2.1218,-1.9204,-1.7789,-1.7515,-1.7515,-1.7515,-1.7515,-1.7955,-1.9369,-2.0224,-2.198,-2.5673,0.0,0.0,0.0,0.0,0.0,0.0,0.0,0.0,0.0,0.0,0.0,-3.9272,-3.9272,-3.9272,-3.9272,-3.9272,-3.9272,-3.9272,-3.9272,-3.9272,-3.9272,-3.9272,-3.9272,-3.9272,-3.9272,-3.9272,-3.9272,0.0,0.0,0.0,-3.9272,-3.9272,-3.9272,-3.9272,-3.9272,-3.9272,-3.9272,-3.9272,-3.9272,-3.9272,-3.9272,-3.9272,-3.9272,-3.9272,-3.9272,-3.9272,-3.9272,-3.9272,-3.9272,-3.9272,-3.9272,-3.9272,-3.9272,-3.9272,-3.9272,-3.9272,-3.9272,-3.9272,-3.8709,-3.798,-3.7251,-3.6506,-3.576,-3.5032,-3.4899,-3.4899,-3.4899,-3.4899,-3.4899,-3.4899,-3.4899,-3.4899,-3.4899,-3.4899,-3.4899,-3.4899,-3.4899,-3.5102,-3.5571,-3.5977,-3.6399,-3.69,-3.7356,-3.7577,-3.7577,-3.7577,-3.7577,-3.7577,-3.7577,-3.7577,-3.7577,-3.7577,-3.7577,-2.4299,-2.5524,-2.6352,-2.5839,-2.4829,-2.3503,-2.1781,-2.0472,-1.9187,-1.7773,-1.7515,-1.7515,-1.7515,-1.7515,-1.8294,-2.0704,0.0,0.0,0.0,0.0,0.0,0.0,0.0,0.0,0.0,0.0,0.0,0.0,0.0,0.0,-3.9272,-3.9272,-3.9272,-3.9272,-3.9272,-3.9272,-3.9272,-3.9272,-3.9272,-3.9272,-3.9272,-3.9272,-3.9272,-3.9272,-3.9272,0.0,0.0,0.0,0.0,-3.9272,-3.9272,-3.9272,-3.9272,-3.9272,-3.9272,-3.9272,-3.9272,-3.9272,-3.9272,-3.9272,-3.9272,-3.9272,-3.9272,-3.9272,-3.9272,-3.9272,-3.9272,-3.9272,-3.9272,-3.9272,-3.9272,-3.9272,-3.9272,-3.9272,-3.9272,-3.9272,-3.9272,-3.8709,-3.7996,-3.7251,-3.6506,-3.5777,-3.5032,-3.4899,-3.4899,-3.4899,-3.4899,-3.4899,-3.4899,-3.4899,-3.4899,-3.4899,-3.4899,-3.4899,-3.4899,-3.4899,-3.5118,-3.5588,-3.5977,-3.6399,-3.686,-3.7356,-3.7577,-3.7577,-3.7577,-3.7577,-3.7577,-3.7577,-3.7577,-3.7577,-3.7577,-3.788,0.0,-2.2725,-2.3735,-2.3272,-2.2609,-2.1748,-2.0555,-1.9727,-1.8856,-1.7723,-1.7515,-1.7515,-1.7515,-1.7515,-1.8278,-2.0588,0.0,0.0,0.0,0.0,0.0,0.0,0.0,0.0,0.0,0.0,0.0,0.0,0.0,0.0,-3.9272,-3.9272,-3.9272,-3.9272,-3.9272,-3.9272,-3.9272,-3.9272,-3.9272,-3.9272,-3.9272,-3.9272,-3.9272,-3.9272,-3.9272,0.0,0.0,0.0,0.0,-3.9272,-3.9272,-3.9272,-3.9272,-3.9272,-3.9272,-3.9272,-3.9272,-3.9272,-3.9272,-3.9272,-3.9272,-3.9272,-3.9272,-3.9272,-3.9272,-3.9272,-3.9272,-3.9272,-3.9272,-3.9272,-3.9272,-3.9272,-3.9272,-3.9272,-3.9272,-3.9272,-3.9272,-3.8709,-3.7996,-3.7251,-3.6506,-3.5777,-3.5032,-3.4899,-3.4899,-3.4899,-3.4899,-3.4899,-3.4899,-3.4899,-3.4899,-3.4899,-3.4899,-3.4899,-3.4899,-3.4899,-3.5118,-3.5588,-3.5977,-3.6399,-3.686,-3.7356,-3.7577,-3.7577,-3.7577,-3.7577,-3.7577,-3.7577,-3.7577,-3.7577,-3.7577,-3.8023,0.0,-2.029,-2.1383,-2.1334,-2.0853,-2.0191,-1.9452,-1.884,0.0,-1.7557,-1.7465,-1.7531,-1.7623,-1.7614,-1.8087,-1.965,0.0,0.0,0.0,0.0,0.0,0.0,0.0,0.0,0.0,0.0,0.0,0.0,0.0,0.0,-3.9272,-3.9272,-3.9272,-3.9272,-3.9272,-3.9272,-3.9272,-3.9272,-3.9272,-3.9272,-3.9272,-3.9272,-3.9272,-3.9272,-3.9272,0.0,0.0,0.0,0.0,-3.9272,-3.9272,-3.9272,-3.9272,-3.9272,-3.9272,-3.9272,-3.9272,-3.9272,-3.9272,-3.9272,-3.9272,-3.9272,-3.9272,-3.9272,-3.9272,-3.9272,-3.9272,-3.9272,-3.9272,-3.9272,-3.9272,-3.9272,-3.9272,-3.9272,-3.9272,-3.9272,-3.9272,-3.8758,-3.8079,-3.7334,-3.6589,-3.5843,-3.5098,-3.4932,-3.4899,-3.4899,-3.4899,-3.4899,-3.4899,-3.4899,-3.4899,-3.4899,-3.4899,-3.4899,-3.4899,-3.4899,-3.5118,-3.5526,-3.5933,-3.6399,-3.6821,-3.7319,-3.7577,-3.7577,-3.7577,-3.7577,-3.7577,-3.7577,-3.7577,-3.7577,-3.7648,-3.8112,-1.5284,0.0,-1.7531,-1.6967,-1.7117,-1.7233,0.0,-1.7044,-1.7524,0.0,0.0,0.0,0.0,0.0,0.0,0.0,0.0,0.0,0.0,0.0,0.0,0.0,0.0,0.0,0.0,0.0,0.0,0.0,0.0,-3.9272,-3.9272,-3.9272,-3.9272,-3.9272,-3.9272,-3.9272,-3.9272,-3.9272,-3.9272,-3.9272,-3.9272,-3.9272,-3.9272,-3.9272,-3.9272,0.0,0.0,0.0,-3.9272,-3.9272,-3.9272,-3.9272,-3.9272,-3.9272,-3.9272,-3.9272,-3.9272,-3.9272,-3.9272,-3.9272,-3.9272,-3.9272,-3.9272,-3.9272,-3.9272,-3.9272,-3.9272,-3.9272,-3.9272,-3.9272,-3.9272,-3.9272,-3.9272,-3.9272,-3.9272,-3.9272,-3.9272,-3.9139,-3.8808,-3.8096,-3.7367,-3.6622,-3.5876,-3.5263,-3.4899,-3.4899,-3.4899,-3.4899,-3.4899,-3.4899,-3.4899,-3.4899,-3.4899,-3.4899,-3.4899,-3.4899,-3.4947,-3.5071,-3.5759,-3.6274,-3.634,-3.715,-3.7577,-3.7577,-3.7577,-3.7577,-3.7577,-3.7577,-3.7577,-3.7594,-3.8237,-3.8933,-1.3698,-1.5271,-1.6818,-1.642,-1.6828,-1.7259,-1.6845,0.0,0.0,0.0,0.0,0.0,0.0,0.0,0.0,0.0,0.0,0.0,0.0,0.0,0.0,0.0,0.0,0.0,0.0,0.0,0.0,0.0,0.0,-3.9272,-3.9272,-3.9272,-3.9272,-3.9272,-3.9272,-3.9272,-3.9272,-3.9272,-3.9272,-3.9272,-3.9272,-3.9272,-3.9272,-3.9272,-3.9272,0.0,0.0,0.0,-3.9272,-3.9272,-3.9272,-3.9272,-3.9272,-3.9272,-3.9272,-3.9272,-3.9272,-3.9272,-3.9272,-3.9272,-3.9272,-3.9272,-3.9272,-3.9272,-3.9272,-3.9272,-3.9272,-3.9272,-3.9272,-3.9272,-3.9272,-3.9272,-3.9272,-3.9272,-3.9272,-3.9272,-3.9272,-3.9272,-3.9056,-3.8344,-3.7897,-3.7268,-3.6191,-3.5678,-3.5297,-3.4949,-3.4899,-3.4899,-3.4899,-3.4899,-3.4899,-3.4899,-3.4899,-3.4899,-3.4899,-3.4899,-3.4899,-3.4899,-3.5554,-3.602,-3.6172,-3.69,-3.7374,-3.7594,-3.7577,-3.7577,-3.7577,-3.7577,-3.7773,-3.8148,-3.8611,-3.9397,-1.3385,-1.5404,-1.7415,-1.7077,-1.7673,-1.8336,-1.822,0.0,0.0,0.0,0.0,0.0,0.0,0.0,0.0,0.0,0.0,0.0,0.0,0.0,0.0,0.0,0.0,0.0,0.0,0.0,0.0,0.0,0.0,-3.9272,-3.9272,-3.9272,-3.9272,-3.9272,-3.9272,-3.9272,-3.9272,-3.9272,-3.9272,-3.9272,-3.9272,-3.9272,-3.9272,-3.9272,-3.9272,-3.9272,0.0,0.0,-3.9272,-3.9272,-3.9272,-3.9272,-3.9272,-3.9272,-3.9272,-3.9272,-3.9272,-3.9272,-3.9272,-3.9272,-3.9272,-3.9272,-3.9272,-3.9272,-3.9272,-3.9272,-3.9272,-3.9272,-3.9272,-3.9272,-3.9272,-3.9272,-3.9272,-3.9272,-3.9272,-3.9272,-3.9272,-3.9272,-3.9106,-3.8493,-3.8295,-3.7814,-3.6555,-3.6158,-3.5794,-3.5164,-3.4965,-3.4899,-3.4899,-3.4899,-3.4899,-3.4899,-3.4899,-3.4899,-3.4899,-3.4899,-3.4899,-3.4899,-3.5316,-3.582,-3.6316,-3.6684,-3.7111,-3.7577,-3.7577,-3.7648,-3.7773,-3.7773,-3.8183,-3.8986,-3.9093,-3.986,-1.4635,-1.6155,-1.6994,-1.5172,-1.6182,-1.7498,0.0,0.0,0.0,0.0,0.0,0.0,0.0,0.0,0.0,0.0,0.0,0.0,0.0,0.0,0.0,0.0,0.0,0.0,0.0,0.0,0.0,0.0,0.0,-3.9272,-3.9272,-3.9272,-3.9272,-3.9272,-3.9272,-3.9272,-3.9272,-3.9272,-3.9272,-3.9272,-3.9272,-3.9272,-3.9272,-3.9272,-3.9272,-3.9272,0.0,-3.9272,-3.9272,-3.9272,-3.9272,-3.9272,-3.9272,-3.9272,-3.9272,-3.9272,-3.9272,-3.9272,-3.9272,-3.9272,-3.9272,-3.9272,-3.9272,-3.9272,-3.9272,-3.9272,-3.9272,-3.9272,-3.9272,-3.9272,-3.9272,-3.9272,-3.9272,-3.9272,-3.9272,-3.9272,-3.9272,-3.9272,-3.9239,-3.9123,-3.8626,-3.8146,-3.7914,-3.6837,-3.5959,-3.5843,-3.5297,-3.4899,-3.4899,-3.4899,-3.4899,-3.4899,-3.4899,-3.4899,-3.4899,-3.4899,-3.4899,-3.4899,-3.5316,-3.595,-3.6781,-3.686,-3.7111,-3.7577,-3.7577,-3.7933,-3.8629,-3.8629,-3.9004,-3.9753,-4.0431,-4.0877,-1.3989,-1.5479,-1.6613,-1.5636,-1.7309,-1.9256,0.0,0.0,0.0,0.0,0.0,0.0,0.0,0.0,0.0,0.0,0.0,0.0,0.0,0.0,0.0,0.0,0.0,0.0,0.0,0.0,0.0,0.0,0.0,0.0,-3.8096,-3.8096,-3.8278,-3.8692,-3.8311,-3.8477,-3.9272,-3.8891,-3.8891,-3.9272,-3.9272,-3.9272,-3.9272,-3.9272,-3.9272,-3.9272,0.0,-3.9272,-3.9272,-3.9272,-3.9272,-3.9272,-3.9272,-3.9272,-3.9272,-3.9272,-3.9272,-3.9272,-3.9272,-3.9272,-3.9272,-3.9272,-3.9272,-3.9272,-3.9272,-3.9272,-3.9272,-3.9272,-3.9272,-3.9272,-3.9272,-3.9272,-3.9272,-3.9272,-3.9272,-3.9272,-3.9272,-3.9272,-3.9272,-3.9272,-3.9007,-3.8676,-3.8278,-3.7317,-3.6456,-3.6059,-3.5363,-3.4899,-3.4899,-3.4899,-3.4899,-3.4899,-3.4899,-3.4899,-3.4899,-3.4899,-3.4899,-3.4899,-3.5316,-3.5864,-3.6481,-3.6781,-3.7111,-3.7577,-3.7484,-3.7838,-3.8581,-3.8447,-3.9027,-4.0194,-4.0565,-4.0954,-1.3607,-1.5034,-1.647,-1.6818,0.0,0.0,0.0,0.0,0.0,0.0,0.0,0.0,0.0,0.0,0.0,0.0,0.0,0.0,0.0,0.0,0.0,0.0,0.0,0.0,0.0,0.0,0.0,0.0,0.0,0.0,-3.7102,-3.7102,-3.7367,-3.793,-3.74,-3.7632,-3.8758,-3.8228,-3.8311,-3.9023,-3.9023,-3.8941,-3.8758,-3.8758,-3.8858,-3.9023,-3.9023,-3.9123,-3.9272,-3.9272,-3.9272,-3.9272,-3.9272,-3.9272,-3.9272,-3.9272,-3.9272,-3.9272,-3.9272,-3.9272,-3.9272,-3.9272,-3.9272,-3.9272,-3.9272,-3.9272,-3.9272,-3.9272,-3.9272,-3.9272,-3.9272,-3.9272,-3.9272,-3.9272,-3.9272,-3.9272,-3.9272,-3.9272,-3.9272,-3.9272,-3.9272,-3.9106,-3.8543,-3.7698,-3.692,-3.634,-3.5479,-3.4899,-3.4899,-3.4899,-3.4899,-3.4899,-3.4899,-3.4965,-3.5131,-3.5148,-3.523,-3.5396,-3.5592,-3.5785,-3.6062,-3.6613,-3.7141,-3.7603,-3.7544,-3.7962,-3.8858,-3.8696,-3.9357,-4.0666,-4.0666,-4.1025,-1.4864,-1.5808,-1.6708,-1.8021,0.0,0.0,0.0,0.0,0.0,0.0,0.0,0.0,0.0,0.0,0.0,0.0,0.0,0.0,0.0,0.0,0.0,0.0,0.0,0.0,0.0,0.0,0.0,0.0,0.0,0.0,-3.7102,-3.7102,-3.7135,-3.7185,-3.7135,-3.7152,-3.7268,-3.7218,-3.7549,-3.8295,-3.8295,-3.793,-3.7268,-3.7268,-3.7632,-3.8295,-3.8295,-3.8676,-3.9272,-3.9272,-3.9272,-3.9272,-3.9272,-3.9272,-3.9272,-3.9272,-3.9272,-3.9272,-3.9272,-3.9272,-3.9272,-3.9272,-3.9272,-3.9272,-3.9272,-3.9272,-3.9272,-3.9272,-3.9272,-3.9272,-3.9272,-3.9272,-3.9272,-3.9272,-3.9272,-3.9272,-3.9272,-3.9272,-3.9272,-3.9272,-3.9272,-3.9255,-3.9206,-3.803,-3.7085,-3.7036,-3.581,-3.4899,-3.4899,-3.4899,-3.4899,-3.4899,-3.4899,-3.5181,-3.586,-3.5926,-3.6224,-3.6903,-3.634,-3.5866,-3.565,-3.6502,-3.7214,-3.7701,-3.7924,-3.876,-4.027,-4.0227,-4.0666,-4.1516,-4.1516,-4.1552,-1.3879,-1.5541,-1.72,-1.7739,0.0,0.0,0.0,0.0,0.0,0.0,0.0,0.0,0.0,0.0,0.0,0.0,0.0,0.0,0.0,0.0,0.0,0.0,0.0,0.0,0.0,0.0,0.0,0.0,0.0,0.0,-3.5727,-3.563,-3.5844,-3.6307,-3.5778,-3.5959,-3.7001,-3.6488,-3.6455,-3.6837,-3.7317,-3.7384,-3.7102,-3.7102,-3.7268,-3.7533,-3.7533,-3.7682,-3.793,-3.793,-3.793,-3.798,-3.8444,-3.8891,-3.9272,-3.9272,-3.9272,-3.9272,-3.9272,-3.9272,-3.9272,-3.9272,-3.9272,-3.9272,-3.9272,-3.9272,-3.9272,-3.9272,-3.9272,-3.9272,-3.9272,-3.9272,-3.9272,-3.9272,-3.9272,-3.9272,-3.9272,-3.9272,-3.9272,-3.9272,-3.9272,-3.9272,-3.9272,-3.8079,-3.7102,-3.7102,-3.5843,-3.4899,-3.4899,-3.4899,-3.4851,-3.4787,-3.4739,-3.4855,-3.5135,-3.6092,-3.6886,-3.7294,-3.6851,-3.6622,-3.6801,-3.7271,-3.7792,-3.827,-3.8477,-3.912,-4.0201,-4.0033,-4.0388,-4.1152,-4.1152,-4.1152,-1.3576,-1.5637,-1.7896,0.0,0.0,0.0,0.0,0.0,0.0,0.0,0.0,0.0,0.0,0.0,0.0,0.0,0.0,0.0,0.0,0.0,0.0,0.0,0.0,0.0,0.0,0.0,0.0,0.0,0.0,0.0,0.0,-3.4691,-3.4873,-3.5383,-3.4808,-3.5038,-3.614,-3.5646,-3.5449,-3.5547,-3.6059,-3.6307,-3.6406,-3.6406,-3.6539,-3.6754,-3.6754,-3.6887,-3.7102,-3.7102,-3.7102,-3.7152,-3.7665,-3.8311,-3.8941,-3.8941,-3.9073,-3.9272,-3.9272,-3.9272,-3.9272,-3.9272,-3.9272,-3.9272,-3.9272,-3.9272,-3.9218,-3.9272,-3.9272,-3.9218,-3.9218,-3.9272,-3.9272,-3.9272,-3.9272,-3.9272,-3.9218,-3.9218,-3.9202,-3.9148,-3.9148,-3.9082,-3.8867,-3.781,-3.6867,-3.6636,-3.5547,-3.4787,-3.4787,-3.4787,-3.4756,-3.4691,-3.4594,-3.4758,-3.5218,-3.6289,-3.7211,-3.7896,-3.7633,-3.743,-3.7236,-3.77,-3.8108,-3.844,-3.8814,-3.9364,-4.0158,-4.0141,-4.0353,-4.0888,-4.0888,-4.0888,-1.4405,-1.6348,0.0,0.0,0.0,0.0,0.0,0.0,0.0,0.0,0.0,0.0,0.0,0.0,0.0,0.0,0.0,0.0,0.0,0.0,0.0,0.0,0.0,0.0,0.0,0.0,0.0,0.0,0.0,0.0,0.0,-3.4497,-3.4497,-3.4497,-3.4497,-3.4497,-3.4497,-3.4497,-3.4497,-3.4497,-3.4497,-3.4643,-3.4899,-3.4899,-3.5297,-3.5992,-3.5992,-3.6406,-3.7085,-3.7085,-3.7085,-3.7102,-3.7102,-3.7549,-3.8212,-3.8195,-3.8642,-3.9255,-3.9255,-3.9255,-3.9272,-3.9272,-3.9272,-3.9272,-3.9272,-3.9148,-3.9023,-3.9218,-3.9148,-3.9023,-3.9023,-3.9148,-3.9272,-3.9272,-3.9272,-3.9218,-3.9023,-3.9023,-3.8969,-3.8805,-3.8788,-3.8575,-3.7888,-3.7167,-3.643,-3.5709,-3.4972,-3.4513,-3.4497,-3.4497,-3.4546,-3.4578,-3.4546,-3.507,-3.6479,-3.6626,-3.7249,-3.8707,-3.8805,-3.815,-3.6692,-3.7609,-3.8077,-3.8112,-3.8772,-3.9474,-4.0305,-4.068,-4.0888,-4.0888,-4.0888,-4.0888,-1.4255,0.0,0.0,0.0,0.0,0.0,0.0,0.0,0.0,0.0,0.0,0.0,0.0,0.0,0.0,0.0,0.0,0.0,0.0,0.0,0.0,0.0,0.0,0.0,0.0,0.0,0.0,0.0,0.0,0.0,0.0,-3.4399,-3.4349,-3.4349,-3.425,-3.425,-3.4349,-3.4349,-3.4399,-3.4497,-3.4497,-3.4546,-3.4594,-3.4594,-3.4726,-3.4923,-3.4923,-3.5054,-3.5251,-3.5251,-3.5646,-3.6174,-3.6174,-3.6636,-3.7279,-3.7382,-3.7463,-3.7488,-3.7696,-3.7992,-3.8262,-3.8352,-3.8681,-3.9094,-3.8985,-3.8969,-3.8969,-3.8969,-3.8914,-3.886,-3.886,-3.8914,-3.8969,-3.8969,-3.8969,-3.8914,-3.886,-3.886,-3.8712,-3.8182,-3.8084,-3.7855,-3.7134,-3.6823,-3.6547,-3.6023,-3.5777,-3.5349,-3.4595,-3.4497,-3.4497,-3.4546,-3.4349,-3.4363,-3.4785,-3.6685,-3.8033,-3.8472,-3.8504,-3.8404,-3.8166,-3.827,-3.829,-3.8329,-3.9085,-3.9716,-4.0305,-4.0404,-4.0631,-4.0888,-4.0888,-4.0888,-1.5367,0.0,0.0,0.0,0.0,0.0,0.0,0.0,0.0,0.0,0.0,0.0,0.0,0.0,0.0,0.0,0.0,0.0,0.0,0.0,0.0,0.0,0.0,0.0,0.0,0.0,0.0,0.0,0.0,0.0,0.0,-3.425,-3.4201,-3.4201,-3.4151,-3.4151,-3.4201,-3.4201,-3.425,-3.4349,-3.4349,-3.4349,-3.4349,-3.4448,-3.4497,-3.4497,-3.4497,-3.4497,-3.4497,-3.4497,-3.4808,-3.5251,-3.5251,-3.5711,-3.6403,-3.6454,-3.66,-3.6744,-3.6898,-3.7143,-3.74,-3.7452,-3.7732,-3.8077,-3.8023,-3.8023,-3.8007,-3.7953,-3.81,-3.8194,-3.8194,-3.8526,-3.8805,-3.8805,-3.8805,-3.8805,-3.875,-3.875,-3.8635,-3.8117,-3.7416,-3.6878,-3.6812,-3.6486,-3.6192,-3.6163,-3.5656,-3.5068,-3.4415,-3.4349,-3.4349,-3.4349,-3.5224,-3.5801,-3.5801,-3.7404,-3.8391,-3.8391,-3.8391,-3.8448,-3.8655,-3.8504,-3.8391,-3.8391,-3.886,-3.9276,-3.9556,-4.0037,-4.0436,-4.0697,-4.084,-4.0888,0.0,0.0,0.0,0.0,0.0,0.0,0.0,0.0,0.0,0.0,0.0,0.0,0.0,0.0,0.0,0.0,0.0,0.0,0.0,0.0,0.0,0.0,0.0,0.0,0.0,0.0,0.0,0.0,0.0,0.0,0.0,-3.3906,-3.3906,-3.3906,-3.3906,-3.3906,-3.3906,-3.3906,-3.3906,-3.3906,-3.3987,-3.4003,-3.402,-3.4317,-3.4448,-3.4448,-3.4448,-3.4448,-3.4448,-3.4448,-3.4448,-3.4497,-3.4497,-3.4906,-3.5496,-3.5496,-3.5922,-3.6479,-3.6479,-3.6528,-3.6593,-3.6593,-3.6626,-3.6692,-3.6692,-3.6587,-3.6535,-3.6689,-3.6963,-3.7285,-3.7367,-3.8074,-3.875,-3.875,-3.875,-3.875,-3.8711,-3.8655,-3.8616,-3.8448,-3.6983,-3.5979,-3.6594,-3.5979,-3.5655,-3.6384,-3.5137,-3.4101,-3.4101,-3.4327,-3.4489,-3.4489,-3.6837,-3.8391,-3.8391,-3.8391,-3.8391,-3.8391,-3.8391,-3.8391,-3.8391,-3.8391,-3.8391,-3.8391,-3.8391,-3.8391,-3.8391,-3.9661,-4.0238,-4.0305,-4.0728,-4.0888,0.0,0.0,0.0,0.0,0.0,0.0,0.0,0.0,0.0,0.0,0.0,0.0,0.0,0.0,0.0,0.0,0.0,0.0,0.0,0.0,0.0,0.0,0.0,0.0,0.0,0.0,0.0,0.0,0.0,0.0,-3.2449,-3.2449,-3.2449,-3.2449,-3.2449,-3.2449,-3.2449,-3.2449,-3.2449,0.0,-3.3032,-3.3307,-3.3323,-3.3907,-3.4201,-3.4201,-3.4201,-3.4201,-3.4201,-3.4201,-3.425,-3.4349,-3.4349,-3.4447,-3.4578,-3.4693,-3.4676,-3.4672,-3.4922,-3.5181,-3.5516,-3.5671,-3.6062,-3.6519,-3.6393,-3.6446,-3.6548,-3.6869,-3.701,-3.7199,-3.7961,-3.8302,-3.8504,-3.8504,-3.8504,-3.8504,-3.8448,-3.8448,-3.8448,-3.8408,-3.8068,-3.7128,-3.5072,-3.4538,-3.5218,-3.7598,-3.5752,-3.4101,-3.4101,-3.6076,-3.7485,-3.7485,-3.8035,-3.8391,-3.8391,-3.8391,-3.8391,-3.8391,-3.8391,-3.8391,-3.8391,-3.8391,-3.8391,-3.8391,-3.8391,-3.8391,-3.8391,-3.9312,-3.9952,-4.0305,-4.0728,-4.0888,0.0,0.0,0.0,0.0,0.0,0.0,0.0,0.0,0.0,0.0,0.0,0.0,0.0,0.0,0.0,0.0,0.0,0.0,0.0,0.0,0.0,0.0,0.0,0.0,0.0,0.0,0.0,0.0,0.0,-3.2012,-3.2012,-3.2012,-3.2012,-3.2012,-3.2012,-3.2012,-3.2012,-3.2012,-3.2012,-3.2012,-3.2384,-3.2562,-3.2611,-3.3631,-3.4101,-3.4101,-3.4101,-3.4101,-3.4101,-3.4101,-3.4151,-3.4201,-3.4201,-3.4201,-3.4201,-3.43,-3.4201,-3.4101,-3.425,-3.4444,-3.4667,-3.4753,-3.5013,-3.5337,-3.525,-3.5286,-3.5386,-3.5578,-3.559,-3.5704,-3.6206,-3.6335,-3.6335,-3.6335,-3.6886,-3.7582,-3.8246,-3.8391,-3.7987,-3.661,-3.6335,-3.6303,-3.6173,-3.5007,-3.4603,-3.6125,-3.5056,-3.4603,-3.5979,-3.7469,-3.8391,-3.8391,-3.8391,-3.8391,-3.8391,-3.8391,-3.8391,-3.8391,-3.8391,-3.8391,-3.8391,-3.8391,-3.8391,-3.8391,-3.8391,-3.8391,-3.8391,-3.8805,-3.9418,-4.0154,-4.0485,-4.0745,0.0,0.0,0.0,0.0,0.0,0.0,0.0,0.0,0.0,0.0,0.0,0.0,0.0,0.0,0.0,0.0,0.0,0.0,0.0,0.0,0.0,0.0,0.0,0.0,0.0,0.0,0.0,0.0,0.0,-3.1639,-3.1639,-3.1639,-3.1639,-3.1639,-3.1639,-3.1639,-3.1639,-3.1639,-3.1639,-3.1639,-3.1753,-3.1882,-3.2044,-3.321,-3.3809,-3.3922,-3.4052,-3.4101,-3.4101,-3.4101,-3.4101,-3.4101,-3.4101,-3.4101,-3.4101,-3.4101,-3.4101,-3.4101,-3.4101,-3.4101,-3.4101,-3.4101,-3.4101,-3.4101,-3.4101,-3.4101,-3.4101,-3.4101,-3.4101,-3.4101,-3.4101,-3.4101,-3.4101,-3.4101,-3.504,-3.6238,-3.7404,-3.7663,-3.695,-3.4554,-3.4101,-3.4862,-3.7242,-3.5687,-3.4101,-3.4101,-3.4101,-3.5137,-3.8035,-3.8391,-3.8391,-3.8391,-3.8391,-3.8391,-3.8391,-3.8391,-3.8391,-3.8391,-3.8391,-3.8391,-3.8391,-3.8391,-3.8391,-3.8391,-3.8391,-3.8391,-3.8391,-3.8391,-3.886,-3.9749,-4.0221,-4.0583,0.0,0.0,0.0,0.0,0.0,0.0,0.0,0.0,0.0,0.0,0.0,0.0,0.0,0.0,0.0,0.0,0.0,0.0,0.0,0.0,0.0,0.0,0.0,0.0,0.0,0.0,0.0,0.0,-3.0194,-3.0194,-3.0194,-3.0194,-3.0194,-3.0194,-3.0194,-3.0194,-3.0194,-3.0194,-3.0194,-3.021,-3.0781,-3.1396,-3.2012,-3.2206,-3.2627,-3.3259,-3.3841,-3.4101,-3.4101,-3.4101,-3.4101,-3.4101,-3.4101,-3.4101,-3.4101,-3.4101,-3.4101,-3.4101,-3.4101,-3.4101,-3.4101,-3.4101,-3.4101,-3.4101,-3.4101,-3.4101,-3.4101,-3.4101,-3.4101,-3.4101,-3.4101,-3.4101,-3.4101,-3.4101,-3.4246,-3.4441,-3.4635,-3.4667,-3.4554,-3.4165,-3.4101,-3.4214,-3.4603,-3.4343,-3.4101,-3.4101,-3.4101,-3.5137,-3.8035,-3.8391,-3.8391,-3.8391,-3.8391,-3.8391,-3.8391,-3.8391,-3.8391,-3.8391,-3.8391,-3.8391,-3.8391,-3.8391,-3.8391,-3.8391,-3.8391,-3.8391,-3.8391,-3.8391,-3.8448,-3.8655,-4.0104,-4.0823,0.0,0.0,0.0,0.0,0.0,0.0,0.0,0.0,0.0,0.0,0.0,0.0,0.0,0.0,0.0,0.0,0.0,0.0,0.0,0.0,0.0,0.0,0.0,0.0,0.0,0.0,0.0,0.0,-2.9918,-2.9918,-2.9918,-2.9918,-2.9918,-2.9918,-2.9918,-2.9918,-2.9918,-2.9918,-2.9918,-2.9918,-3.0182,-3.0506,-3.083,-3.1218,-3.1801,-3.2514,-3.3226,-3.3534,-3.3566,-3.3939,-3.4101,-3.4101,-3.4101,-3.4101,-3.4101,-3.4101,-3.4101,-3.4101,-3.4101,-3.4101,-3.4101,-3.4101,-3.4101,-3.4101,-3.4101,-3.4101,-3.4101,-3.4101,-3.4101,-3.4101,-3.4101,-3.4101,-3.4101,-3.4101,-3.4101,-3.4101,-3.4101,-3.4101,-3.4101,-3.4101,-3.4101,-3.4101,-3.4101,-3.4101,-3.4101,-3.4101,-3.5477,-3.6967,-3.8246,-3.8391,-3.8391,-3.8391,-3.8391,-3.8391,-3.8391,-3.8391,-3.8391,-3.8391,-3.8391,-3.8391,-3.8391,-3.8391,-3.8391,-3.8391,-3.8391,-3.8391,-3.8391,-3.8391,-3.8391,-3.8391,-3.9185,-4.0003,0.0,0.0,0.0,0.0,0.0,0.0,0.0,0.0,0.0,0.0,0.0,0.0,0.0,0.0,0.0,0.0,0.0,0.0,0.0,0.0,0.0,0.0,0.0,0.0,0.0,0.0,0.0,0.0,-2.9918,-2.9918,-2.9918,-2.9918,-2.9918,-2.9918,-2.9918,-2.9918,-2.9918,-2.9918,-2.9918,-2.9918,-2.9918,-2.9918,-2.9935,-3.0409,-3.0959,-3.151,-3.2417,-3.2805,-3.287,-3.355,-3.3841,-3.3858,-3.4036,-3.4101,-3.4101,-3.4101,-3.4101,-3.4101,-3.4101,-3.4101,-3.4101,-3.4101,-3.4101,-3.4101,-3.4101,-3.4101,-3.4101,-3.4101,-3.4101,-3.4101,-3.4101,-3.4101,-3.4101,-3.4101,-3.4101,-3.4101,-3.4101,-3.4101,-3.4101,-3.4101,-3.4101,-3.4101,-3.4101,-3.4101,-3.4343,-3.5072,-3.7015,-3.8391,-3.8391,-3.8391,-3.8391,-3.8391,-3.8391,-3.8391,-3.8391,-3.8391,-3.8391,-3.8391,-3.8391,-3.8391,-3.8391,-3.8391,-3.8391,-3.8391,-3.8391,-3.8391,-3.8391,-3.8391,-3.8391,-3.8391,-3.8391,-3.9077,0.0,0.0,0.0,0.0,0.0,0.0,0.0,0.0,0.0,0.0,0.0,0.0,0.0,0.0,0.0,0.0,0.0,0.0,0.0,0.0,0.0,0.0,0.0,0.0,0.0,0.0,0.0,0.0,-2.9918,-2.9918,-2.9918,-2.9918,-2.9918,-2.9918,-2.9918,-2.9918,-2.9918,-2.9918,-2.9918,-2.9918,-2.9918,-2.9918,-2.9918,-2.9951,-2.9983,-3.0097,-3.1461,-3.206,-3.2109,-3.2838,-3.3145,-3.321,-3.3841,-3.4101,-3.4101,-3.4101,-3.4101,-3.4101,-3.4101,-3.4101,-3.4101,-3.4101,-3.4101,-3.4101,-3.4101,-3.4101,-3.4101,-3.4101,-3.4101,-3.4101,-3.4101,-3.4101,-3.4101,-3.4101,-3.4101,-3.4101,-3.4101,-3.4101,-3.4101,-3.4101,-3.4101,-3.4101,-3.4101,-3.4101,-3.5024,-3.776,-3.8311,-3.8391,-3.8391,-3.8391,-3.8391,-3.8391,-3.8391,-3.8391,-3.8391,-3.8391,-3.8391,-3.8391,-3.8391,-3.8391,-3.8391,-3.8391,-3.8391,-3.8391,-3.8391,-3.8391,-3.8391,-3.8391,-3.8391,-3.8391,-3.8391,-3.8448,0.0,0.0,0.0,0.0,0.0,0.0,0.0,0.0,0.0,0.0,0.0,0.0,0.0,0.0,0.0,0.0,0.0,0.0,0.0,0.0,0.0,0.0,0.0,0.0,0.0,0.0,0.0,0.0,0.0,-2.8482,-2.8482,-2.8482,-2.8692,-2.9162,-2.9178,-2.9405,-2.9918,-2.9918,-2.9918,-2.9918,-2.9918,-2.9918,-2.9918,-2.9918,-2.9918,-2.9935,-3.0409,-3.0895,-3.1364,-3.2093,-3.2659,-3.3113,-3.3356,-3.3712,-3.4101,-3.4101,-3.4101,-3.4101,-3.4101,-3.4101,-3.4101,-3.4101,-3.4101,-3.4101,-3.4101,-3.4101,-3.4101,-3.4101,-3.4101,-3.4101,-3.4101,-3.4101,-3.4101,-3.4101,-3.4101,-3.4101,-3.4101,-3.4101,-3.4101,-3.4101,-3.4101,-3.4683,-3.6546,-3.5331,-3.5072,-3.797,-3.8391,-3.8391,-3.8391,-3.8391,-3.8391,-3.8391,-3.8391,-3.8391,-3.8391,-3.8391,-3.8391,-3.8391,-3.8391,-3.8391,-3.8391,-3.8391,-3.8391,-3.8391,-3.8391,-3.8391,-3.8391,-3.8391,-3.8391,-3.8464,-3.9487,-4.0003,0.0,0.0,0.0,0.0,0.0,0.0,0.0,0.0,0.0,0.0,0.0,0.0,0.0,0.0,0.0,0.0,0.0,0.0,0.0,0.0,0.0,0.0,0.0,0.0,0.0,0.0,0.0,0.0,0.0,0.0,-2.7499,-2.7623,-2.7931,-2.8417,-2.8433,-2.8773,-2.9545,-2.9545,-2.9675,-2.9918,-2.9918,-2.9918,-2.9918,-2.9918,-2.9918,-2.9918,-2.9918,-3.0134,-3.0635,-3.1348,-3.1931,-3.2384,-3.2627,-3.3,-3.3437,-3.3663,-3.3906,-3.4101,-3.4101,-3.4101,-3.4101,-3.4101,-3.4101,-3.4101,-3.4101,-3.4101,-3.4101,-3.4101,-3.4101,-3.4101,-3.4101,-3.4101,-3.4101,-3.4101,-3.4101,-3.4101,-3.4101,-3.4101,-3.4101,-3.4101,-3.4101,-3.4716,-3.6627,-3.5364,-3.5072,-3.797,-3.8391,-3.8391,-3.8391,-3.8391,-3.8391,-3.8391,-3.8391,-3.8391,-3.8391,-3.8391,-3.8391,-3.8391,-3.8391,-3.8391,-3.8391,-3.8391,-3.8391,-3.8391,-3.8391,-3.8391,-3.8391,-3.8391,-3.8391,-3.8448,-3.954,-4.0353,0.0,0.0,0.0,0.0,0.0,0.0,0.0,0.0,0.0,0.0,0.0,0.0,0.0,0.0,0.0,0.0,0.0,0.0,0.0,0.0,0.0,0.0,0.0,0.0,0.0,0.0,0.0,0.0,-2.7042,-2.7042,-2.7042,-2.7451,-2.7672,-2.7672,-2.7705,-2.8045,-2.8757,-2.8757,-2.9113,-2.9853,-2.987,-2.9886,-2.9886,-2.9902,-2.9918,-2.9918,-2.9918,-2.9918,-2.9967,-3.0603,-3.0865,-3.0946,-3.1704,-3.1996,-3.2093,-3.2789,-3.3485,-3.4068,-3.4101,-3.4101,-3.4101,-3.4101,-3.4101,-3.4101,-3.4101,-3.4101,-3.4101,-3.4101,-3.4101,-3.4101,-3.4101,-3.4101,-3.4101,-3.4101,-3.4101,-3.4101,-3.4101,-3.4101,-3.4101,-3.4101,-3.4101,-3.4101,-3.4101,-3.4101,-3.5056,-3.7857,-3.8262,-3.8311,-3.8391,-3.8391,-3.8391,-3.8391,-3.8391,-3.8391,-3.8391,-3.8391,-3.8391,-3.8391,-3.8391,-3.8391,-3.8391,-3.8391,-3.8391,-3.8391,-3.8391,-3.8359,-3.8262,-3.8359,-3.8391,-3.8391,-3.8448,-3.9329,-0.9181,0.0,0.0,0.0,0.0,0.0,0.0,0.0,0.0,0.0,0.0,0.0,0.0,0.0,0.0,0.0,0.0,0.0,0.0,0.0,0.0,0.0,0.0,0.0,0.0,0.0,0.0,0.0,-2.5325,-2.5527,-2.5527,-2.6141,-2.6647,-2.6976,-2.7144,-2.7496,-2.8012,-2.7996,-2.8109,-2.832,-2.8838,-2.9081,-2.9097,-2.9675,-2.9918,-2.9918,-2.9918,-2.9918,-2.9918,-3.0085,-3.0457,-3.0898,-3.1137,-3.1542,-3.2028,-3.2238,-3.2757,-3.3437,-3.3922,-3.4101,-3.4101,-3.4101,-3.4101,-3.4101,-3.4101,-3.4101,-3.4101,-3.4101,-3.4101,-3.4101,-3.4101,-3.4101,-3.4101,-3.4101,-3.4101,-3.4101,-3.4101,-3.4101,-3.4101,-3.4101,-3.4101,-3.4101,-3.4101,-3.4101,-3.4376,-3.5169,-3.5283,-3.6044,-3.8132,-3.8391,-3.8391,-3.8391,-3.8391,-3.8391,-3.8391,-3.8391,-3.8391,-3.8391,-3.8391,-3.8391,-3.8391,-3.8391,-3.8391,-3.8391,-3.8391,-3.7371,-3.5299,-3.7371,-3.8391,-3.8448,-3.9644,-4.0468,0.0,0.0,0.0,0.0,0.0,0.0,0.0,-1.4758,0.0,0.0,0.0,0.0,0.0,0.0,0.0,0.0,0.0,0.0,0.0,0.0,0.0,0.0,0.0,0.0,0.0,-2.3581,-2.3797,-2.3994,-2.423,-2.4542,-2.4863,-2.5152,-2.5494,-2.5926,-2.6093,-2.6443,-2.6992,-2.6992,-2.7235,-2.7705,-2.7959,-2.8194,-2.8352,-2.8893,-2.9274,-2.948,-2.9789,-2.9918,-2.9918,-2.9918,-3.0117,-3.049,-3.049,-3.0749,-3.1154,-3.1445,-3.1882,-3.2417,-3.3016,-3.3615,-3.4101,-3.4101,-3.4101,-3.4101,-3.4101,-3.4101,-3.4101,-3.4101,-3.4101,-3.4101,-3.4101,-3.4101,-3.4101,-3.4101,-3.4101,-3.4101,-3.4101,-3.4101,-3.4101,-3.4101,-3.4101,-3.4101,-3.4101,-3.4101,-3.4101,-3.4101,-3.4101,-3.4716,-3.6384,-3.661,-3.661,-3.661,-3.7679,-3.8391,-3.8391,-3.7307,-3.661,-3.661,-3.661,-3.661,-3.661,-3.661,-3.661,-3.661,-3.7792,-3.7566,-3.5898,-3.6367,-3.7226,-3.8391,-3.9382,-4.0204,0.0,0.0,0.0,0.0,0.0,0.0,-1.5545,-1.5123,0.0,0.0,0.0,0.0,0.0,0.0,0.0,0.0,0.0,0.0,0.0,0.0,0.0,0.0,0.0,0.0,-2.2685,-2.2685,-2.2878,-2.3404,-2.3522,-2.3964,-2.4784,-2.4492,-2.4451,-2.4823,-2.4823,-2.5138,-2.5794,-2.5794,-2.6331,-2.7299,-2.7031,-2.7105,-2.7428,-2.7794,-2.8204,-2.8678,-2.9366,-2.975,-2.9814,-2.9874,-2.9918,-2.9918,-2.9918,-2.9918,-2.9983,-3.0587,-3.0992,-3.1316,-3.1737,-3.2757,-3.389,-3.4052,-3.4101,-3.4101,-3.4101,-3.4101,-3.4101,-3.4101,-3.4101,-3.4101,-3.4101,-3.4101,-3.4101,-3.4101,-3.4101,-3.4101,-3.4101,-3.4101,-3.4101,-3.4101,-3.4101,-3.4101,-3.4101,-3.4101,-3.4101,-3.4101,-3.4101,-3.4101,-3.4101,-3.4101,-3.4101,-3.4101,-3.64,-3.7922,-3.7922,-3.5574,-3.4101,-3.4101,-3.4101,-3.4101,-3.4101,-3.4101,-3.4101,-3.4101,-3.6627,-3.8084,-3.8391,-3.5833,-3.5898,-3.8391,-3.8391,-3.9276,-1.3854,-1.4457,-1.5124,-1.3743,0.0,0.0,-1.2722,-1.2648,-1.306,0.0,0.0,0.0,0.0,0.0,0.0,0.0,0.0,0.0,0.0,0.0,0.0,0.0,0.0,0.0,-2.138,-2.138,-2.164,-2.225,-2.3096,-2.3852,-2.4385,-2.4343,-2.4343,-2.441,-2.4426,-2.4488,-2.4611,-2.4611,-2.473,-2.4953,-2.5439,-2.5687,-2.5788,-2.6445,-2.7067,-2.7718,-2.8205,-2.8764,-2.9273,-2.971,-2.9918,-2.9918,-2.9918,-2.9918,-2.9935,-3.0064,-3.0474,-3.1008,-3.1105,-3.1688,-3.2611,-3.3728,-3.4101,-3.4101,-3.4101,-3.4101,-3.4101,-3.4101,-3.4101,-3.4101,-3.4101,-3.4101,-3.4101,-3.4101,-3.4101,-3.4101,-3.4101,-3.4101,-3.4101,-3.4101,-3.4101,-3.4101,-3.4101,-3.4101,-3.4101,-3.4101,-3.4101,-3.4101,-3.4101,-3.4101,-3.4101,-3.4101,-3.4603,-3.4943,-3.4943,-3.4424,-3.4101,-3.4101,-3.4101,-3.4101,-3.4101,-3.4101,-3.4101,-3.4101,-3.4651,-3.6076,-3.8391,-3.7841,-3.7857,-3.8391,-3.8391,-3.9276,-1.5398,-1.5791,-1.6225,-1.4975,0.0,0.0,0.0,-1.3327,-1.3629,-1.4587,0.0,0.0,0.0,0.0,0.0,0.0,0.0,0.0,0.0,0.0,0.0,0.0,0.0,0.0,-2.1003,-2.1003,-2.1133,-2.1481,-2.1984,-2.2497,-2.2965,-2.3295,-2.3559,-2.3779,-2.3895,-2.4036,-2.4302,-2.4094,-2.4078,-2.4317,-2.4414,-2.4567,-2.481,-2.5312,-2.5846,-2.6394,-2.7346,-2.7936,-2.8279,-2.8856,-2.9273,-2.9531,-2.9814,-2.9918,-2.9918,-2.9918,-3.0085,-3.0393,-3.0393,-3.0943,-3.1688,-3.1915,-3.2951,-3.4101,-3.4101,-3.4101,-3.4101,-3.4101,-3.4101,-3.4101,-3.4101,-3.4101,-3.4101,-3.4101,-3.4101,-3.4101,-3.4101,-3.4101,-3.4101,-3.4101,-3.4101,-3.4101,-3.4101,-3.4101,-3.4101,-3.4101,-3.4101,-3.4101,-3.4101,-3.4101,-3.4101,-3.4101,-3.4101,-3.4101,-3.4101,-3.4101,-3.4101,-3.4101,-3.4101,-3.4101,-3.4101,-3.4101,-3.4101,-3.4101,-3.4101,-3.4813,-3.6254,-3.6254,-3.6983,-3.8391,-3.8391,-3.9276,0.0,0.0,0.0,0.0,0.0,-1.5521,0.0,0.0,0.0,-1.5502,0.0,0.0,0.0,0.0,0.0,0.0,0.0,0.0,0.0,0.0,0.0,0.0,0.0,0.0,0.0,-2.0465,-2.0553,-2.0799,-2.0712,-2.0903,-2.1515,-2.2113,-2.2621,-2.3056,-2.3284,-2.3603,-2.4009,-2.3653,-2.3653,-2.4009,-2.3653,-2.3653,-2.4024,-2.4251,-2.4596,-2.5116,-2.6321,-2.6934,-2.7103,-2.7842,-2.8451,-2.8946,-2.9512,-2.9814,-2.9918,-2.9918,-2.9918,-2.9918,-2.9918,-3.0421,-3.0927,-3.0344,-3.1753,-3.3744,-3.402,-3.4101,-3.4101,-3.4101,-3.4101,-3.4101,-3.4101,-3.4101,-3.4101,-3.4101,-3.4101,-3.4101,-3.4101,-3.4101,-3.4101,-3.4101,-3.4101,-3.4101,-3.4101,-3.4101,-3.4101,-3.4101,-3.4101,-3.4101,-3.4101,-3.4101,-3.4101,-3.4101,-3.4101,-3.4101,-3.4101,-3.4101,-3.4101,-3.4101,-3.4101,-3.4101,-3.4101,-3.4101,-3.4101,-3.4101,-3.4101,-3.4101,-3.4101,-3.4101,-3.5574,-3.8391,-3.8391,-3.9276,0.0,0.0,0.0,0.0,-1.717,0.0,0.0,0.0,-1.4848,-1.3905,0.0,0.0,0.0,0.0,0.0,0.0,0.0,0.0,0.0,0.0,0.0,0.0,0.0,0.0,0.0,-1.8521,-1.8985,-2.0117,-1.9653,-1.9851,-2.1027,-2.155,-2.1917,-2.2132,-2.2515,-2.2827,-2.3068,-2.3023,-2.3023,-2.3068,-2.3023,-2.3023,-2.3068,-2.3096,-2.3431,-2.4063,-2.4701,-2.5319,-2.586,-2.7025,-2.7766,-2.8265,-2.8928,-2.947,-2.9918,-2.9918,-2.9918,-2.9918,-2.9918,-2.9983,-3.0194,-3.0895,-3.1639,-3.2481,-3.3728,-3.4101,-3.4101,-3.4101,-3.4101,-3.4101,-3.4101,-3.4101,-3.4101,-3.4101,-3.4101,-3.4101,-3.4101,-3.4101,-3.4101,-3.4101,-3.4101,-3.4101,-3.4101,-3.4101,-3.4101,-3.4101,-3.4101,-3.4101,-3.4101,-3.4101,-3.4101,-3.4101,-3.4101,-3.4101,-3.4101,-3.4101,-3.4101,-3.4101,-3.4101,-3.4101,-3.4101,-3.4101,-3.4101,-3.4101,-3.4101,-3.4101,-3.4101,-3.4101,-3.5574,-3.8391,-3.8391,-3.9276,0.0,0.0,0.0,0.0,0.0,0.0,-1.5432,0.0,-1.5045,0.0,0.0,0.0,0.0,0.0,0.0,0.0,0.0,0.0,0.0,0.0,0.0,0.0,0.0,0.0,0.0,0.0,0.0,0.0,-1.8375,-1.8404,-1.9333,-2.027,-2.1093,-2.181,-2.2096,-2.2612,-2.3304,-2.3023,-2.2888,-2.2888,-2.2888,-2.2888,-2.2888,-2.2888,-2.3033,-2.3354,-2.3948,-2.4395,-2.469,-2.5545,-2.6436,-2.7272,-2.7564,-2.8589,-2.9918,-2.9918,-2.9918,-2.9918,-2.9918,-2.9918,-2.9983,-3.0344,-3.0603,-3.0878,-3.1461,-3.1639,-3.1979,-3.3631,-3.4101,-3.4101,-3.4101,-3.4101,-3.4101,-3.4101,-3.4101,-3.4101,-3.4101,-3.4101,-3.4101,-3.4101,-3.4101,-3.4101,-3.4101,-3.4101,-3.4101,-3.4101,-3.4101,-3.4101,-3.4101,-3.4101,-3.4101,-3.4101,-3.4101,-3.4101,-3.4101,-3.4101,-3.4101,-3.4101,-3.4101,-3.4101,-3.4101,-3.4101,-3.4101,-3.4101,-3.4101,-3.4101,-3.4101,-3.4101,-3.5574,-3.8391,-3.8391,-3.9276,-1.8228,0.0,0.0,0.0,0.0,0.0,0.0,0.0,0.0,0.0,0.0,0.0,0.0,0.0,0.0,0.0,0.0,0.0,0.0,0.0,0.0,0.0,0.0,0.0,0.0,0.0,0.0,0.0,0.0,-1.6938,-1.8143,-1.9087,-2.0099,-2.1248,-2.1547,-2.2191,-2.3169,-2.298,-2.2888,-2.2888,-2.2888,-2.2902,-2.2857,-2.2902,-2.2843,-2.2872,-2.338,-2.3598,-2.358,-2.4202,-2.5062,-2.6048,-2.6359,-2.7596,-2.9154,-2.939,-2.947,-2.947,-2.9621,-2.977,-2.9918,-2.9918,-2.9918,-2.9918,-2.9918,-2.9918,-3.034,-3.2352,-3.3501,-3.4101,-3.4101,-3.4101,-3.4101,-3.4101,-3.4101,-3.4101,-3.4101,-3.4101,-3.4101,-3.4101,-3.4101,-3.4101,-3.4101,-3.4101,-3.4101,-3.4101,-3.4101,-3.4101,-3.4101,-3.4101,-3.4101,-3.4101,-3.4101,-3.4101,-3.4101,-3.4101,-3.4101,-3.4101,-3.4101,-3.4101,-3.4101,-3.4101,-3.4101,-3.4101,-3.4101,-3.4101,-3.4101,-3.4101,-3.5185,-3.7242,-3.8482,-3.9747,0.0,0.0,0.0,-1.6892,0.0,0.0,0.0,0.0,-1.59,0.0,0.0,0.0,0.0,0.0,0.0,0.0,0.0,0.0,0.0,0.0,0.0,0.0,0.0,0.0,0.0,0.0,0.0,0.0,0.0,0.0,-1.8071,-1.8245,-1.884,-2.0088,-2.0712,-2.1351,-2.2062,-2.2643,-2.2888,-2.2888,-2.2888,-2.2872,-2.2809,-2.2857,-2.2797,-2.2615,-2.2764,-2.2764,-2.2686,-2.3316,-2.3938,-2.4671,-2.576,-2.6639,-2.7271,-2.8042,-2.8352,-2.8448,-2.8935,-2.947,-2.9918,-2.9918,-2.9918,-2.9918,-2.9918,-2.9918,-2.9935,-3.0032,-3.1979,-3.4101,-3.4101,-3.4101,-3.4101,-3.4101,-3.4101,-3.4101,-3.4101,-3.4101,-3.4101,-3.4101,-3.4101,-3.4101,-3.4101,-3.4101,-3.4101,-3.4101,-3.4101,-3.4101,-3.4101,-3.4101,-3.4101,-3.4101,-3.4101,-3.4101,-3.4101,-3.4101,-3.4101,-3.4101,-3.4101,-3.4101,-3.4101,-3.4101,-3.4101,-3.4101,-3.4101,-3.4101,-3.4101,-3.4101,-3.4149,-3.4345,-3.8749,-4.0823,0.0,0.0,-1.6578,-1.6362,0.0,0.0,0.0,0.0,0.0,0.0,0.0,0.0,0.0,0.0,0.0,0.0,0.0,0.0,0.0,0.0,0.0,0.0,0.0,0.0,0.0,0.0,0.0,0.0,-1.4964,0.0,0.0,-1.8346,-1.9203,-2.0074,-2.0306,-2.0915,-2.1989,-2.2207,-2.2527,-2.2888,-2.2888,-2.2902,-2.2872,-2.2826,-2.2795,-2.2735,-2.2689,-2.2615,-2.2629,-2.283,-2.3252,-2.3934,-2.4771,-2.545,-2.6138,-2.7508,-2.8094,-2.8192,-2.8496,-2.8685,-2.8982,-2.9665,-2.9918,-2.9918,-2.9918,-2.9918,-3.0308,-3.2141,-3.3356,-3.4101,-3.4101,-3.4101,-3.4101,-3.4101,-3.4101,-3.4101,-3.4101,-3.4101,-3.4101,-3.4101,-3.4101,-3.4101,-3.4101,-3.4101,-3.4101,-3.4101,-3.4101,-3.4101,-3.4101,-3.4101,-3.4101,-3.4101,-3.4101,-3.4101,-3.4101,-3.4101,-3.4101,-3.4101,-3.4101,-3.4101,-3.4101,-3.4101,-3.4101,-3.4101,-3.4101,-3.4101,-3.4101,-3.4101,-3.4101,-3.4165,-3.7656,-3.985,-1.6471,-1.6299,0.0,-1.6038,-1.5551,0.0,-1.4552,0.0,0.0,0.0,0.0,0.0,0.0,0.0,0.0,0.0,0.0,0.0,0.0,0.0,0.0,0.0,0.0,0.0,0.0,0.0,-1.2903,-1.421,0.0,0.0,0.0,0.0,-1.884,-1.9711,-1.9986,-2.0494,-2.1322,-2.1772,-2.2207,-2.2555,-2.2786,-2.2902,-2.2857,-2.2841,-2.2749,-2.2644,-2.2569,-2.2509,-2.2463,-2.2463,-2.2705,-2.3193,-2.4028,-2.4611,-2.5155,-2.6747,-2.7515,-2.7735,-2.76,-2.7898,-2.8352,-2.8701,-2.8811,-2.8811,-2.8811,-2.9289,-3.0291,-3.2093,-3.3323,-3.4101,-3.4101,-3.4101,-3.4101,-3.4101,-3.4101,-3.4101,-3.4101,-3.4101,-3.4101,-3.4101,-3.4101,-3.4101,-3.4101,-3.4101,-3.4101,-3.4101,-3.4101,-3.4101,-3.4101,-3.4101,-3.4101,-3.4101,-3.4101,-3.4101,-3.4101,-3.4101,-3.4101,-3.4101,-3.4101,-3.4101,-3.4101,-3.4101,-3.4101,-3.4101,-3.4101,-3.4101,-3.4101,-3.4101,-3.4101,-3.4165,-3.7064,-3.8969]}]]